<?xml version="1.0" encoding="UTF-8" standalone="no" ?>
<gpx xmlns="http://www.topografix.com/GPX/1/1" xmlns:xsi="http://www.w3.org/2001/XMLSchema-instance" xsi:schemaLocation="http://www.topografix.com/GPX/1/1 http://www.topografix.com/GPX/1/1/gpx.xsd" version="1.1" creator="VisuGPX - https://www.visugpx.com">
  <metadata>
    <name>RAQUETTE</name>
    <desc><![CDATA[SORTIE RAQUETTE ADEM
FICHIER MARC MOITRIER]]></desc>
  </metadata>
  <wpt lat="48.06572" lon="6.99552">
    <ele>1070.9296875</ele>
    <name><![CDATA[Hôtel de Balveurche]]></name>
    <desc><![CDATA[Chemin]]></desc>
    <cmt><![CDATA[Chemin]]></cmt>
  </wpt>
  <wpt lat="47.96034" lon="6.9213">
    <ele>1148</ele>
    <name><![CDATA[La Chaume à VENTRON]]></name>
    <desc><![CDATA[La Chaume

]]></desc>
    <cmt><![CDATA[La Chaume

]]></cmt>
  </wpt>
  <trk>
    <name><![CDATA[VTT Lac Pierre Percé]]></name>
    <trkseg>
      <trkpt lat="48.49701" lon="6.89603">
        <ele>325.279</ele>
        <time>2009-10-28T07:26:23Z</time>
      </trkpt>
      <trkpt lat="48.49701" lon="6.89599">
        <ele>324.497</ele>
        <time>2009-10-28T07:27:02Z</time>
      </trkpt>
      <trkpt lat="48.49701" lon="6.89602">
        <ele>323.834</ele>
        <time>2009-10-28T07:27:09Z</time>
      </trkpt>
      <trkpt lat="48.49691" lon="6.89581">
        <ele>323.807</ele>
        <time>2009-10-28T07:28:28Z</time>
      </trkpt>
      <trkpt lat="48.49683" lon="6.89554">
        <ele>323.478</ele>
        <time>2009-10-28T07:28:34Z</time>
      </trkpt>
      <trkpt lat="48.49661" lon="6.89527">
        <ele>323.147</ele>
        <time>2009-10-28T07:28:41Z</time>
      </trkpt>
      <trkpt lat="48.49649" lon="6.89511">
        <ele>322.497</ele>
        <time>2009-10-28T07:28:45Z</time>
      </trkpt>
      <trkpt lat="48.49636" lon="6.89494">
        <ele>323.008</ele>
        <time>2009-10-28T07:28:49Z</time>
      </trkpt>
      <trkpt lat="48.4962" lon="6.89501">
        <ele>324.098</ele>
        <time>2009-10-28T07:28:54Z</time>
      </trkpt>
      <trkpt lat="48.49599" lon="6.89523">
        <ele>325.408</ele>
        <time>2009-10-28T07:29:02Z</time>
      </trkpt>
      <trkpt lat="48.49583" lon="6.89539">
        <ele>326.639</ele>
        <time>2009-10-28T07:29:10Z</time>
      </trkpt>
      <trkpt lat="48.49573" lon="6.89546">
        <ele>327.328</ele>
        <time>2009-10-28T07:29:15Z</time>
      </trkpt>
      <trkpt lat="48.4956" lon="6.89553">
        <ele>328.348</ele>
        <time>2009-10-28T07:29:20Z</time>
      </trkpt>
      <trkpt lat="48.49547" lon="6.89567">
        <ele>329.608</ele>
        <time>2009-10-28T07:29:26Z</time>
      </trkpt>
      <trkpt lat="48.49539" lon="6.8958">
        <ele>330.468</ele>
        <time>2009-10-28T07:29:31Z</time>
      </trkpt>
      <trkpt lat="48.49529" lon="6.89596">
        <ele>330.937</ele>
        <time>2009-10-28T07:29:37Z</time>
      </trkpt>
      <trkpt lat="48.49522" lon="6.8961">
        <ele>330.796</ele>
        <time>2009-10-28T07:29:42Z</time>
      </trkpt>
      <trkpt lat="48.49511" lon="6.89626">
        <ele>331.477</ele>
        <time>2009-10-28T07:29:49Z</time>
      </trkpt>
      <trkpt lat="48.495" lon="6.89638">
        <ele>333.008</ele>
        <time>2009-10-28T07:29:55Z</time>
      </trkpt>
      <trkpt lat="48.49491" lon="6.8965">
        <ele>336.069</ele>
        <time>2009-10-28T07:30:01Z</time>
      </trkpt>
      <trkpt lat="48.49483" lon="6.8966">
        <ele>339.23</ele>
        <time>2009-10-28T07:30:06Z</time>
      </trkpt>
      <trkpt lat="48.49478" lon="6.8967">
        <ele>345.17</ele>
        <time>2009-10-28T07:30:11Z</time>
      </trkpt>
      <trkpt lat="48.49465" lon="6.89681">
        <ele>350.151</ele>
        <time>2009-10-28T07:30:18Z</time>
      </trkpt>
      <trkpt lat="48.49455" lon="6.89683">
        <ele>351.148</ele>
        <time>2009-10-28T07:30:24Z</time>
      </trkpt>
      <trkpt lat="48.49441" lon="6.89672">
        <ele>352.478</ele>
        <time>2009-10-28T07:30:31Z</time>
      </trkpt>
      <trkpt lat="48.49427" lon="6.89653">
        <ele>352.568</ele>
        <time>2009-10-28T07:30:39Z</time>
      </trkpt>
      <trkpt lat="48.49415" lon="6.89635">
        <ele>353.898</ele>
        <time>2009-10-28T07:30:47Z</time>
      </trkpt>
      <trkpt lat="48.49404" lon="6.89619">
        <ele>355.568</ele>
        <time>2009-10-28T07:30:54Z</time>
      </trkpt>
      <trkpt lat="48.4939" lon="6.89612">
        <ele>355.767</ele>
        <time>2009-10-28T07:31:00Z</time>
      </trkpt>
      <trkpt lat="48.49379" lon="6.89608">
        <ele>356.988</ele>
        <time>2009-10-28T07:31:05Z</time>
      </trkpt>
      <trkpt lat="48.49356" lon="6.89602">
        <ele>358.048</ele>
        <time>2009-10-28T07:31:14Z</time>
      </trkpt>
      <trkpt lat="48.49335" lon="6.89592">
        <ele>358.598</ele>
        <time>2009-10-28T07:31:22Z</time>
      </trkpt>
      <trkpt lat="48.49313" lon="6.89588">
        <ele>358.497</ele>
        <time>2009-10-28T07:31:30Z</time>
      </trkpt>
      <trkpt lat="48.4928" lon="6.89586">
        <ele>359.687</ele>
        <time>2009-10-28T07:31:41Z</time>
      </trkpt>
      <trkpt lat="48.49257" lon="6.89583">
        <ele>360.848</ele>
        <time>2009-10-28T07:31:49Z</time>
      </trkpt>
      <trkpt lat="48.49234" lon="6.8958">
        <ele>361.617</ele>
        <time>2009-10-28T07:31:57Z</time>
      </trkpt>
      <trkpt lat="48.492" lon="6.89581">
        <ele>363.078</ele>
        <time>2009-10-28T07:32:08Z</time>
      </trkpt>
      <trkpt lat="48.4917" lon="6.89584">
        <ele>364.217</ele>
        <time>2009-10-28T07:32:18Z</time>
      </trkpt>
      <trkpt lat="48.49143" lon="6.89597">
        <ele>364.587</ele>
        <time>2009-10-28T07:32:27Z</time>
      </trkpt>
      <trkpt lat="48.49117" lon="6.89606">
        <ele>365.467</ele>
        <time>2009-10-28T07:32:36Z</time>
      </trkpt>
      <trkpt lat="48.49096" lon="6.89613">
        <ele>364.857</ele>
        <time>2009-10-28T07:32:43Z</time>
      </trkpt>
      <trkpt lat="48.49073" lon="6.89621">
        <ele>365.527</ele>
        <time>2009-10-28T07:32:51Z</time>
      </trkpt>
      <trkpt lat="48.49061" lon="6.8964">
        <ele>366.917</ele>
        <time>2009-10-28T07:32:57Z</time>
      </trkpt>
      <trkpt lat="48.49052" lon="6.89659">
        <ele>370.027</ele>
        <time>2009-10-28T07:33:03Z</time>
      </trkpt>
      <trkpt lat="48.49051" lon="6.8966">
        <ele>370.108</ele>
        <time>2009-10-28T07:33:06Z</time>
      </trkpt>
      <trkpt lat="48.49041" lon="6.89651">
        <ele>363.546</ele>
        <time>2009-10-28T07:33:31Z</time>
      </trkpt>
      <trkpt lat="48.49026" lon="6.89637">
        <ele>363.666</ele>
        <time>2009-10-28T07:33:37Z</time>
      </trkpt>
      <trkpt lat="48.49009" lon="6.89631">
        <ele>364.146</ele>
        <time>2009-10-28T07:33:42Z</time>
      </trkpt>
      <trkpt lat="48.48988" lon="6.89624">
        <ele>367.477</ele>
        <time>2009-10-28T07:33:50Z</time>
      </trkpt>
      <trkpt lat="48.4897" lon="6.89619">
        <ele>368.386</ele>
        <time>2009-10-28T07:33:56Z</time>
      </trkpt>
      <trkpt lat="48.48942" lon="6.89609">
        <ele>370.137</ele>
        <time>2009-10-28T07:34:04Z</time>
      </trkpt>
      <trkpt lat="48.48923" lon="6.89604">
        <ele>372.137</ele>
        <time>2009-10-28T07:34:10Z</time>
      </trkpt>
      <trkpt lat="48.48911" lon="6.8961">
        <ele>373.516</ele>
        <time>2009-10-28T07:34:15Z</time>
      </trkpt>
      <trkpt lat="48.48899" lon="6.89631">
        <ele>374.826</ele>
        <time>2009-10-28T07:34:21Z</time>
      </trkpt>
      <trkpt lat="48.48891" lon="6.89643">
        <ele>375.226</ele>
        <time>2009-10-28T07:34:25Z</time>
      </trkpt>
      <trkpt lat="48.48881" lon="6.89665">
        <ele>377.927</ele>
        <time>2009-10-28T07:34:32Z</time>
      </trkpt>
      <trkpt lat="48.48871" lon="6.89678">
        <ele>380.747</ele>
        <time>2009-10-28T07:34:37Z</time>
      </trkpt>
      <trkpt lat="48.48859" lon="6.89692">
        <ele>383.178</ele>
        <time>2009-10-28T07:34:44Z</time>
      </trkpt>
      <trkpt lat="48.48843" lon="6.89708">
        <ele>385.177</ele>
        <time>2009-10-28T07:34:52Z</time>
      </trkpt>
      <trkpt lat="48.48829" lon="6.89726">
        <ele>387.117</ele>
        <time>2009-10-28T07:35:01Z</time>
      </trkpt>
      <trkpt lat="48.48817" lon="6.89742">
        <ele>387.996</ele>
        <time>2009-10-28T07:35:09Z</time>
      </trkpt>
      <trkpt lat="48.48806" lon="6.89758">
        <ele>388.466</ele>
        <time>2009-10-28T07:35:17Z</time>
      </trkpt>
      <trkpt lat="48.48793" lon="6.89774">
        <ele>389.896</ele>
        <time>2009-10-28T07:35:25Z</time>
      </trkpt>
      <trkpt lat="48.4878" lon="6.89789">
        <ele>391.046</ele>
        <time>2009-10-28T07:35:32Z</time>
      </trkpt>
      <trkpt lat="48.4876" lon="6.89809">
        <ele>392.067</ele>
        <time>2009-10-28T07:35:40Z</time>
      </trkpt>
      <trkpt lat="48.48741" lon="6.89829">
        <ele>393.847</ele>
        <time>2009-10-28T07:35:47Z</time>
      </trkpt>
      <trkpt lat="48.48738" lon="6.89832">
        <ele>393.856</ele>
        <time>2009-10-28T07:35:48Z</time>
      </trkpt>
      <trkpt lat="48.48722" lon="6.89846">
        <ele>394.796</ele>
        <time>2009-10-28T07:35:53Z</time>
      </trkpt>
      <trkpt lat="48.48705" lon="6.8986">
        <ele>397.147</ele>
        <time>2009-10-28T07:35:58Z</time>
      </trkpt>
      <trkpt lat="48.48686" lon="6.89881">
        <ele>398.415</ele>
        <time>2009-10-28T07:36:05Z</time>
      </trkpt>
      <trkpt lat="48.48673" lon="6.899">
        <ele>397.205</ele>
        <time>2009-10-28T07:36:11Z</time>
      </trkpt>
      <trkpt lat="48.48657" lon="6.89919">
        <ele>396.485</ele>
        <time>2009-10-28T07:36:18Z</time>
      </trkpt>
      <trkpt lat="48.48644" lon="6.89935">
        <ele>396.105</ele>
        <time>2009-10-28T07:36:24Z</time>
      </trkpt>
      <trkpt lat="48.48627" lon="6.8995">
        <ele>397.226</ele>
        <time>2009-10-28T07:36:31Z</time>
      </trkpt>
      <trkpt lat="48.48612" lon="6.89963">
        <ele>399.346</ele>
        <time>2009-10-28T07:36:38Z</time>
      </trkpt>
      <trkpt lat="48.486" lon="6.89976">
        <ele>402.477</ele>
        <time>2009-10-28T07:36:44Z</time>
      </trkpt>
      <trkpt lat="48.48584" lon="6.89998">
        <ele>405.807</ele>
        <time>2009-10-28T07:36:52Z</time>
      </trkpt>
      <trkpt lat="48.48575" lon="6.90013">
        <ele>407.506</ele>
        <time>2009-10-28T07:36:58Z</time>
      </trkpt>
      <trkpt lat="48.48564" lon="6.9003">
        <ele>408.155</ele>
        <time>2009-10-28T07:37:04Z</time>
      </trkpt>
      <trkpt lat="48.4855" lon="6.90048">
        <ele>410.575</ele>
        <time>2009-10-28T07:37:11Z</time>
      </trkpt>
      <trkpt lat="48.48538" lon="6.90064">
        <ele>413.009</ele>
        <time>2009-10-28T07:37:18Z</time>
      </trkpt>
      <trkpt lat="48.48527" lon="6.90081">
        <ele>413.726</ele>
        <time>2009-10-28T07:37:24Z</time>
      </trkpt>
      <trkpt lat="48.48515" lon="6.90099">
        <ele>416.096</ele>
        <time>2009-10-28T07:37:31Z</time>
      </trkpt>
      <trkpt lat="48.48505" lon="6.90117">
        <ele>416.515</ele>
        <time>2009-10-28T07:37:38Z</time>
      </trkpt>
      <trkpt lat="48.4849" lon="6.90134">
        <ele>419.066</ele>
        <time>2009-10-28T07:37:46Z</time>
      </trkpt>
      <trkpt lat="48.4847" lon="6.90151">
        <ele>420.906</ele>
        <time>2009-10-28T07:37:54Z</time>
      </trkpt>
      <trkpt lat="48.48457" lon="6.90163">
        <ele>422.446</ele>
        <time>2009-10-28T07:38:00Z</time>
      </trkpt>
      <trkpt lat="48.48444" lon="6.90177">
        <ele>420.975</ele>
        <time>2009-10-28T07:38:07Z</time>
      </trkpt>
      <trkpt lat="48.48428" lon="6.90192">
        <ele>421.045</ele>
        <time>2009-10-28T07:38:15Z</time>
      </trkpt>
      <trkpt lat="48.48415" lon="6.90205">
        <ele>421.545</ele>
        <time>2009-10-28T07:38:21Z</time>
      </trkpt>
      <trkpt lat="48.48398" lon="6.9022">
        <ele>424.527</ele>
        <time>2009-10-28T07:38:29Z</time>
      </trkpt>
      <trkpt lat="48.48378" lon="6.90239">
        <ele>426.366</ele>
        <time>2009-10-28T07:38:38Z</time>
      </trkpt>
      <trkpt lat="48.48367" lon="6.90254">
        <ele>426.915</ele>
        <time>2009-10-28T07:38:44Z</time>
      </trkpt>
      <trkpt lat="48.48352" lon="6.90271">
        <ele>426.885</ele>
        <time>2009-10-28T07:38:51Z</time>
      </trkpt>
      <trkpt lat="48.48338" lon="6.90288">
        <ele>427.184</ele>
        <time>2009-10-28T07:38:58Z</time>
      </trkpt>
      <trkpt lat="48.4832" lon="6.90305">
        <ele>429.455</ele>
        <time>2009-10-28T07:39:06Z</time>
      </trkpt>
      <trkpt lat="48.48313" lon="6.90312">
        <ele>430.115</ele>
        <time>2009-10-28T07:39:12Z</time>
      </trkpt>
      <trkpt lat="48.48303" lon="6.90321">
        <ele>431.705</ele>
        <time>2009-10-28T07:39:18Z</time>
      </trkpt>
      <trkpt lat="48.48301" lon="6.90323">
        <ele>432.115</ele>
        <time>2009-10-28T07:39:20Z</time>
      </trkpt>
      <trkpt lat="48.48296" lon="6.90318">
        <ele>431.665</ele>
        <time>2009-10-28T07:39:25Z</time>
      </trkpt>
      <trkpt lat="48.48296" lon="6.9031">
        <ele>431.315</ele>
        <time>2009-10-28T07:39:28Z</time>
      </trkpt>
      <trkpt lat="48.48293" lon="6.90308">
        <ele>430.922</ele>
        <time>2009-10-28T07:39:33Z</time>
      </trkpt>
      <trkpt lat="48.48296" lon="6.90325">
        <ele>436.135</ele>
        <time>2009-10-28T07:40:02Z</time>
      </trkpt>
      <trkpt lat="48.4828" lon="6.90347">
        <ele>435.995</ele>
        <time>2009-10-28T07:40:08Z</time>
      </trkpt>
      <trkpt lat="48.48254" lon="6.90362">
        <ele>434.904</ele>
        <time>2009-10-28T07:40:14Z</time>
      </trkpt>
      <trkpt lat="48.48238" lon="6.90371">
        <ele>432.874</ele>
        <time>2009-10-28T07:40:17Z</time>
      </trkpt>
      <trkpt lat="48.48216" lon="6.90386">
        <ele>429.583</ele>
        <time>2009-10-28T07:40:21Z</time>
      </trkpt>
      <trkpt lat="48.48185" lon="6.90416">
        <ele>426.543</ele>
        <time>2009-10-28T07:40:27Z</time>
      </trkpt>
      <trkpt lat="48.48159" lon="6.90437">
        <ele>424.442</ele>
        <time>2009-10-28T07:40:32Z</time>
      </trkpt>
      <trkpt lat="48.48147" lon="6.90448">
        <ele>423.383</ele>
        <time>2009-10-28T07:40:34Z</time>
      </trkpt>
      <trkpt lat="48.4813" lon="6.90459">
        <ele>423.613</ele>
        <time>2009-10-28T07:40:38Z</time>
      </trkpt>
      <trkpt lat="48.48131" lon="6.90459">
        <ele>422.413</ele>
        <time>2009-10-28T07:40:41Z</time>
      </trkpt>
      <trkpt lat="48.4814" lon="6.90464">
        <ele>421.084</ele>
        <time>2009-10-28T07:40:46Z</time>
      </trkpt>
      <trkpt lat="48.48143" lon="6.90481">
        <ele>420.263</ele>
        <time>2009-10-28T07:40:50Z</time>
      </trkpt>
      <trkpt lat="48.48148" lon="6.90507">
        <ele>418.203</ele>
        <time>2009-10-28T07:40:56Z</time>
      </trkpt>
      <trkpt lat="48.48148" lon="6.90533">
        <ele>417.502</ele>
        <time>2009-10-28T07:41:00Z</time>
      </trkpt>
      <trkpt lat="48.48143" lon="6.90573">
        <ele>416.123</ele>
        <time>2009-10-28T07:41:07Z</time>
      </trkpt>
      <trkpt lat="48.48144" lon="6.90611">
        <ele>415.684</ele>
        <time>2009-10-28T07:41:13Z</time>
      </trkpt>
      <trkpt lat="48.48146" lon="6.90642">
        <ele>418.775</ele>
        <time>2009-10-28T07:41:18Z</time>
      </trkpt>
      <trkpt lat="48.48146" lon="6.90663">
        <ele>421.596</ele>
        <time>2009-10-28T07:41:22Z</time>
      </trkpt>
      <trkpt lat="48.48158" lon="6.90692">
        <ele>422.536</ele>
        <time>2009-10-28T07:41:27Z</time>
      </trkpt>
      <trkpt lat="48.48171" lon="6.90714">
        <ele>420.164</ele>
        <time>2009-10-28T07:41:32Z</time>
      </trkpt>
      <trkpt lat="48.48178" lon="6.90716">
        <ele>418.263</ele>
        <time>2009-10-28T07:41:34Z</time>
      </trkpt>
      <trkpt lat="48.48195" lon="6.90702">
        <ele>413.552</ele>
        <time>2009-10-28T07:41:39Z</time>
      </trkpt>
      <trkpt lat="48.48205" lon="6.90692">
        <ele>410.001</ele>
        <time>2009-10-28T07:41:42Z</time>
      </trkpt>
      <trkpt lat="48.48213" lon="6.90666">
        <ele>405.051</ele>
        <time>2009-10-28T07:41:46Z</time>
      </trkpt>
      <trkpt lat="48.48225" lon="6.90626">
        <ele>399.2</ele>
        <time>2009-10-28T07:41:51Z</time>
      </trkpt>
      <trkpt lat="48.48237" lon="6.90599">
        <ele>397.929</ele>
        <time>2009-10-28T07:41:55Z</time>
      </trkpt>
      <trkpt lat="48.48246" lon="6.90599">
        <ele>395.831</ele>
        <time>2009-10-28T07:41:58Z</time>
      </trkpt>
      <trkpt lat="48.48257" lon="6.90605">
        <ele>394.203</ele>
        <time>2009-10-28T07:42:04Z</time>
      </trkpt>
      <trkpt lat="48.48264" lon="6.90599">
        <ele>393.983</ele>
        <time>2009-10-28T07:42:07Z</time>
      </trkpt>
      <trkpt lat="48.48278" lon="6.9058">
        <ele>392.232</ele>
        <time>2009-10-28T07:42:13Z</time>
      </trkpt>
      <trkpt lat="48.48287" lon="6.90565">
        <ele>391.522</ele>
        <time>2009-10-28T07:42:17Z</time>
      </trkpt>
      <trkpt lat="48.48295" lon="6.90567">
        <ele>391.774</ele>
        <time>2009-10-28T07:42:21Z</time>
      </trkpt>
      <trkpt lat="48.483" lon="6.90571">
        <ele>393.215</ele>
        <time>2009-10-28T07:42:23Z</time>
      </trkpt>
      <trkpt lat="48.48312" lon="6.90592">
        <ele>396.046</ele>
        <time>2009-10-28T07:42:30Z</time>
      </trkpt>
      <trkpt lat="48.48321" lon="6.9061">
        <ele>400.747</ele>
        <time>2009-10-28T07:42:35Z</time>
      </trkpt>
      <trkpt lat="48.48334" lon="6.90633">
        <ele>405.887</ele>
        <time>2009-10-28T07:42:41Z</time>
      </trkpt>
      <trkpt lat="48.48343" lon="6.90644">
        <ele>408.768</ele>
        <time>2009-10-28T07:42:45Z</time>
      </trkpt>
      <trkpt lat="48.4835" lon="6.90658">
        <ele>412.969</ele>
        <time>2009-10-28T07:42:50Z</time>
      </trkpt>
      <trkpt lat="48.4836" lon="6.90677">
        <ele>419.488</ele>
        <time>2009-10-28T07:42:56Z</time>
      </trkpt>
      <trkpt lat="48.48369" lon="6.90693">
        <ele>423.969</ele>
        <time>2009-10-28T07:43:01Z</time>
      </trkpt>
      <trkpt lat="48.48379" lon="6.90711">
        <ele>426.648</ele>
        <time>2009-10-28T07:43:06Z</time>
      </trkpt>
      <trkpt lat="48.48389" lon="6.90729">
        <ele>429.067</ele>
        <time>2009-10-28T07:43:12Z</time>
      </trkpt>
      <trkpt lat="48.48393" lon="6.90752">
        <ele>429.376</ele>
        <time>2009-10-28T07:43:18Z</time>
      </trkpt>
      <trkpt lat="48.48401" lon="6.90774">
        <ele>426.006</ele>
        <time>2009-10-28T07:43:23Z</time>
      </trkpt>
      <trkpt lat="48.48407" lon="6.9079">
        <ele>421.875</ele>
        <time>2009-10-28T07:43:28Z</time>
      </trkpt>
      <trkpt lat="48.48415" lon="6.90811">
        <ele>421.585</ele>
        <time>2009-10-28T07:43:33Z</time>
      </trkpt>
      <trkpt lat="48.48424" lon="6.90833">
        <ele>419.424</ele>
        <time>2009-10-28T07:43:38Z</time>
      </trkpt>
      <trkpt lat="48.48426" lon="6.90837">
        <ele>418.214</ele>
        <time>2009-10-28T07:43:39Z</time>
      </trkpt>
      <trkpt lat="48.48438" lon="6.90858">
        <ele>415.973</ele>
        <time>2009-10-28T07:43:44Z</time>
      </trkpt>
      <trkpt lat="48.48439" lon="6.90863">
        <ele>414.343</ele>
        <time>2009-10-28T07:43:45Z</time>
      </trkpt>
      <trkpt lat="48.48444" lon="6.90886">
        <ele>414.684</ele>
        <time>2009-10-28T07:43:51Z</time>
      </trkpt>
      <trkpt lat="48.48444" lon="6.9089">
        <ele>415.384</ele>
        <time>2009-10-28T07:43:52Z</time>
      </trkpt>
      <trkpt lat="48.48446" lon="6.90907">
        <ele>419.585</ele>
        <time>2009-10-28T07:43:58Z</time>
      </trkpt>
      <trkpt lat="48.48443" lon="6.90906">
        <ele>420.795</ele>
        <time>2009-10-28T07:44:02Z</time>
      </trkpt>
      <trkpt lat="48.4844" lon="6.90905">
        <ele>420.825</ele>
        <time>2009-10-28T07:44:03Z</time>
      </trkpt>
      <trkpt lat="48.48416" lon="6.90895">
        <ele>416.933</ele>
        <time>2009-10-28T07:44:09Z</time>
      </trkpt>
      <trkpt lat="48.4839" lon="6.90898">
        <ele>412.382</ele>
        <time>2009-10-28T07:44:15Z</time>
      </trkpt>
      <trkpt lat="48.48379" lon="6.90906">
        <ele>412.614</ele>
        <time>2009-10-28T07:44:19Z</time>
      </trkpt>
      <trkpt lat="48.48369" lon="6.9092">
        <ele>415.135</ele>
        <time>2009-10-28T07:44:23Z</time>
      </trkpt>
      <trkpt lat="48.48352" lon="6.90945">
        <ele>419.328</ele>
        <time>2009-10-28T07:44:30Z</time>
      </trkpt>
      <trkpt lat="48.4834" lon="6.90972">
        <ele>422.359</ele>
        <time>2009-10-28T07:44:36Z</time>
      </trkpt>
      <trkpt lat="48.48336" lon="6.90981">
        <ele>423.018</ele>
        <time>2009-10-28T07:44:38Z</time>
      </trkpt>
      <trkpt lat="48.48323" lon="6.91015">
        <ele>424.197</ele>
        <time>2009-10-28T07:44:45Z</time>
      </trkpt>
      <trkpt lat="48.48322" lon="6.91037">
        <ele>424.647</ele>
        <time>2009-10-28T07:44:49Z</time>
      </trkpt>
      <trkpt lat="48.48317" lon="6.91053">
        <ele>423.346</ele>
        <time>2009-10-28T07:44:53Z</time>
      </trkpt>
      <trkpt lat="48.48308" lon="6.91044">
        <ele>419.524</ele>
        <time>2009-10-28T07:44:57Z</time>
      </trkpt>
      <trkpt lat="48.48291" lon="6.91036">
        <ele>416.653</ele>
        <time>2009-10-28T07:45:01Z</time>
      </trkpt>
      <trkpt lat="48.48281" lon="6.91041">
        <ele>414.803</ele>
        <time>2009-10-28T07:45:03Z</time>
      </trkpt>
      <trkpt lat="48.48266" lon="6.91054">
        <ele>414.374</ele>
        <time>2009-10-28T07:45:07Z</time>
      </trkpt>
      <trkpt lat="48.48253" lon="6.91079">
        <ele>415.345</ele>
        <time>2009-10-28T07:45:13Z</time>
      </trkpt>
      <trkpt lat="48.48248" lon="6.91094">
        <ele>413.274</ele>
        <time>2009-10-28T07:45:17Z</time>
      </trkpt>
      <trkpt lat="48.48243" lon="6.91088">
        <ele>410.053</ele>
        <time>2009-10-28T07:45:21Z</time>
      </trkpt>
      <trkpt lat="48.48239" lon="6.91083">
        <ele>408.673</ele>
        <time>2009-10-28T07:45:23Z</time>
      </trkpt>
      <trkpt lat="48.48215" lon="6.91074">
        <ele>403.792</ele>
        <time>2009-10-28T07:45:30Z</time>
      </trkpt>
      <trkpt lat="48.48211" lon="6.91072">
        <ele>402.842</ele>
        <time>2009-10-28T07:45:31Z</time>
      </trkpt>
      <trkpt lat="48.48189" lon="6.91066">
        <ele>400.392</ele>
        <time>2009-10-28T07:45:36Z</time>
      </trkpt>
      <trkpt lat="48.48185" lon="6.91066">
        <ele>399.102</ele>
        <time>2009-10-28T07:45:39Z</time>
      </trkpt>
      <trkpt lat="48.48184" lon="6.91064">
        <ele>398.512</ele>
        <time>2009-10-28T07:45:40Z</time>
      </trkpt>
      <trkpt lat="48.48176" lon="6.9105">
        <ele>395.903</ele>
        <time>2009-10-28T07:45:45Z</time>
      </trkpt>
      <trkpt lat="48.48176" lon="6.9105">
        <ele>395.343</ele>
        <time>2009-10-28T07:45:46Z</time>
      </trkpt>
      <trkpt lat="48.48174" lon="6.91043">
        <ele>391.841</ele>
        <time>2009-10-28T07:45:55Z</time>
      </trkpt>
      <trkpt lat="48.48176" lon="6.91049">
        <ele>394.025</ele>
        <time>2009-10-28T07:47:41Z</time>
      </trkpt>
      <trkpt lat="48.48177" lon="6.91054">
        <ele>394.685</ele>
        <time>2009-10-28T07:47:45Z</time>
      </trkpt>
      <trkpt lat="48.48177" lon="6.91058">
        <ele>395.555</ele>
        <time>2009-10-28T07:47:48Z</time>
      </trkpt>
      <trkpt lat="48.48178" lon="6.9106">
        <ele>396.045</ele>
        <time>2009-10-28T07:47:50Z</time>
      </trkpt>
      <trkpt lat="48.48178" lon="6.91066">
        <ele>397.366</ele>
        <time>2009-10-28T07:47:54Z</time>
      </trkpt>
      <trkpt lat="48.48173" lon="6.91071">
        <ele>399.505</ele>
        <time>2009-10-28T07:48:00Z</time>
      </trkpt>
      <trkpt lat="48.48165" lon="6.9108">
        <ele>401.106</ele>
        <time>2009-10-28T07:48:05Z</time>
      </trkpt>
      <trkpt lat="48.48158" lon="6.9109">
        <ele>403.516</ele>
        <time>2009-10-28T07:48:11Z</time>
      </trkpt>
      <trkpt lat="48.48151" lon="6.91102">
        <ele>404.505</ele>
        <time>2009-10-28T07:48:16Z</time>
      </trkpt>
      <trkpt lat="48.48139" lon="6.91123">
        <ele>404.847</ele>
        <time>2009-10-28T07:48:24Z</time>
      </trkpt>
      <trkpt lat="48.48131" lon="6.91142">
        <ele>406.846</ele>
        <time>2009-10-28T07:48:30Z</time>
      </trkpt>
      <trkpt lat="48.48118" lon="6.91164">
        <ele>411.506</ele>
        <time>2009-10-28T07:48:38Z</time>
      </trkpt>
      <trkpt lat="48.48112" lon="6.91182">
        <ele>412.847</ele>
        <time>2009-10-28T07:48:44Z</time>
      </trkpt>
      <trkpt lat="48.48107" lon="6.91202">
        <ele>414.997</ele>
        <time>2009-10-28T07:48:50Z</time>
      </trkpt>
      <trkpt lat="48.48101" lon="6.91225">
        <ele>418.427</ele>
        <time>2009-10-28T07:48:57Z</time>
      </trkpt>
      <trkpt lat="48.48099" lon="6.91243">
        <ele>418.016</ele>
        <time>2009-10-28T07:49:02Z</time>
      </trkpt>
      <trkpt lat="48.48097" lon="6.91257">
        <ele>418.806</ele>
        <time>2009-10-28T07:49:06Z</time>
      </trkpt>
      <trkpt lat="48.48101" lon="6.91279">
        <ele>417.375</ele>
        <time>2009-10-28T07:49:12Z</time>
      </trkpt>
      <trkpt lat="48.48109" lon="6.91296">
        <ele>414.004</ele>
        <time>2009-10-28T07:49:17Z</time>
      </trkpt>
      <trkpt lat="48.4812" lon="6.913">
        <ele>413.435</ele>
        <time>2009-10-28T07:49:21Z</time>
      </trkpt>
      <trkpt lat="48.4814" lon="6.91298">
        <ele>413.485</ele>
        <time>2009-10-28T07:49:28Z</time>
      </trkpt>
      <trkpt lat="48.48153" lon="6.91306">
        <ele>413.975</ele>
        <time>2009-10-28T07:49:33Z</time>
      </trkpt>
      <trkpt lat="48.48162" lon="6.91321">
        <ele>415.195</ele>
        <time>2009-10-28T07:49:38Z</time>
      </trkpt>
      <trkpt lat="48.48171" lon="6.91335">
        <ele>416.496</ele>
        <time>2009-10-28T07:49:43Z</time>
      </trkpt>
      <trkpt lat="48.48184" lon="6.91349">
        <ele>417.776</ele>
        <time>2009-10-28T07:49:48Z</time>
      </trkpt>
      <trkpt lat="48.48197" lon="6.91363">
        <ele>417.445</ele>
        <time>2009-10-28T07:49:53Z</time>
      </trkpt>
      <trkpt lat="48.48215" lon="6.91367">
        <ele>417.185</ele>
        <time>2009-10-28T07:49:59Z</time>
      </trkpt>
      <trkpt lat="48.4823" lon="6.91368">
        <ele>416.804</ele>
        <time>2009-10-28T07:50:04Z</time>
      </trkpt>
      <trkpt lat="48.48242" lon="6.9136">
        <ele>415.604</ele>
        <time>2009-10-28T07:50:08Z</time>
      </trkpt>
      <trkpt lat="48.48253" lon="6.91363">
        <ele>415.154</ele>
        <time>2009-10-28T07:50:12Z</time>
      </trkpt>
      <trkpt lat="48.48263" lon="6.9137">
        <ele>415.105</ele>
        <time>2009-10-28T07:50:17Z</time>
      </trkpt>
      <trkpt lat="48.48287" lon="6.91378">
        <ele>414.434</ele>
        <time>2009-10-28T07:50:24Z</time>
      </trkpt>
      <trkpt lat="48.48307" lon="6.91387">
        <ele>414.244</ele>
        <time>2009-10-28T07:50:30Z</time>
      </trkpt>
      <trkpt lat="48.48321" lon="6.91391">
        <ele>415.325</ele>
        <time>2009-10-28T07:50:35Z</time>
      </trkpt>
      <trkpt lat="48.48333" lon="6.91389">
        <ele>417.325</ele>
        <time>2009-10-28T07:50:40Z</time>
      </trkpt>
      <trkpt lat="48.48348" lon="6.91389">
        <ele>417.265</ele>
        <time>2009-10-28T07:50:45Z</time>
      </trkpt>
      <trkpt lat="48.48364" lon="6.9139">
        <ele>417.515</ele>
        <time>2009-10-28T07:50:50Z</time>
      </trkpt>
      <trkpt lat="48.48376" lon="6.91391">
        <ele>417.825</ele>
        <time>2009-10-28T07:50:54Z</time>
      </trkpt>
      <trkpt lat="48.48387" lon="6.91399">
        <ele>419.716</ele>
        <time>2009-10-28T07:50:58Z</time>
      </trkpt>
      <trkpt lat="48.4839" lon="6.91419">
        <ele>423.077</ele>
        <time>2009-10-28T07:51:03Z</time>
      </trkpt>
      <trkpt lat="48.48383" lon="6.91434">
        <ele>427.108</ele>
        <time>2009-10-28T07:51:07Z</time>
      </trkpt>
      <trkpt lat="48.48368" lon="6.91446">
        <ele>429.897</ele>
        <time>2009-10-28T07:51:11Z</time>
      </trkpt>
      <trkpt lat="48.48359" lon="6.91472">
        <ele>431.167</ele>
        <time>2009-10-28T07:51:16Z</time>
      </trkpt>
      <trkpt lat="48.4836" lon="6.91486">
        <ele>432.686</ele>
        <time>2009-10-28T07:51:20Z</time>
      </trkpt>
      <trkpt lat="48.48359" lon="6.91506">
        <ele>430.726</ele>
        <time>2009-10-28T07:51:24Z</time>
      </trkpt>
      <trkpt lat="48.48356" lon="6.91526">
        <ele>433.137</ele>
        <time>2009-10-28T07:51:27Z</time>
      </trkpt>
      <trkpt lat="48.48349" lon="6.91533">
        <ele>432.825</ele>
        <time>2009-10-28T07:51:32Z</time>
      </trkpt>
      <trkpt lat="48.48342" lon="6.91533">
        <ele>433.105</ele>
        <time>2009-10-28T07:51:34Z</time>
      </trkpt>
      <trkpt lat="48.4832" lon="6.91538">
        <ele>430.494</ele>
        <time>2009-10-28T07:51:40Z</time>
      </trkpt>
      <trkpt lat="48.48307" lon="6.91546">
        <ele>427.245</ele>
        <time>2009-10-28T07:51:44Z</time>
      </trkpt>
      <trkpt lat="48.48303" lon="6.91563">
        <ele>426.295</ele>
        <time>2009-10-28T07:51:50Z</time>
      </trkpt>
      <trkpt lat="48.48303" lon="6.91567">
        <ele>424.895</ele>
        <time>2009-10-28T07:51:51Z</time>
      </trkpt>
      <trkpt lat="48.48304" lon="6.91588">
        <ele>425.406</ele>
        <time>2009-10-28T07:51:57Z</time>
      </trkpt>
      <trkpt lat="48.48311" lon="6.91612">
        <ele>426.886</ele>
        <time>2009-10-28T07:52:04Z</time>
      </trkpt>
      <trkpt lat="48.48314" lon="6.91633">
        <ele>426.876</ele>
        <time>2009-10-28T07:52:10Z</time>
      </trkpt>
      <trkpt lat="48.48309" lon="6.91651">
        <ele>430.127</ele>
        <time>2009-10-28T07:52:15Z</time>
      </trkpt>
      <trkpt lat="48.48314" lon="6.91666">
        <ele>430.696</ele>
        <time>2009-10-28T07:52:20Z</time>
      </trkpt>
      <trkpt lat="48.48316" lon="6.9167">
        <ele>430.727</ele>
        <time>2009-10-28T07:52:21Z</time>
      </trkpt>
      <trkpt lat="48.48328" lon="6.91689">
        <ele>431.007</ele>
        <time>2009-10-28T07:52:27Z</time>
      </trkpt>
      <trkpt lat="48.48344" lon="6.91705">
        <ele>429.665</ele>
        <time>2009-10-28T07:52:33Z</time>
      </trkpt>
      <trkpt lat="48.48356" lon="6.91721">
        <ele>429.115</ele>
        <time>2009-10-28T07:52:38Z</time>
      </trkpt>
      <trkpt lat="48.48373" lon="6.91736">
        <ele>428.535</ele>
        <time>2009-10-28T07:52:44Z</time>
      </trkpt>
      <trkpt lat="48.48382" lon="6.9175">
        <ele>429.746</ele>
        <time>2009-10-28T07:52:49Z</time>
      </trkpt>
      <trkpt lat="48.48382" lon="6.91753">
        <ele>430.056</ele>
        <time>2009-10-28T07:52:50Z</time>
      </trkpt>
      <trkpt lat="48.48372" lon="6.91758">
        <ele>430.926</ele>
        <time>2009-10-28T07:52:55Z</time>
      </trkpt>
      <trkpt lat="48.48355" lon="6.9176">
        <ele>428.644</ele>
        <time>2009-10-28T07:53:01Z</time>
      </trkpt>
      <trkpt lat="48.48352" lon="6.91761">
        <ele>428.064</ele>
        <time>2009-10-28T07:53:02Z</time>
      </trkpt>
      <trkpt lat="48.48334" lon="6.91784">
        <ele>422.412</ele>
        <time>2009-10-28T07:53:09Z</time>
      </trkpt>
      <trkpt lat="48.48321" lon="6.918">
        <ele>417.722</ele>
        <time>2009-10-28T07:53:14Z</time>
      </trkpt>
      <trkpt lat="48.48311" lon="6.91815">
        <ele>413.652</ele>
        <time>2009-10-28T07:53:18Z</time>
      </trkpt>
      <trkpt lat="48.483" lon="6.91834">
        <ele>408.112</ele>
        <time>2009-10-28T07:53:23Z</time>
      </trkpt>
      <trkpt lat="48.48296" lon="6.9184">
        <ele>406.752</ele>
        <time>2009-10-28T07:53:26Z</time>
      </trkpt>
      <trkpt lat="48.48302" lon="6.91849">
        <ele>405.893</ele>
        <time>2009-10-28T07:53:30Z</time>
      </trkpt>
      <trkpt lat="48.48301" lon="6.91865">
        <ele>405.994</ele>
        <time>2009-10-28T07:53:35Z</time>
      </trkpt>
      <trkpt lat="48.48303" lon="6.9187">
        <ele>405.114</ele>
        <time>2009-10-28T07:53:38Z</time>
      </trkpt>
      <trkpt lat="48.48312" lon="6.91883">
        <ele>406.375</ele>
        <time>2009-10-28T07:53:42Z</time>
      </trkpt>
      <trkpt lat="48.48325" lon="6.919">
        <ele>409.436</ele>
        <time>2009-10-28T07:53:48Z</time>
      </trkpt>
      <trkpt lat="48.48333" lon="6.91911">
        <ele>411.397</ele>
        <time>2009-10-28T07:53:52Z</time>
      </trkpt>
      <trkpt lat="48.48342" lon="6.91924">
        <ele>412.217</ele>
        <time>2009-10-28T07:53:57Z</time>
      </trkpt>
      <trkpt lat="48.48346" lon="6.91929">
        <ele>413.53</ele>
        <time>2009-10-28T07:54:01Z</time>
      </trkpt>
      <trkpt lat="48.48357" lon="6.91945">
        <ele>416.907</ele>
        <time>2009-10-28T07:54:09Z</time>
      </trkpt>
      <trkpt lat="48.48365" lon="6.91961">
        <ele>420.118</ele>
        <time>2009-10-28T07:54:14Z</time>
      </trkpt>
      <trkpt lat="48.48378" lon="6.91979">
        <ele>424.538</ele>
        <time>2009-10-28T07:54:20Z</time>
      </trkpt>
      <trkpt lat="48.48382" lon="6.91987">
        <ele>425.928</ele>
        <time>2009-10-28T07:54:23Z</time>
      </trkpt>
      <trkpt lat="48.48391" lon="6.92003">
        <ele>427.738</ele>
        <time>2009-10-28T07:54:29Z</time>
      </trkpt>
      <trkpt lat="48.48403" lon="6.92018">
        <ele>428.647</ele>
        <time>2009-10-28T07:54:34Z</time>
      </trkpt>
      <trkpt lat="48.48412" lon="6.92033">
        <ele>431.358</ele>
        <time>2009-10-28T07:54:39Z</time>
      </trkpt>
      <trkpt lat="48.48417" lon="6.92038">
        <ele>432.478</ele>
        <time>2009-10-28T07:54:41Z</time>
      </trkpt>
      <trkpt lat="48.4843" lon="6.92057">
        <ele>434.608</ele>
        <time>2009-10-28T07:54:47Z</time>
      </trkpt>
      <trkpt lat="48.48438" lon="6.92072">
        <ele>434.596</ele>
        <time>2009-10-28T07:54:52Z</time>
      </trkpt>
      <trkpt lat="48.48452" lon="6.92098">
        <ele>436.898</ele>
        <time>2009-10-28T07:55:00Z</time>
      </trkpt>
      <trkpt lat="48.4846" lon="6.92113">
        <ele>440.74</ele>
        <time>2009-10-28T07:55:05Z</time>
      </trkpt>
      <trkpt lat="48.48462" lon="6.92117">
        <ele>441.369</ele>
        <time>2009-10-28T07:55:06Z</time>
      </trkpt>
      <trkpt lat="48.48465" lon="6.92125">
        <ele>439.508</ele>
        <time>2009-10-28T07:55:08Z</time>
      </trkpt>
      <trkpt lat="48.4847" lon="6.92141">
        <ele>437.676</ele>
        <time>2009-10-28T07:55:14Z</time>
      </trkpt>
      <trkpt lat="48.48476" lon="6.92151">
        <ele>433.265</ele>
        <time>2009-10-28T07:55:18Z</time>
      </trkpt>
      <trkpt lat="48.48495" lon="6.92166">
        <ele>431.315</ele>
        <time>2009-10-28T07:55:25Z</time>
      </trkpt>
      <trkpt lat="48.48516" lon="6.92169">
        <ele>432.015</ele>
        <time>2009-10-28T07:55:32Z</time>
      </trkpt>
      <trkpt lat="48.48532" lon="6.92171">
        <ele>430.924</ele>
        <time>2009-10-28T07:55:38Z</time>
      </trkpt>
      <trkpt lat="48.48539" lon="6.9218">
        <ele>431.835</ele>
        <time>2009-10-28T07:55:42Z</time>
      </trkpt>
      <trkpt lat="48.48538" lon="6.92184">
        <ele>432.565</ele>
        <time>2009-10-28T07:55:43Z</time>
      </trkpt>
      <trkpt lat="48.48531" lon="6.92197">
        <ele>434.535</ele>
        <time>2009-10-28T07:55:48Z</time>
      </trkpt>
      <trkpt lat="48.4852" lon="6.9221">
        <ele>434.315</ele>
        <time>2009-10-28T07:55:53Z</time>
      </trkpt>
      <trkpt lat="48.48513" lon="6.92223">
        <ele>435.396</ele>
        <time>2009-10-28T07:55:58Z</time>
      </trkpt>
      <trkpt lat="48.48511" lon="6.92241">
        <ele>438.178</ele>
        <time>2009-10-28T07:56:03Z</time>
      </trkpt>
      <trkpt lat="48.48513" lon="6.9227">
        <ele>441.978</ele>
        <time>2009-10-28T07:56:10Z</time>
      </trkpt>
      <trkpt lat="48.48515" lon="6.92294">
        <ele>444.168</ele>
        <time>2009-10-28T07:56:16Z</time>
      </trkpt>
      <trkpt lat="48.48514" lon="6.92316">
        <ele>446.657</ele>
        <time>2009-10-28T07:56:21Z</time>
      </trkpt>
      <trkpt lat="48.48516" lon="6.92337">
        <ele>446.627</ele>
        <time>2009-10-28T07:56:25Z</time>
      </trkpt>
      <trkpt lat="48.48514" lon="6.92356">
        <ele>445.736</ele>
        <time>2009-10-28T07:56:29Z</time>
      </trkpt>
      <trkpt lat="48.48508" lon="6.92384">
        <ele>446.076</ele>
        <time>2009-10-28T07:56:34Z</time>
      </trkpt>
      <trkpt lat="48.48498" lon="6.92403">
        <ele>448.007</ele>
        <time>2009-10-28T07:56:39Z</time>
      </trkpt>
      <trkpt lat="48.48496" lon="6.92414">
        <ele>446.116</ele>
        <time>2009-10-28T07:56:42Z</time>
      </trkpt>
      <trkpt lat="48.48491" lon="6.92412">
        <ele>441.073</ele>
        <time>2009-10-28T07:56:46Z</time>
      </trkpt>
      <trkpt lat="48.48482" lon="6.92396">
        <ele>437.133</ele>
        <time>2009-10-28T07:56:51Z</time>
      </trkpt>
      <trkpt lat="48.48478" lon="6.9238">
        <ele>432.893</ele>
        <time>2009-10-28T07:56:56Z</time>
      </trkpt>
      <trkpt lat="48.48472" lon="6.92368">
        <ele>429.402</ele>
        <time>2009-10-28T07:57:02Z</time>
      </trkpt>
      <trkpt lat="48.48467" lon="6.9236">
        <ele>428.504</ele>
        <time>2009-10-28T07:57:07Z</time>
      </trkpt>
      <trkpt lat="48.4846" lon="6.92354">
        <ele>428.575</ele>
        <time>2009-10-28T07:57:13Z</time>
      </trkpt>
      <trkpt lat="48.48451" lon="6.92348">
        <ele>430.035</ele>
        <time>2009-10-28T07:57:21Z</time>
      </trkpt>
      <trkpt lat="48.48446" lon="6.92347">
        <ele>432.735</ele>
        <time>2009-10-28T07:57:27Z</time>
      </trkpt>
      <trkpt lat="48.48441" lon="6.92344">
        <ele>433.815</ele>
        <time>2009-10-28T07:57:34Z</time>
      </trkpt>
      <trkpt lat="48.48433" lon="6.9234">
        <ele>435.004</ele>
        <time>2009-10-28T07:57:42Z</time>
      </trkpt>
      <trkpt lat="48.48427" lon="6.92337">
        <ele>435.644</ele>
        <time>2009-10-28T07:57:48Z</time>
      </trkpt>
      <trkpt lat="48.48421" lon="6.92335">
        <ele>435.605</ele>
        <time>2009-10-28T07:57:53Z</time>
      </trkpt>
      <trkpt lat="48.48409" lon="6.92331">
        <ele>438.035</ele>
        <time>2009-10-28T07:58:00Z</time>
      </trkpt>
      <trkpt lat="48.48408" lon="6.92332">
        <ele>438.155</ele>
        <time>2009-10-28T07:58:01Z</time>
      </trkpt>
      <trkpt lat="48.48397" lon="6.92337">
        <ele>440.815</ele>
        <time>2009-10-28T07:58:08Z</time>
      </trkpt>
      <trkpt lat="48.48387" lon="6.92338">
        <ele>441.345</ele>
        <time>2009-10-28T07:58:13Z</time>
      </trkpt>
      <trkpt lat="48.48375" lon="6.92338">
        <ele>444.026</ele>
        <time>2009-10-28T07:58:19Z</time>
      </trkpt>
      <trkpt lat="48.48365" lon="6.92348">
        <ele>447.296</ele>
        <time>2009-10-28T07:58:25Z</time>
      </trkpt>
      <trkpt lat="48.48355" lon="6.92356">
        <ele>452.068</ele>
        <time>2009-10-28T07:58:32Z</time>
      </trkpt>
      <trkpt lat="48.48347" lon="6.92365">
        <ele>457.967</ele>
        <time>2009-10-28T07:58:39Z</time>
      </trkpt>
      <trkpt lat="48.48337" lon="6.92376">
        <ele>461.566</ele>
        <time>2009-10-28T07:58:46Z</time>
      </trkpt>
      <trkpt lat="48.48328" lon="6.92386">
        <ele>465.327</ele>
        <time>2009-10-28T07:58:52Z</time>
      </trkpt>
      <trkpt lat="48.48321" lon="6.92396">
        <ele>467.587</ele>
        <time>2009-10-28T07:58:58Z</time>
      </trkpt>
      <trkpt lat="48.48312" lon="6.92404">
        <ele>470.336</ele>
        <time>2009-10-28T07:59:04Z</time>
      </trkpt>
      <trkpt lat="48.48301" lon="6.92411">
        <ele>471.755</ele>
        <time>2009-10-28T07:59:10Z</time>
      </trkpt>
      <trkpt lat="48.48291" lon="6.92421">
        <ele>472.065</ele>
        <time>2009-10-28T07:59:16Z</time>
      </trkpt>
      <trkpt lat="48.48279" lon="6.92431">
        <ele>476.366</ele>
        <time>2009-10-28T07:59:23Z</time>
      </trkpt>
      <trkpt lat="48.48277" lon="6.92435">
        <ele>476.795</ele>
        <time>2009-10-28T07:59:25Z</time>
      </trkpt>
      <trkpt lat="48.48267" lon="6.92447">
        <ele>479.825</ele>
        <time>2009-10-28T07:59:32Z</time>
      </trkpt>
      <trkpt lat="48.48257" lon="6.92456">
        <ele>482.726</ele>
        <time>2009-10-28T07:59:38Z</time>
      </trkpt>
      <trkpt lat="48.48255" lon="6.92456">
        <ele>482.455</ele>
        <time>2009-10-28T07:59:39Z</time>
      </trkpt>
      <trkpt lat="48.48255" lon="6.92466">
        <ele>482.385</ele>
        <time>2009-10-28T07:59:45Z</time>
      </trkpt>
      <trkpt lat="48.48257" lon="6.92472">
        <ele>482.215</ele>
        <time>2009-10-28T07:59:48Z</time>
      </trkpt>
      <trkpt lat="48.48267" lon="6.92491">
        <ele>484.098</ele>
        <time>2009-10-28T07:59:55Z</time>
      </trkpt>
      <trkpt lat="48.48274" lon="6.92514">
        <ele>486.577</ele>
        <time>2009-10-28T08:00:01Z</time>
      </trkpt>
      <trkpt lat="48.4828" lon="6.92534">
        <ele>486.626</ele>
        <time>2009-10-28T08:00:06Z</time>
      </trkpt>
      <trkpt lat="48.48283" lon="6.92555">
        <ele>484.975</ele>
        <time>2009-10-28T08:00:10Z</time>
      </trkpt>
      <trkpt lat="48.48289" lon="6.92576">
        <ele>486.126</ele>
        <time>2009-10-28T08:00:14Z</time>
      </trkpt>
      <trkpt lat="48.48305" lon="6.92613">
        <ele>482.227</ele>
        <time>2009-10-28T08:00:20Z</time>
      </trkpt>
      <trkpt lat="48.48318" lon="6.92636">
        <ele>483.706</ele>
        <time>2009-10-28T08:00:25Z</time>
      </trkpt>
      <trkpt lat="48.4833" lon="6.92651">
        <ele>484.806</ele>
        <time>2009-10-28T08:00:29Z</time>
      </trkpt>
      <trkpt lat="48.48345" lon="6.92673">
        <ele>487.009</ele>
        <time>2009-10-28T08:00:34Z</time>
      </trkpt>
      <trkpt lat="48.48344" lon="6.92701">
        <ele>489.867</ele>
        <time>2009-10-28T08:00:39Z</time>
      </trkpt>
      <trkpt lat="48.48346" lon="6.92705">
        <ele>489.687</ele>
        <time>2009-10-28T08:00:40Z</time>
      </trkpt>
      <trkpt lat="48.48355" lon="6.92729">
        <ele>489.347</ele>
        <time>2009-10-28T08:00:46Z</time>
      </trkpt>
      <trkpt lat="48.48362" lon="6.92749">
        <ele>487.856</ele>
        <time>2009-10-28T08:00:51Z</time>
      </trkpt>
      <trkpt lat="48.48372" lon="6.92776">
        <ele>489.197</ele>
        <time>2009-10-28T08:00:57Z</time>
      </trkpt>
      <trkpt lat="48.48376" lon="6.92794">
        <ele>490.327</ele>
        <time>2009-10-28T08:01:01Z</time>
      </trkpt>
      <trkpt lat="48.48376" lon="6.9282">
        <ele>493.538</ele>
        <time>2009-10-28T08:01:06Z</time>
      </trkpt>
      <trkpt lat="48.48372" lon="6.92839">
        <ele>494.448</ele>
        <time>2009-10-28T08:01:10Z</time>
      </trkpt>
      <trkpt lat="48.48368" lon="6.92863">
        <ele>496.587</ele>
        <time>2009-10-28T08:01:15Z</time>
      </trkpt>
      <trkpt lat="48.48378" lon="6.92879">
        <ele>495.918</ele>
        <time>2009-10-28T08:01:20Z</time>
      </trkpt>
      <trkpt lat="48.4838" lon="6.92883">
        <ele>494.567</ele>
        <time>2009-10-28T08:01:21Z</time>
      </trkpt>
      <trkpt lat="48.4839" lon="6.92892">
        <ele>496.097</ele>
        <time>2009-10-28T08:01:26Z</time>
      </trkpt>
      <trkpt lat="48.48396" lon="6.929">
        <ele>497.867</ele>
        <time>2009-10-28T08:01:29Z</time>
      </trkpt>
      <trkpt lat="48.48394" lon="6.92922">
        <ele>499.187</ele>
        <time>2009-10-28T08:01:34Z</time>
      </trkpt>
      <trkpt lat="48.48387" lon="6.92948">
        <ele>501.237</ele>
        <time>2009-10-28T08:01:39Z</time>
      </trkpt>
      <trkpt lat="48.48381" lon="6.92972">
        <ele>499.716</ele>
        <time>2009-10-28T08:01:44Z</time>
      </trkpt>
      <trkpt lat="48.4837" lon="6.93007">
        <ele>501.327</ele>
        <time>2009-10-28T08:01:51Z</time>
      </trkpt>
      <trkpt lat="48.48357" lon="6.93024">
        <ele>504.147</ele>
        <time>2009-10-28T08:01:56Z</time>
      </trkpt>
      <trkpt lat="48.48343" lon="6.93036">
        <ele>503.336</ele>
        <time>2009-10-28T08:02:01Z</time>
      </trkpt>
      <trkpt lat="48.48329" lon="6.93045">
        <ele>501.696</ele>
        <time>2009-10-28T08:02:07Z</time>
      </trkpt>
      <trkpt lat="48.48316" lon="6.93052">
        <ele>501.976</ele>
        <time>2009-10-28T08:02:12Z</time>
      </trkpt>
      <trkpt lat="48.48305" lon="6.93061">
        <ele>500.175</ele>
        <time>2009-10-28T08:02:17Z</time>
      </trkpt>
      <trkpt lat="48.48286" lon="6.93072">
        <ele>501.166</ele>
        <time>2009-10-28T08:02:24Z</time>
      </trkpt>
      <trkpt lat="48.48271" lon="6.93086">
        <ele>495.405</ele>
        <time>2009-10-28T08:02:31Z</time>
      </trkpt>
      <trkpt lat="48.48254" lon="6.93094">
        <ele>496.575</ele>
        <time>2009-10-28T08:02:37Z</time>
      </trkpt>
      <trkpt lat="48.48239" lon="6.931">
        <ele>496.634</ele>
        <time>2009-10-28T08:02:42Z</time>
      </trkpt>
      <trkpt lat="48.48227" lon="6.93095">
        <ele>492.884</ele>
        <time>2009-10-28T08:02:48Z</time>
      </trkpt>
      <trkpt lat="48.48226" lon="6.93099">
        <ele>493.074</ele>
        <time>2009-10-28T08:02:50Z</time>
      </trkpt>
      <trkpt lat="48.48223" lon="6.93103">
        <ele>493.714</ele>
        <time>2009-10-28T08:02:52Z</time>
      </trkpt>
      <trkpt lat="48.48211" lon="6.93105">
        <ele>493.814</ele>
        <time>2009-10-28T08:02:56Z</time>
      </trkpt>
      <trkpt lat="48.48189" lon="6.93103">
        <ele>492.043</ele>
        <time>2009-10-28T08:03:02Z</time>
      </trkpt>
      <trkpt lat="48.48177" lon="6.93099">
        <ele>492.064</ele>
        <time>2009-10-28T08:03:06Z</time>
      </trkpt>
      <trkpt lat="48.48156" lon="6.93086">
        <ele>490.743</ele>
        <time>2009-10-28T08:03:12Z</time>
      </trkpt>
      <trkpt lat="48.48136" lon="6.93071">
        <ele>489.543</ele>
        <time>2009-10-28T08:03:18Z</time>
      </trkpt>
      <trkpt lat="48.48122" lon="6.93061">
        <ele>487.882</ele>
        <time>2009-10-28T08:03:22Z</time>
      </trkpt>
      <trkpt lat="48.48103" lon="6.93042">
        <ele>484.762</ele>
        <time>2009-10-28T08:03:28Z</time>
      </trkpt>
      <trkpt lat="48.48094" lon="6.93033">
        <ele>483.112</ele>
        <time>2009-10-28T08:03:31Z</time>
      </trkpt>
      <trkpt lat="48.48083" lon="6.93022">
        <ele>483.163</ele>
        <time>2009-10-28T08:03:34Z</time>
      </trkpt>
      <trkpt lat="48.48063" lon="6.92983">
        <ele>480.302</ele>
        <time>2009-10-28T08:03:42Z</time>
      </trkpt>
      <trkpt lat="48.48055" lon="6.92974">
        <ele>479.213</ele>
        <time>2009-10-28T08:03:47Z</time>
      </trkpt>
      <trkpt lat="48.48046" lon="6.92959">
        <ele>478.633</ele>
        <time>2009-10-28T08:03:51Z</time>
      </trkpt>
      <trkpt lat="48.48036" lon="6.92949">
        <ele>477.452</ele>
        <time>2009-10-28T08:03:55Z</time>
      </trkpt>
      <trkpt lat="48.48022" lon="6.92932">
        <ele>477.583</ele>
        <time>2009-10-28T08:04:00Z</time>
      </trkpt>
      <trkpt lat="48.48019" lon="6.92928">
        <ele>476.973</ele>
        <time>2009-10-28T08:04:01Z</time>
      </trkpt>
      <trkpt lat="48.48003" lon="6.92909">
        <ele>475.072</ele>
        <time>2009-10-28T08:04:06Z</time>
      </trkpt>
      <trkpt lat="48.47982" lon="6.92882">
        <ele>474.363</ele>
        <time>2009-10-28T08:04:12Z</time>
      </trkpt>
      <trkpt lat="48.47979" lon="6.92878">
        <ele>474.223</ele>
        <time>2009-10-28T08:04:13Z</time>
      </trkpt>
      <trkpt lat="48.47968" lon="6.92864">
        <ele>473.213</ele>
        <time>2009-10-28T08:04:16Z</time>
      </trkpt>
      <trkpt lat="48.47955" lon="6.92851">
        <ele>471.792</ele>
        <time>2009-10-28T08:04:19Z</time>
      </trkpt>
      <trkpt lat="48.47947" lon="6.92841">
        <ele>470.912</ele>
        <time>2009-10-28T08:04:21Z</time>
      </trkpt>
      <trkpt lat="48.47933" lon="6.92816">
        <ele>470.703</ele>
        <time>2009-10-28T08:04:25Z</time>
      </trkpt>
      <trkpt lat="48.47927" lon="6.92804">
        <ele>470.613</ele>
        <time>2009-10-28T08:04:27Z</time>
      </trkpt>
      <trkpt lat="48.47901" lon="6.92779">
        <ele>468.692</ele>
        <time>2009-10-28T08:04:32Z</time>
      </trkpt>
      <trkpt lat="48.47884" lon="6.92768">
        <ele>467.442</ele>
        <time>2009-10-28T08:04:35Z</time>
      </trkpt>
      <trkpt lat="48.47868" lon="6.92755">
        <ele>465.582</ele>
        <time>2009-10-28T08:04:38Z</time>
      </trkpt>
      <trkpt lat="48.47847" lon="6.92737">
        <ele>464.753</ele>
        <time>2009-10-28T08:04:42Z</time>
      </trkpt>
      <trkpt lat="48.47813" lon="6.92714">
        <ele>464.724</ele>
        <time>2009-10-28T08:04:49Z</time>
      </trkpt>
      <trkpt lat="48.47795" lon="6.927">
        <ele>465.284</ele>
        <time>2009-10-28T08:04:54Z</time>
      </trkpt>
      <trkpt lat="48.47776" lon="6.92689">
        <ele>465.764</ele>
        <time>2009-10-28T08:04:59Z</time>
      </trkpt>
      <trkpt lat="48.47745" lon="6.92665">
        <ele>465.904</ele>
        <time>2009-10-28T08:05:07Z</time>
      </trkpt>
      <trkpt lat="48.47715" lon="6.92648">
        <ele>465.243</ele>
        <time>2009-10-28T08:05:14Z</time>
      </trkpt>
      <trkpt lat="48.47677" lon="6.92629">
        <ele>467.104</ele>
        <time>2009-10-28T08:05:22Z</time>
      </trkpt>
      <trkpt lat="48.47673" lon="6.92626">
        <ele>467.154</ele>
        <time>2009-10-28T08:05:23Z</time>
      </trkpt>
      <trkpt lat="48.47645" lon="6.92613">
        <ele>468.464</ele>
        <time>2009-10-28T08:05:29Z</time>
      </trkpt>
      <trkpt lat="48.47631" lon="6.92606">
        <ele>468.733</ele>
        <time>2009-10-28T08:05:32Z</time>
      </trkpt>
      <trkpt lat="48.47608" lon="6.92591">
        <ele>468.994</ele>
        <time>2009-10-28T08:05:37Z</time>
      </trkpt>
      <trkpt lat="48.47601" lon="6.92584">
        <ele>468.743</ele>
        <time>2009-10-28T08:05:39Z</time>
      </trkpt>
      <trkpt lat="48.47593" lon="6.92574">
        <ele>468.433</ele>
        <time>2009-10-28T08:05:41Z</time>
      </trkpt>
      <trkpt lat="48.47567" lon="6.92525">
        <ele>466.393</ele>
        <time>2009-10-28T08:05:49Z</time>
      </trkpt>
      <trkpt lat="48.47559" lon="6.92515">
        <ele>465.872</ele>
        <time>2009-10-28T08:05:51Z</time>
      </trkpt>
      <trkpt lat="48.47542" lon="6.92491">
        <ele>463.622</ele>
        <time>2009-10-28T08:05:56Z</time>
      </trkpt>
      <trkpt lat="48.47523" lon="6.92446">
        <ele>460.432</ele>
        <time>2009-10-28T08:06:03Z</time>
      </trkpt>
      <trkpt lat="48.47519" lon="6.92435">
        <ele>459.241</ele>
        <time>2009-10-28T08:06:05Z</time>
      </trkpt>
      <trkpt lat="48.47511" lon="6.9241">
        <ele>457.211</ele>
        <time>2009-10-28T08:06:09Z</time>
      </trkpt>
      <trkpt lat="48.47494" lon="6.92376">
        <ele>455.522</ele>
        <time>2009-10-28T08:06:15Z</time>
      </trkpt>
      <trkpt lat="48.47487" lon="6.92357">
        <ele>454.221</ele>
        <time>2009-10-28T08:06:19Z</time>
      </trkpt>
      <trkpt lat="48.47477" lon="6.92332">
        <ele>451.351</ele>
        <time>2009-10-28T08:06:24Z</time>
      </trkpt>
      <trkpt lat="48.47473" lon="6.92319">
        <ele>448.751</ele>
        <time>2009-10-28T08:06:28Z</time>
      </trkpt>
      <trkpt lat="48.47471" lon="6.92316">
        <ele>447.96</ele>
        <time>2009-10-28T08:06:29Z</time>
      </trkpt>
      <trkpt lat="48.47467" lon="6.92304">
        <ele>444.911</ele>
        <time>2009-10-28T08:06:34Z</time>
      </trkpt>
      <trkpt lat="48.47463" lon="6.92294">
        <ele>441.95</ele>
        <time>2009-10-28T08:06:38Z</time>
      </trkpt>
      <trkpt lat="48.47455" lon="6.9228">
        <ele>438.079</ele>
        <time>2009-10-28T08:06:43Z</time>
      </trkpt>
      <trkpt lat="48.4745" lon="6.92268">
        <ele>434.049</ele>
        <time>2009-10-28T08:06:47Z</time>
      </trkpt>
      <trkpt lat="48.47441" lon="6.92258">
        <ele>430.08</ele>
        <time>2009-10-28T08:06:52Z</time>
      </trkpt>
      <trkpt lat="48.47423" lon="6.92244">
        <ele>425.311</ele>
        <time>2009-10-28T08:07:00Z</time>
      </trkpt>
      <trkpt lat="48.47413" lon="6.92238">
        <ele>419.329</ele>
        <time>2009-10-28T08:07:05Z</time>
      </trkpt>
      <trkpt lat="48.474" lon="6.92232">
        <ele>414.75</ele>
        <time>2009-10-28T08:07:11Z</time>
      </trkpt>
      <trkpt lat="48.47389" lon="6.92221">
        <ele>410.309</ele>
        <time>2009-10-28T08:07:16Z</time>
      </trkpt>
      <trkpt lat="48.47385" lon="6.92218">
        <ele>408.93</ele>
        <time>2009-10-28T08:07:18Z</time>
      </trkpt>
      <trkpt lat="48.47379" lon="6.92227">
        <ele>407.521</ele>
        <time>2009-10-28T08:07:22Z</time>
      </trkpt>
      <trkpt lat="48.47376" lon="6.92239">
        <ele>407.412</ele>
        <time>2009-10-28T08:07:24Z</time>
      </trkpt>
      <trkpt lat="48.47377" lon="6.92302">
        <ele>409.323</ele>
        <time>2009-10-28T08:07:33Z</time>
      </trkpt>
      <trkpt lat="48.47378" lon="6.92314">
        <ele>409.403</ele>
        <time>2009-10-28T08:07:35Z</time>
      </trkpt>
      <trkpt lat="48.47384" lon="6.92354">
        <ele>408.833</ele>
        <time>2009-10-28T08:07:41Z</time>
      </trkpt>
      <trkpt lat="48.47395" lon="6.92408">
        <ele>409.973</ele>
        <time>2009-10-28T08:07:49Z</time>
      </trkpt>
      <trkpt lat="48.47406" lon="6.92446">
        <ele>411.905</ele>
        <time>2009-10-28T08:07:55Z</time>
      </trkpt>
      <trkpt lat="48.47412" lon="6.92465">
        <ele>414.074</ele>
        <time>2009-10-28T08:07:58Z</time>
      </trkpt>
      <trkpt lat="48.47418" lon="6.92491">
        <ele>419.476</ele>
        <time>2009-10-28T08:08:02Z</time>
      </trkpt>
      <trkpt lat="48.47434" lon="6.92545">
        <ele>419.795</ele>
        <time>2009-10-28T08:08:10Z</time>
      </trkpt>
      <trkpt lat="48.47445" lon="6.92577">
        <ele>422.245</ele>
        <time>2009-10-28T08:08:15Z</time>
      </trkpt>
      <trkpt lat="48.4746" lon="6.92611">
        <ele>422.794</ele>
        <time>2009-10-28T08:08:21Z</time>
      </trkpt>
      <trkpt lat="48.47476" lon="6.92645">
        <ele>420.903</ele>
        <time>2009-10-28T08:08:27Z</time>
      </trkpt>
      <trkpt lat="48.47495" lon="6.92678">
        <ele>421.764</ele>
        <time>2009-10-28T08:08:33Z</time>
      </trkpt>
      <trkpt lat="48.47521" lon="6.92713">
        <ele>420.213</ele>
        <time>2009-10-28T08:08:40Z</time>
      </trkpt>
      <trkpt lat="48.47532" lon="6.92726">
        <ele>419.703</ele>
        <time>2009-10-28T08:08:43Z</time>
      </trkpt>
      <trkpt lat="48.4756" lon="6.92749">
        <ele>422.054</ele>
        <time>2009-10-28T08:08:50Z</time>
      </trkpt>
      <trkpt lat="48.47564" lon="6.92751">
        <ele>421.833</ele>
        <time>2009-10-28T08:08:51Z</time>
      </trkpt>
      <trkpt lat="48.47589" lon="6.92759">
        <ele>420.833</ele>
        <time>2009-10-28T08:08:57Z</time>
      </trkpt>
      <trkpt lat="48.47616" lon="6.92763">
        <ele>423.044</ele>
        <time>2009-10-28T08:09:03Z</time>
      </trkpt>
      <trkpt lat="48.47634" lon="6.92767">
        <ele>424.684</ele>
        <time>2009-10-28T08:09:08Z</time>
      </trkpt>
      <trkpt lat="48.4764" lon="6.92769">
        <ele>427.924</ele>
        <time>2009-10-28T08:09:12Z</time>
      </trkpt>
      <trkpt lat="48.4764" lon="6.92769">
        <ele>428.958</ele>
        <time>2009-10-28T08:09:13Z</time>
      </trkpt>
      <trkpt lat="48.47638" lon="6.92773">
        <ele>432.892</ele>
        <time>2009-10-28T08:09:22Z</time>
      </trkpt>
      <trkpt lat="48.47641" lon="6.92772">
        <ele>432.084</ele>
        <time>2009-10-28T08:09:25Z</time>
      </trkpt>
      <trkpt lat="48.47643" lon="6.92768">
        <ele>429.303</ele>
        <time>2009-10-28T08:09:30Z</time>
      </trkpt>
      <trkpt lat="48.47639" lon="6.92775">
        <ele>427.962</ele>
        <time>2009-10-28T08:09:35Z</time>
      </trkpt>
      <trkpt lat="48.47637" lon="6.92788">
        <ele>420.328</ele>
        <time>2009-10-28T08:09:41Z</time>
      </trkpt>
      <trkpt lat="48.47637" lon="6.92789">
        <ele>419.612</ele>
        <time>2009-10-28T08:09:42Z</time>
      </trkpt>
      <trkpt lat="48.47626" lon="6.92795">
        <ele>412.59</ele>
        <time>2009-10-28T08:09:55Z</time>
      </trkpt>
      <trkpt lat="48.47614" lon="6.92796">
        <ele>407.411</ele>
        <time>2009-10-28T08:10:01Z</time>
      </trkpt>
      <trkpt lat="48.4761" lon="6.92807">
        <ele>403.65</ele>
        <time>2009-10-28T08:10:06Z</time>
      </trkpt>
      <trkpt lat="48.47611" lon="6.92814">
        <ele>399.779</ele>
        <time>2009-10-28T08:10:10Z</time>
      </trkpt>
      <trkpt lat="48.47612" lon="6.92816">
        <ele>398.649</ele>
        <time>2009-10-28T08:10:11Z</time>
      </trkpt>
      <trkpt lat="48.47614" lon="6.92823">
        <ele>396.129</ele>
        <time>2009-10-28T08:10:14Z</time>
      </trkpt>
      <trkpt lat="48.47628" lon="6.92836">
        <ele>396.601</ele>
        <time>2009-10-28T08:10:20Z</time>
      </trkpt>
      <trkpt lat="48.47641" lon="6.92851">
        <ele>397.982</ele>
        <time>2009-10-28T08:10:25Z</time>
      </trkpt>
      <trkpt lat="48.47659" lon="6.92863">
        <ele>399.863</ele>
        <time>2009-10-28T08:10:30Z</time>
      </trkpt>
      <trkpt lat="48.47672" lon="6.92876">
        <ele>403.844</ele>
        <time>2009-10-28T08:10:34Z</time>
      </trkpt>
      <trkpt lat="48.47673" lon="6.9288">
        <ele>405.775</ele>
        <time>2009-10-28T08:10:35Z</time>
      </trkpt>
      <trkpt lat="48.47674" lon="6.92898">
        <ele>408.254</ele>
        <time>2009-10-28T08:10:40Z</time>
      </trkpt>
      <trkpt lat="48.47671" lon="6.92904">
        <ele>406.834</ele>
        <time>2009-10-28T08:10:43Z</time>
      </trkpt>
      <trkpt lat="48.47679" lon="6.92902">
        <ele>401.532</ele>
        <time>2009-10-28T08:10:48Z</time>
      </trkpt>
      <trkpt lat="48.47683" lon="6.92899">
        <ele>399.122</ele>
        <time>2009-10-28T08:10:50Z</time>
      </trkpt>
      <trkpt lat="48.47687" lon="6.92901">
        <ele>398.313</ele>
        <time>2009-10-28T08:10:54Z</time>
      </trkpt>
      <trkpt lat="48.47696" lon="6.92905">
        <ele>399.013</ele>
        <time>2009-10-28T08:10:58Z</time>
      </trkpt>
      <trkpt lat="48.47701" lon="6.92909">
        <ele>398.503</ele>
        <time>2009-10-28T08:11:02Z</time>
      </trkpt>
      <trkpt lat="48.47708" lon="6.92912">
        <ele>398.624</ele>
        <time>2009-10-28T08:11:07Z</time>
      </trkpt>
      <trkpt lat="48.47719" lon="6.92919">
        <ele>398.734</ele>
        <time>2009-10-28T08:11:12Z</time>
      </trkpt>
      <trkpt lat="48.47732" lon="6.92927">
        <ele>398.914</ele>
        <time>2009-10-28T08:11:17Z</time>
      </trkpt>
      <trkpt lat="48.4775" lon="6.9294">
        <ele>397.473</ele>
        <time>2009-10-28T08:11:23Z</time>
      </trkpt>
      <trkpt lat="48.47769" lon="6.92956">
        <ele>395.743</ele>
        <time>2009-10-28T08:11:30Z</time>
      </trkpt>
      <trkpt lat="48.47786" lon="6.9297">
        <ele>395.744</ele>
        <time>2009-10-28T08:11:37Z</time>
      </trkpt>
      <trkpt lat="48.47791" lon="6.92976">
        <ele>397.054</ele>
        <time>2009-10-28T08:11:40Z</time>
      </trkpt>
      <trkpt lat="48.47794" lon="6.92977">
        <ele>396.674</ele>
        <time>2009-10-28T08:11:42Z</time>
      </trkpt>
      <trkpt lat="48.47801" lon="6.92977">
        <ele>394.763</ele>
        <time>2009-10-28T08:11:46Z</time>
      </trkpt>
      <trkpt lat="48.47808" lon="6.92984">
        <ele>393.653</ele>
        <time>2009-10-28T08:11:49Z</time>
      </trkpt>
      <trkpt lat="48.47818" lon="6.92999">
        <ele>396.535</ele>
        <time>2009-10-28T08:11:55Z</time>
      </trkpt>
      <trkpt lat="48.47826" lon="6.93009">
        <ele>398.955</ele>
        <time>2009-10-28T08:12:00Z</time>
      </trkpt>
      <trkpt lat="48.47836" lon="6.93022">
        <ele>399.915</ele>
        <time>2009-10-28T08:12:05Z</time>
      </trkpt>
      <trkpt lat="48.47846" lon="6.93027">
        <ele>400.915</ele>
        <time>2009-10-28T08:12:10Z</time>
      </trkpt>
      <trkpt lat="48.47856" lon="6.93028">
        <ele>401.174</ele>
        <time>2009-10-28T08:12:16Z</time>
      </trkpt>
      <trkpt lat="48.47854" lon="6.93032">
        <ele>402.485</ele>
        <time>2009-10-28T08:12:18Z</time>
      </trkpt>
      <trkpt lat="48.47851" lon="6.93037">
        <ele>404.535</ele>
        <time>2009-10-28T08:12:20Z</time>
      </trkpt>
      <trkpt lat="48.47849" lon="6.93048">
        <ele>410.746</ele>
        <time>2009-10-28T08:12:24Z</time>
      </trkpt>
      <trkpt lat="48.47856" lon="6.9306">
        <ele>414.907</ele>
        <time>2009-10-28T08:12:29Z</time>
      </trkpt>
      <trkpt lat="48.47859" lon="6.93066">
        <ele>416.438</ele>
        <time>2009-10-28T08:12:31Z</time>
      </trkpt>
      <trkpt lat="48.47863" lon="6.93072">
        <ele>418.009</ele>
        <time>2009-10-28T08:12:33Z</time>
      </trkpt>
      <trkpt lat="48.47869" lon="6.9308">
        <ele>420.987</ele>
        <time>2009-10-28T08:12:37Z</time>
      </trkpt>
      <trkpt lat="48.47883" lon="6.93097">
        <ele>422.329</ele>
        <time>2009-10-28T08:12:44Z</time>
      </trkpt>
      <trkpt lat="48.47887" lon="6.93102">
        <ele>423.698</ele>
        <time>2009-10-28T08:12:46Z</time>
      </trkpt>
      <trkpt lat="48.47898" lon="6.93115">
        <ele>425.617</ele>
        <time>2009-10-28T08:12:51Z</time>
      </trkpt>
      <trkpt lat="48.4791" lon="6.93131">
        <ele>424.906</ele>
        <time>2009-10-28T08:12:56Z</time>
      </trkpt>
      <trkpt lat="48.47922" lon="6.93144">
        <ele>425.206</ele>
        <time>2009-10-28T08:13:01Z</time>
      </trkpt>
      <trkpt lat="48.47933" lon="6.93158">
        <ele>424.696</ele>
        <time>2009-10-28T08:13:06Z</time>
      </trkpt>
      <trkpt lat="48.47941" lon="6.93167">
        <ele>423.726</ele>
        <time>2009-10-28T08:13:09Z</time>
      </trkpt>
      <trkpt lat="48.47954" lon="6.93184">
        <ele>426.536</ele>
        <time>2009-10-28T08:13:16Z</time>
      </trkpt>
      <trkpt lat="48.47958" lon="6.93191">
        <ele>428.017</ele>
        <time>2009-10-28T08:13:19Z</time>
      </trkpt>
      <trkpt lat="48.47964" lon="6.93205">
        <ele>429.987</ele>
        <time>2009-10-28T08:13:24Z</time>
      </trkpt>
      <trkpt lat="48.47968" lon="6.93211">
        <ele>429.237</ele>
        <time>2009-10-28T08:13:27Z</time>
      </trkpt>
      <trkpt lat="48.47979" lon="6.93231">
        <ele>429.407</ele>
        <time>2009-10-28T08:13:34Z</time>
      </trkpt>
      <trkpt lat="48.47988" lon="6.93245">
        <ele>431.097</ele>
        <time>2009-10-28T08:13:39Z</time>
      </trkpt>
      <trkpt lat="48.47998" lon="6.93262">
        <ele>435.56</ele>
        <time>2009-10-28T08:13:45Z</time>
      </trkpt>
      <trkpt lat="48.48002" lon="6.93269">
        <ele>438.858</ele>
        <time>2009-10-28T08:13:48Z</time>
      </trkpt>
      <trkpt lat="48.48012" lon="6.93286">
        <ele>445.552</ele>
        <time>2009-10-28T08:13:55Z</time>
      </trkpt>
      <trkpt lat="48.48018" lon="6.93296">
        <ele>448.188</ele>
        <time>2009-10-28T08:13:59Z</time>
      </trkpt>
      <trkpt lat="48.48024" lon="6.93306">
        <ele>451.928</ele>
        <time>2009-10-28T08:14:03Z</time>
      </trkpt>
      <trkpt lat="48.48033" lon="6.93322">
        <ele>456.907</ele>
        <time>2009-10-28T08:14:09Z</time>
      </trkpt>
      <trkpt lat="48.48042" lon="6.9334">
        <ele>459.958</ele>
        <time>2009-10-28T08:14:15Z</time>
      </trkpt>
      <trkpt lat="48.48048" lon="6.93356">
        <ele>463.008</ele>
        <time>2009-10-28T08:14:21Z</time>
      </trkpt>
      <trkpt lat="48.48056" lon="6.93372">
        <ele>463.887</ele>
        <time>2009-10-28T08:14:26Z</time>
      </trkpt>
      <trkpt lat="48.48061" lon="6.93386">
        <ele>462.336</ele>
        <time>2009-10-28T08:14:30Z</time>
      </trkpt>
      <trkpt lat="48.48069" lon="6.93399">
        <ele>462.737</ele>
        <time>2009-10-28T08:14:35Z</time>
      </trkpt>
      <trkpt lat="48.48081" lon="6.93411">
        <ele>461.327</ele>
        <time>2009-10-28T08:14:41Z</time>
      </trkpt>
      <trkpt lat="48.48096" lon="6.93426">
        <ele>460.457</ele>
        <time>2009-10-28T08:14:48Z</time>
      </trkpt>
      <trkpt lat="48.48112" lon="6.93441">
        <ele>458.047</ele>
        <time>2009-10-28T08:14:55Z</time>
      </trkpt>
      <trkpt lat="48.48127" lon="6.93454">
        <ele>455.185</ele>
        <time>2009-10-28T08:15:02Z</time>
      </trkpt>
      <trkpt lat="48.48142" lon="6.93464">
        <ele>453.715</ele>
        <time>2009-10-28T08:15:09Z</time>
      </trkpt>
      <trkpt lat="48.48156" lon="6.93475">
        <ele>451.735</ele>
        <time>2009-10-28T08:15:16Z</time>
      </trkpt>
      <trkpt lat="48.48166" lon="6.9348">
        <ele>450.504</ele>
        <time>2009-10-28T08:15:21Z</time>
      </trkpt>
      <trkpt lat="48.48183" lon="6.93489">
        <ele>451.535</ele>
        <time>2009-10-28T08:15:29Z</time>
      </trkpt>
      <trkpt lat="48.48193" lon="6.93494">
        <ele>451.534</ele>
        <time>2009-10-28T08:15:35Z</time>
      </trkpt>
      <trkpt lat="48.48209" lon="6.93499">
        <ele>449.394</ele>
        <time>2009-10-28T08:15:42Z</time>
      </trkpt>
      <trkpt lat="48.48226" lon="6.93504">
        <ele>448.474</ele>
        <time>2009-10-28T08:15:49Z</time>
      </trkpt>
      <trkpt lat="48.48239" lon="6.93507">
        <ele>449.725</ele>
        <time>2009-10-28T08:15:56Z</time>
      </trkpt>
      <trkpt lat="48.48249" lon="6.9351">
        <ele>449.355</ele>
        <time>2009-10-28T08:16:01Z</time>
      </trkpt>
      <trkpt lat="48.48261" lon="6.93512">
        <ele>447.394</ele>
        <time>2009-10-28T08:16:06Z</time>
      </trkpt>
      <trkpt lat="48.48277" lon="6.93514">
        <ele>448.045</ele>
        <time>2009-10-28T08:16:14Z</time>
      </trkpt>
      <trkpt lat="48.48289" lon="6.93514">
        <ele>447.574</ele>
        <time>2009-10-28T08:16:20Z</time>
      </trkpt>
      <trkpt lat="48.48302" lon="6.93514">
        <ele>449.684</ele>
        <time>2009-10-28T08:16:27Z</time>
      </trkpt>
      <trkpt lat="48.48313" lon="6.93513">
        <ele>450.834</ele>
        <time>2009-10-28T08:16:32Z</time>
      </trkpt>
      <trkpt lat="48.48324" lon="6.9351">
        <ele>451.394</ele>
        <time>2009-10-28T08:16:39Z</time>
      </trkpt>
      <trkpt lat="48.48338" lon="6.9351">
        <ele>451.624</ele>
        <time>2009-10-28T08:16:47Z</time>
      </trkpt>
      <trkpt lat="48.4835" lon="6.93507">
        <ele>453.564</ele>
        <time>2009-10-28T08:16:54Z</time>
      </trkpt>
      <trkpt lat="48.48352" lon="6.93506">
        <ele>454.095</ele>
        <time>2009-10-28T08:16:55Z</time>
      </trkpt>
      <trkpt lat="48.48364" lon="6.93505">
        <ele>456.275</ele>
        <time>2009-10-28T08:17:02Z</time>
      </trkpt>
      <trkpt lat="48.48373" lon="6.93507">
        <ele>460.215</ele>
        <time>2009-10-28T08:17:08Z</time>
      </trkpt>
      <trkpt lat="48.48383" lon="6.93509">
        <ele>460.955</ele>
        <time>2009-10-28T08:17:15Z</time>
      </trkpt>
      <trkpt lat="48.48391" lon="6.93513">
        <ele>464.346</ele>
        <time>2009-10-28T08:17:21Z</time>
      </trkpt>
      <trkpt lat="48.484" lon="6.93518">
        <ele>466.255</ele>
        <time>2009-10-28T08:17:28Z</time>
      </trkpt>
      <trkpt lat="48.48405" lon="6.93519">
        <ele>468.006</ele>
        <time>2009-10-28T08:17:33Z</time>
      </trkpt>
      <trkpt lat="48.48408" lon="6.93521">
        <ele>469.496</ele>
        <time>2009-10-28T08:17:35Z</time>
      </trkpt>
      <trkpt lat="48.4841" lon="6.93523">
        <ele>471.276</ele>
        <time>2009-10-28T08:17:37Z</time>
      </trkpt>
      <trkpt lat="48.48418" lon="6.93528">
        <ele>476.536</ele>
        <time>2009-10-28T08:17:45Z</time>
      </trkpt>
      <trkpt lat="48.48422" lon="6.9353">
        <ele>477.747</ele>
        <time>2009-10-28T08:17:48Z</time>
      </trkpt>
      <trkpt lat="48.4843" lon="6.93537">
        <ele>482.787</ele>
        <time>2009-10-28T08:17:56Z</time>
      </trkpt>
      <trkpt lat="48.48439" lon="6.93544">
        <ele>486.747</ele>
        <time>2009-10-28T08:18:04Z</time>
      </trkpt>
      <trkpt lat="48.48446" lon="6.93552">
        <ele>489.936</ele>
        <time>2009-10-28T08:18:11Z</time>
      </trkpt>
      <trkpt lat="48.48452" lon="6.93558">
        <ele>493.127</ele>
        <time>2009-10-28T08:18:18Z</time>
      </trkpt>
      <trkpt lat="48.48459" lon="6.93567">
        <ele>496.417</ele>
        <time>2009-10-28T08:18:25Z</time>
      </trkpt>
      <trkpt lat="48.48464" lon="6.93576">
        <ele>499.067</ele>
        <time>2009-10-28T08:18:31Z</time>
      </trkpt>
      <trkpt lat="48.48465" lon="6.93579">
        <ele>499.387</ele>
        <time>2009-10-28T08:18:33Z</time>
      </trkpt>
      <trkpt lat="48.4846" lon="6.93584">
        <ele>495.595</ele>
        <time>2009-10-28T08:18:39Z</time>
      </trkpt>
      <trkpt lat="48.48455" lon="6.93594">
        <ele>494.865</ele>
        <time>2009-10-28T08:18:43Z</time>
      </trkpt>
      <trkpt lat="48.48448" lon="6.9361">
        <ele>491.404</ele>
        <time>2009-10-28T08:18:49Z</time>
      </trkpt>
      <trkpt lat="48.48438" lon="6.93623">
        <ele>497.478</ele>
        <time>2009-10-28T08:18:55Z</time>
      </trkpt>
      <trkpt lat="48.48429" lon="6.93635">
        <ele>502.866</ele>
        <time>2009-10-28T08:19:01Z</time>
      </trkpt>
      <trkpt lat="48.48419" lon="6.9365">
        <ele>505.456</ele>
        <time>2009-10-28T08:19:08Z</time>
      </trkpt>
      <trkpt lat="48.48412" lon="6.93661">
        <ele>508.236</ele>
        <time>2009-10-28T08:19:14Z</time>
      </trkpt>
      <trkpt lat="48.48403" lon="6.93664">
        <ele>503.494</ele>
        <time>2009-10-28T08:19:20Z</time>
      </trkpt>
      <trkpt lat="48.484" lon="6.93667">
        <ele>502.814</ele>
        <time>2009-10-28T08:19:22Z</time>
      </trkpt>
      <trkpt lat="48.48392" lon="6.93682">
        <ele>492.263</ele>
        <time>2009-10-28T08:19:29Z</time>
      </trkpt>
      <trkpt lat="48.4838" lon="6.93694">
        <ele>494.824</ele>
        <time>2009-10-28T08:19:34Z</time>
      </trkpt>
      <trkpt lat="48.48372" lon="6.93704">
        <ele>497.045</ele>
        <time>2009-10-28T08:19:38Z</time>
      </trkpt>
      <trkpt lat="48.48362" lon="6.93712">
        <ele>497.064</ele>
        <time>2009-10-28T08:19:43Z</time>
      </trkpt>
      <trkpt lat="48.48353" lon="6.93721">
        <ele>497.715</ele>
        <time>2009-10-28T08:19:48Z</time>
      </trkpt>
      <trkpt lat="48.48348" lon="6.93734">
        <ele>495.134</ele>
        <time>2009-10-28T08:19:55Z</time>
      </trkpt>
      <trkpt lat="48.48347" lon="6.93739">
        <ele>494.134</ele>
        <time>2009-10-28T08:19:57Z</time>
      </trkpt>
      <trkpt lat="48.48347" lon="6.93761">
        <ele>497.856</ele>
        <time>2009-10-28T08:20:04Z</time>
      </trkpt>
      <trkpt lat="48.4835" lon="6.93782">
        <ele>501.266</ele>
        <time>2009-10-28T08:20:10Z</time>
      </trkpt>
      <trkpt lat="48.4835" lon="6.93798">
        <ele>499.065</ele>
        <time>2009-10-28T08:20:16Z</time>
      </trkpt>
      <trkpt lat="48.48349" lon="6.93815">
        <ele>502.916</ele>
        <time>2009-10-28T08:20:23Z</time>
      </trkpt>
      <trkpt lat="48.48338" lon="6.93826">
        <ele>503.655</ele>
        <time>2009-10-28T08:20:28Z</time>
      </trkpt>
      <trkpt lat="48.48317" lon="6.93844">
        <ele>500.253</ele>
        <time>2009-10-28T08:20:34Z</time>
      </trkpt>
      <trkpt lat="48.48309" lon="6.93874">
        <ele>492.931</ele>
        <time>2009-10-28T08:20:39Z</time>
      </trkpt>
      <trkpt lat="48.48307" lon="6.93904">
        <ele>486.791</ele>
        <time>2009-10-28T08:20:43Z</time>
      </trkpt>
      <trkpt lat="48.48304" lon="6.93932">
        <ele>483.531</ele>
        <time>2009-10-28T08:20:46Z</time>
      </trkpt>
      <trkpt lat="48.48299" lon="6.93957">
        <ele>479.091</ele>
        <time>2009-10-28T08:20:49Z</time>
      </trkpt>
      <trkpt lat="48.48286" lon="6.93991">
        <ele>477.831</ele>
        <time>2009-10-28T08:20:53Z</time>
      </trkpt>
      <trkpt lat="48.48276" lon="6.94042">
        <ele>471.281</ele>
        <time>2009-10-28T08:20:58Z</time>
      </trkpt>
      <trkpt lat="48.48277" lon="6.94054">
        <ele>469.751</ele>
        <time>2009-10-28T08:20:59Z</time>
      </trkpt>
      <trkpt lat="48.48282" lon="6.94064">
        <ele>468.841</ele>
        <time>2009-10-28T08:21:02Z</time>
      </trkpt>
      <trkpt lat="48.48284" lon="6.94082">
        <ele>469.042</ele>
        <time>2009-10-28T08:21:07Z</time>
      </trkpt>
      <trkpt lat="48.48281" lon="6.94115">
        <ele>470.103</ele>
        <time>2009-10-28T08:21:13Z</time>
      </trkpt>
      <trkpt lat="48.48273" lon="6.94136">
        <ele>470.594</ele>
        <time>2009-10-28T08:21:17Z</time>
      </trkpt>
      <trkpt lat="48.48267" lon="6.9415">
        <ele>466.563</ele>
        <time>2009-10-28T08:21:20Z</time>
      </trkpt>
      <trkpt lat="48.48251" lon="6.94163">
        <ele>467.773</ele>
        <time>2009-10-28T08:21:24Z</time>
      </trkpt>
      <trkpt lat="48.4823" lon="6.94165">
        <ele>468.754</ele>
        <time>2009-10-28T08:21:29Z</time>
      </trkpt>
      <trkpt lat="48.48204" lon="6.94167">
        <ele>471.244</ele>
        <time>2009-10-28T08:21:36Z</time>
      </trkpt>
      <trkpt lat="48.48184" lon="6.94172">
        <ele>471.053</ele>
        <time>2009-10-28T08:21:42Z</time>
      </trkpt>
      <trkpt lat="48.48161" lon="6.94179">
        <ele>471.164</ele>
        <time>2009-10-28T08:21:48Z</time>
      </trkpt>
      <trkpt lat="48.48145" lon="6.94188">
        <ele>470.493</ele>
        <time>2009-10-28T08:21:53Z</time>
      </trkpt>
      <trkpt lat="48.4813" lon="6.94203">
        <ele>470.553</ele>
        <time>2009-10-28T08:21:57Z</time>
      </trkpt>
      <trkpt lat="48.48119" lon="6.94215">
        <ele>471.704</ele>
        <time>2009-10-28T08:22:00Z</time>
      </trkpt>
      <trkpt lat="48.48108" lon="6.94235">
        <ele>469.584</ele>
        <time>2009-10-28T08:22:04Z</time>
      </trkpt>
      <trkpt lat="48.481" lon="6.94273">
        <ele>460.283</ele>
        <time>2009-10-28T08:22:11Z</time>
      </trkpt>
      <trkpt lat="48.48097" lon="6.943">
        <ele>459.023</ele>
        <time>2009-10-28T08:22:16Z</time>
      </trkpt>
      <trkpt lat="48.48097" lon="6.94328">
        <ele>463.424</ele>
        <time>2009-10-28T08:22:21Z</time>
      </trkpt>
      <trkpt lat="48.48105" lon="6.94359">
        <ele>456.793</ele>
        <time>2009-10-28T08:22:26Z</time>
      </trkpt>
      <trkpt lat="48.48107" lon="6.94375">
        <ele>456.093</ele>
        <time>2009-10-28T08:22:30Z</time>
      </trkpt>
      <trkpt lat="48.48107" lon="6.94377">
        <ele>455.421</ele>
        <time>2009-10-28T08:22:33Z</time>
      </trkpt>
      <trkpt lat="48.48109" lon="6.94389">
        <ele>459.494</ele>
        <time>2009-10-28T08:22:48Z</time>
      </trkpt>
      <trkpt lat="48.48117" lon="6.94415">
        <ele>458.803</ele>
        <time>2009-10-28T08:22:55Z</time>
      </trkpt>
      <trkpt lat="48.48118" lon="6.94418">
        <ele>457.823</ele>
        <time>2009-10-28T08:22:56Z</time>
      </trkpt>
      <trkpt lat="48.48114" lon="6.94419">
        <ele>456.072</ele>
        <time>2009-10-28T08:23:00Z</time>
      </trkpt>
      <trkpt lat="48.4811" lon="6.94411">
        <ele>455.013</ele>
        <time>2009-10-28T08:23:02Z</time>
      </trkpt>
      <trkpt lat="48.48096" lon="6.94378">
        <ele>451.132</ele>
        <time>2009-10-28T08:23:08Z</time>
      </trkpt>
      <trkpt lat="48.48082" lon="6.94344">
        <ele>448.172</ele>
        <time>2009-10-28T08:23:13Z</time>
      </trkpt>
      <trkpt lat="48.48065" lon="6.94297">
        <ele>442.311</ele>
        <time>2009-10-28T08:23:19Z</time>
      </trkpt>
      <trkpt lat="48.48048" lon="6.94246">
        <ele>438.351</ele>
        <time>2009-10-28T08:23:25Z</time>
      </trkpt>
      <trkpt lat="48.48038" lon="6.94196">
        <ele>436.771</ele>
        <time>2009-10-28T08:23:30Z</time>
      </trkpt>
      <trkpt lat="48.4804" lon="6.94146">
        <ele>433.221</ele>
        <time>2009-10-28T08:23:35Z</time>
      </trkpt>
      <trkpt lat="48.48042" lon="6.94139">
        <ele>432.411</ele>
        <time>2009-10-28T08:23:36Z</time>
      </trkpt>
      <trkpt lat="48.48046" lon="6.94128">
        <ele>431.061</ele>
        <time>2009-10-28T08:23:38Z</time>
      </trkpt>
      <trkpt lat="48.48051" lon="6.94116">
        <ele>430.041</ele>
        <time>2009-10-28T08:23:40Z</time>
      </trkpt>
      <trkpt lat="48.48076" lon="6.94085">
        <ele>426.85</ele>
        <time>2009-10-28T08:23:45Z</time>
      </trkpt>
      <trkpt lat="48.48114" lon="6.94044">
        <ele>423.468</ele>
        <time>2009-10-28T08:23:51Z</time>
      </trkpt>
      <trkpt lat="48.4813" lon="6.94025">
        <ele>422.06</ele>
        <time>2009-10-28T08:23:54Z</time>
      </trkpt>
      <trkpt lat="48.48139" lon="6.94">
        <ele>420.35</ele>
        <time>2009-10-28T08:23:58Z</time>
      </trkpt>
      <trkpt lat="48.4814" lon="6.93994">
        <ele>419.81</ele>
        <time>2009-10-28T08:23:59Z</time>
      </trkpt>
      <trkpt lat="48.4814" lon="6.93986">
        <ele>418</ele>
        <time>2009-10-28T08:24:01Z</time>
      </trkpt>
      <trkpt lat="48.48125" lon="6.93972">
        <ele>419.741</ele>
        <time>2009-10-28T08:24:08Z</time>
      </trkpt>
      <trkpt lat="48.48117" lon="6.93966">
        <ele>420.272</ele>
        <time>2009-10-28T08:24:12Z</time>
      </trkpt>
      <trkpt lat="48.48102" lon="6.93958">
        <ele>423.792</ele>
        <time>2009-10-28T08:24:17Z</time>
      </trkpt>
      <trkpt lat="48.48086" lon="6.93951">
        <ele>426.104</ele>
        <time>2009-10-28T08:24:22Z</time>
      </trkpt>
      <trkpt lat="48.48064" lon="6.93944">
        <ele>431.455</ele>
        <time>2009-10-28T08:24:29Z</time>
      </trkpt>
      <trkpt lat="48.48048" lon="6.93939">
        <ele>432.425</ele>
        <time>2009-10-28T08:24:35Z</time>
      </trkpt>
      <trkpt lat="48.48024" lon="6.93936">
        <ele>434.644</ele>
        <time>2009-10-28T08:24:43Z</time>
      </trkpt>
      <trkpt lat="48.48004" lon="6.93934">
        <ele>435.534</ele>
        <time>2009-10-28T08:24:50Z</time>
      </trkpt>
      <trkpt lat="48.47989" lon="6.93931">
        <ele>435.124</ele>
        <time>2009-10-28T08:24:56Z</time>
      </trkpt>
      <trkpt lat="48.47965" lon="6.93928">
        <ele>437.624</ele>
        <time>2009-10-28T08:25:05Z</time>
      </trkpt>
      <trkpt lat="48.47949" lon="6.93932">
        <ele>438.675</ele>
        <time>2009-10-28T08:25:11Z</time>
      </trkpt>
      <trkpt lat="48.47929" lon="6.93937">
        <ele>440.074</ele>
        <time>2009-10-28T08:25:17Z</time>
      </trkpt>
      <trkpt lat="48.479" lon="6.93939">
        <ele>441.504</ele>
        <time>2009-10-28T08:25:24Z</time>
      </trkpt>
      <trkpt lat="48.47877" lon="6.93937">
        <ele>441.883</ele>
        <time>2009-10-28T08:25:29Z</time>
      </trkpt>
      <trkpt lat="48.4785" lon="6.93926">
        <ele>440.703</ele>
        <time>2009-10-28T08:25:36Z</time>
      </trkpt>
      <trkpt lat="48.47833" lon="6.93915">
        <ele>442.084</ele>
        <time>2009-10-28T08:25:41Z</time>
      </trkpt>
      <trkpt lat="48.47811" lon="6.93896">
        <ele>444.205</ele>
        <time>2009-10-28T08:25:48Z</time>
      </trkpt>
      <trkpt lat="48.47789" lon="6.93876">
        <ele>444.384</ele>
        <time>2009-10-28T08:25:55Z</time>
      </trkpt>
      <trkpt lat="48.4777" lon="6.93856">
        <ele>443.143</ele>
        <time>2009-10-28T08:26:01Z</time>
      </trkpt>
      <trkpt lat="48.47754" lon="6.93839">
        <ele>442.722</ele>
        <time>2009-10-28T08:26:05Z</time>
      </trkpt>
      <trkpt lat="48.47742" lon="6.93819">
        <ele>440.482</ele>
        <time>2009-10-28T08:26:09Z</time>
      </trkpt>
      <trkpt lat="48.47737" lon="6.93806">
        <ele>438.902</ele>
        <time>2009-10-28T08:26:11Z</time>
      </trkpt>
      <trkpt lat="48.47732" lon="6.93768">
        <ele>434.77</ele>
        <time>2009-10-28T08:26:16Z</time>
      </trkpt>
      <trkpt lat="48.47732" lon="6.93739">
        <ele>432.741</ele>
        <time>2009-10-28T08:26:20Z</time>
      </trkpt>
      <trkpt lat="48.47727" lon="6.93682">
        <ele>429.901</ele>
        <time>2009-10-28T08:26:28Z</time>
      </trkpt>
      <trkpt lat="48.47727" lon="6.93645">
        <ele>427.651</ele>
        <time>2009-10-28T08:26:32Z</time>
      </trkpt>
      <trkpt lat="48.47729" lon="6.93619">
        <ele>426.661</ele>
        <time>2009-10-28T08:26:35Z</time>
      </trkpt>
      <trkpt lat="48.4773" lon="6.93585">
        <ele>427.982</ele>
        <time>2009-10-28T08:26:40Z</time>
      </trkpt>
      <trkpt lat="48.47716" lon="6.93547">
        <ele>430.682</ele>
        <time>2009-10-28T08:26:46Z</time>
      </trkpt>
      <trkpt lat="48.47713" lon="6.93541">
        <ele>430.752</ele>
        <time>2009-10-28T08:26:47Z</time>
      </trkpt>
      <trkpt lat="48.47699" lon="6.93518">
        <ele>432.123</ele>
        <time>2009-10-28T08:26:52Z</time>
      </trkpt>
      <trkpt lat="48.47688" lon="6.93504">
        <ele>435.014</ele>
        <time>2009-10-28T08:26:58Z</time>
      </trkpt>
      <trkpt lat="48.47688" lon="6.93505">
        <ele>435.253</ele>
        <time>2009-10-28T08:27:00Z</time>
      </trkpt>
      <trkpt lat="48.47676" lon="6.935">
        <ele>447.784</ele>
        <time>2009-10-28T08:27:11Z</time>
      </trkpt>
      <trkpt lat="48.47663" lon="6.93495">
        <ele>448.634</ele>
        <time>2009-10-28T08:27:18Z</time>
      </trkpt>
      <trkpt lat="48.47652" lon="6.93492">
        <ele>446.923</ele>
        <time>2009-10-28T08:27:25Z</time>
      </trkpt>
      <trkpt lat="48.47642" lon="6.9349">
        <ele>446.863</ele>
        <time>2009-10-28T08:27:32Z</time>
      </trkpt>
      <trkpt lat="48.4763" lon="6.9349">
        <ele>447.894</ele>
        <time>2009-10-28T08:27:39Z</time>
      </trkpt>
      <trkpt lat="48.47624" lon="6.93493">
        <ele>449.904</ele>
        <time>2009-10-28T08:27:45Z</time>
      </trkpt>
      <trkpt lat="48.47623" lon="6.93493">
        <ele>450.975</ele>
        <time>2009-10-28T08:27:46Z</time>
      </trkpt>
      <trkpt lat="48.47617" lon="6.93493">
        <ele>449.173</ele>
        <time>2009-10-28T08:27:54Z</time>
      </trkpt>
      <trkpt lat="48.47608" lon="6.93492">
        <ele>450.403</ele>
        <time>2009-10-28T08:27:59Z</time>
      </trkpt>
      <trkpt lat="48.47597" lon="6.93492">
        <ele>451.944</ele>
        <time>2009-10-28T08:28:06Z</time>
      </trkpt>
      <trkpt lat="48.47594" lon="6.93491">
        <ele>451.544</ele>
        <time>2009-10-28T08:28:08Z</time>
      </trkpt>
      <trkpt lat="48.47581" lon="6.93496">
        <ele>454.924</ele>
        <time>2009-10-28T08:28:17Z</time>
      </trkpt>
      <trkpt lat="48.47572" lon="6.935">
        <ele>456.714</ele>
        <time>2009-10-28T08:28:24Z</time>
      </trkpt>
      <trkpt lat="48.47561" lon="6.93501">
        <ele>458.194</ele>
        <time>2009-10-28T08:28:32Z</time>
      </trkpt>
      <trkpt lat="48.47556" lon="6.93502">
        <ele>457.513</ele>
        <time>2009-10-28T08:28:36Z</time>
      </trkpt>
      <trkpt lat="48.47545" lon="6.93506">
        <ele>459.223</ele>
        <time>2009-10-28T08:28:43Z</time>
      </trkpt>
      <trkpt lat="48.47534" lon="6.9351">
        <ele>461.024</ele>
        <time>2009-10-28T08:28:49Z</time>
      </trkpt>
      <trkpt lat="48.47524" lon="6.93515">
        <ele>463.844</ele>
        <time>2009-10-28T08:28:56Z</time>
      </trkpt>
      <trkpt lat="48.47513" lon="6.93523">
        <ele>467.314</ele>
        <time>2009-10-28T08:29:04Z</time>
      </trkpt>
      <trkpt lat="48.47512" lon="6.93525">
        <ele>468.795</ele>
        <time>2009-10-28T08:29:05Z</time>
      </trkpt>
      <trkpt lat="48.47505" lon="6.93531">
        <ele>470.264</ele>
        <time>2009-10-28T08:29:10Z</time>
      </trkpt>
      <trkpt lat="48.47499" lon="6.93536">
        <ele>470.864</ele>
        <time>2009-10-28T08:29:14Z</time>
      </trkpt>
      <trkpt lat="48.47488" lon="6.93547">
        <ele>471.254</ele>
        <time>2009-10-28T08:29:21Z</time>
      </trkpt>
      <trkpt lat="48.47477" lon="6.9356">
        <ele>473.634</ele>
        <time>2009-10-28T08:29:28Z</time>
      </trkpt>
      <trkpt lat="48.47466" lon="6.93571">
        <ele>474.944</ele>
        <time>2009-10-28T08:29:34Z</time>
      </trkpt>
      <trkpt lat="48.47456" lon="6.93582">
        <ele>476.064</ele>
        <time>2009-10-28T08:29:40Z</time>
      </trkpt>
      <trkpt lat="48.47447" lon="6.93596">
        <ele>474.503</ele>
        <time>2009-10-28T08:29:45Z</time>
      </trkpt>
      <trkpt lat="48.47432" lon="6.93606">
        <ele>473.842</ele>
        <time>2009-10-28T08:29:49Z</time>
      </trkpt>
      <trkpt lat="48.47413" lon="6.9361">
        <ele>474.133</ele>
        <time>2009-10-28T08:29:53Z</time>
      </trkpt>
      <trkpt lat="48.47397" lon="6.93608">
        <ele>473.473</ele>
        <time>2009-10-28T08:29:56Z</time>
      </trkpt>
      <trkpt lat="48.47368" lon="6.93596">
        <ele>471.963</ele>
        <time>2009-10-28T08:30:01Z</time>
      </trkpt>
      <trkpt lat="48.47362" lon="6.93592">
        <ele>470.993</ele>
        <time>2009-10-28T08:30:02Z</time>
      </trkpt>
      <trkpt lat="48.47321" lon="6.9356">
        <ele>466.511</ele>
        <time>2009-10-28T08:30:08Z</time>
      </trkpt>
      <trkpt lat="48.47281" lon="6.93529">
        <ele>462.911</ele>
        <time>2009-10-28T08:30:14Z</time>
      </trkpt>
      <trkpt lat="48.4724" lon="6.93491">
        <ele>458.201</ele>
        <time>2009-10-28T08:30:20Z</time>
      </trkpt>
      <trkpt lat="48.47208" lon="6.9346">
        <ele>458.28</ele>
        <time>2009-10-28T08:30:25Z</time>
      </trkpt>
      <trkpt lat="48.47198" lon="6.93447">
        <ele>457.281</ele>
        <time>2009-10-28T08:30:28Z</time>
      </trkpt>
      <trkpt lat="48.47195" lon="6.93431">
        <ele>455.522</ele>
        <time>2009-10-28T08:30:33Z</time>
      </trkpt>
      <trkpt lat="48.47194" lon="6.93417">
        <ele>454.852</ele>
        <time>2009-10-28T08:30:39Z</time>
      </trkpt>
      <trkpt lat="48.47192" lon="6.9341">
        <ele>454.312</ele>
        <time>2009-10-28T08:30:43Z</time>
      </trkpt>
      <trkpt lat="48.47188" lon="6.93397">
        <ele>455.932</ele>
        <time>2009-10-28T08:30:50Z</time>
      </trkpt>
      <trkpt lat="48.47184" lon="6.93381">
        <ele>458.482</ele>
        <time>2009-10-28T08:30:57Z</time>
      </trkpt>
      <trkpt lat="48.47184" lon="6.93379">
        <ele>458.912</ele>
        <time>2009-10-28T08:30:58Z</time>
      </trkpt>
      <trkpt lat="48.47179" lon="6.93365">
        <ele>461.713</ele>
        <time>2009-10-28T08:31:06Z</time>
      </trkpt>
      <trkpt lat="48.47173" lon="6.9335">
        <ele>463.273</ele>
        <time>2009-10-28T08:31:13Z</time>
      </trkpt>
      <trkpt lat="48.47169" lon="6.93335">
        <ele>464.102</ele>
        <time>2009-10-28T08:31:20Z</time>
      </trkpt>
      <trkpt lat="48.47163" lon="6.93323">
        <ele>465.402</ele>
        <time>2009-10-28T08:31:26Z</time>
      </trkpt>
      <trkpt lat="48.47162" lon="6.93308">
        <ele>461.811</ele>
        <time>2009-10-28T08:31:34Z</time>
      </trkpt>
      <trkpt lat="48.4716" lon="6.93304">
        <ele>462.141</ele>
        <time>2009-10-28T08:31:36Z</time>
      </trkpt>
      <trkpt lat="48.47154" lon="6.9329">
        <ele>464.091</ele>
        <time>2009-10-28T08:31:43Z</time>
      </trkpt>
      <trkpt lat="48.47145" lon="6.93272">
        <ele>468.843</ele>
        <time>2009-10-28T08:31:52Z</time>
      </trkpt>
      <trkpt lat="48.47142" lon="6.93265">
        <ele>471.014</ele>
        <time>2009-10-28T08:31:55Z</time>
      </trkpt>
      <trkpt lat="48.47137" lon="6.93248">
        <ele>477.174</ele>
        <time>2009-10-28T08:32:02Z</time>
      </trkpt>
      <trkpt lat="48.47135" lon="6.93229">
        <ele>478.163</ele>
        <time>2009-10-28T08:32:10Z</time>
      </trkpt>
      <trkpt lat="48.47127" lon="6.93215">
        <ele>479.682</ele>
        <time>2009-10-28T08:32:17Z</time>
      </trkpt>
      <trkpt lat="48.47125" lon="6.93214">
        <ele>479.582</ele>
        <time>2009-10-28T08:32:18Z</time>
      </trkpt>
      <trkpt lat="48.47114" lon="6.93214">
        <ele>478.151</ele>
        <time>2009-10-28T08:32:23Z</time>
      </trkpt>
      <trkpt lat="48.47096" lon="6.93214">
        <ele>474.949</ele>
        <time>2009-10-28T08:32:29Z</time>
      </trkpt>
      <trkpt lat="48.47085" lon="6.93216">
        <ele>473.289</ele>
        <time>2009-10-28T08:32:32Z</time>
      </trkpt>
      <trkpt lat="48.47066" lon="6.9321">
        <ele>471.86</ele>
        <time>2009-10-28T08:32:36Z</time>
      </trkpt>
      <trkpt lat="48.47036" lon="6.9321">
        <ele>467.76</ele>
        <time>2009-10-28T08:32:42Z</time>
      </trkpt>
      <trkpt lat="48.47016" lon="6.93212">
        <ele>460.868</ele>
        <time>2009-10-28T08:32:46Z</time>
      </trkpt>
      <trkpt lat="48.47005" lon="6.93214">
        <ele>456.267</ele>
        <time>2009-10-28T08:32:48Z</time>
      </trkpt>
      <trkpt lat="48.46984" lon="6.93217">
        <ele>450.027</ele>
        <time>2009-10-28T08:32:52Z</time>
      </trkpt>
      <trkpt lat="48.4696" lon="6.93218">
        <ele>444.948</ele>
        <time>2009-10-28T08:32:56Z</time>
      </trkpt>
      <trkpt lat="48.46945" lon="6.93212">
        <ele>443.548</ele>
        <time>2009-10-28T08:32:59Z</time>
      </trkpt>
      <trkpt lat="48.46926" lon="6.9321">
        <ele>441.97</ele>
        <time>2009-10-28T08:33:02Z</time>
      </trkpt>
      <trkpt lat="48.46898" lon="6.9322">
        <ele>439.4</ele>
        <time>2009-10-28T08:33:06Z</time>
      </trkpt>
      <trkpt lat="48.46867" lon="6.9323">
        <ele>439.912</ele>
        <time>2009-10-28T08:33:10Z</time>
      </trkpt>
      <trkpt lat="48.46835" lon="6.93231">
        <ele>438.552</ele>
        <time>2009-10-28T08:33:15Z</time>
      </trkpt>
      <trkpt lat="48.46815" lon="6.93231">
        <ele>439.213</ele>
        <time>2009-10-28T08:33:20Z</time>
      </trkpt>
      <trkpt lat="48.46801" lon="6.93228">
        <ele>441.474</ele>
        <time>2009-10-28T08:33:25Z</time>
      </trkpt>
      <trkpt lat="48.46778" lon="6.93222">
        <ele>444.794</ele>
        <time>2009-10-28T08:33:32Z</time>
      </trkpt>
      <trkpt lat="48.46753" lon="6.93206">
        <ele>446.943</ele>
        <time>2009-10-28T08:33:41Z</time>
      </trkpt>
      <trkpt lat="48.46727" lon="6.93195">
        <ele>447.082</ele>
        <time>2009-10-28T08:33:50Z</time>
      </trkpt>
      <trkpt lat="48.46705" lon="6.93191">
        <ele>448.243</ele>
        <time>2009-10-28T08:33:58Z</time>
      </trkpt>
      <trkpt lat="48.46689" lon="6.93185">
        <ele>449.642</ele>
        <time>2009-10-28T08:34:05Z</time>
      </trkpt>
      <trkpt lat="48.46673" lon="6.93178">
        <ele>450.853</ele>
        <time>2009-10-28T08:34:14Z</time>
      </trkpt>
      <trkpt lat="48.46656" lon="6.93173">
        <ele>451.602</ele>
        <time>2009-10-28T08:34:24Z</time>
      </trkpt>
      <trkpt lat="48.46642" lon="6.93167">
        <ele>453.162</ele>
        <time>2009-10-28T08:34:33Z</time>
      </trkpt>
      <trkpt lat="48.46627" lon="6.93163">
        <ele>455.553</ele>
        <time>2009-10-28T08:34:42Z</time>
      </trkpt>
      <trkpt lat="48.46614" lon="6.93158">
        <ele>457.032</ele>
        <time>2009-10-28T08:34:50Z</time>
      </trkpt>
      <trkpt lat="48.46598" lon="6.93149">
        <ele>459.432</ele>
        <time>2009-10-28T08:34:59Z</time>
      </trkpt>
      <trkpt lat="48.46582" lon="6.93146">
        <ele>460.082</ele>
        <time>2009-10-28T08:35:07Z</time>
      </trkpt>
      <trkpt lat="48.46568" lon="6.93142">
        <ele>461.642</ele>
        <time>2009-10-28T08:35:15Z</time>
      </trkpt>
      <trkpt lat="48.46553" lon="6.93136">
        <ele>463.412</ele>
        <time>2009-10-28T08:35:23Z</time>
      </trkpt>
      <trkpt lat="48.46543" lon="6.93132">
        <ele>464.471</ele>
        <time>2009-10-28T08:35:29Z</time>
      </trkpt>
      <trkpt lat="48.46531" lon="6.93131">
        <ele>465.762</ele>
        <time>2009-10-28T08:35:36Z</time>
      </trkpt>
      <trkpt lat="48.46526" lon="6.93142">
        <ele>466.912</ele>
        <time>2009-10-28T08:35:41Z</time>
      </trkpt>
      <trkpt lat="48.46516" lon="6.93156">
        <ele>467.802</ele>
        <time>2009-10-28T08:35:50Z</time>
      </trkpt>
      <trkpt lat="48.46506" lon="6.93163">
        <ele>470.172</ele>
        <time>2009-10-28T08:35:58Z</time>
      </trkpt>
      <trkpt lat="48.46496" lon="6.93166">
        <ele>471.382</ele>
        <time>2009-10-28T08:36:05Z</time>
      </trkpt>
      <trkpt lat="48.46485" lon="6.93168">
        <ele>473.702</ele>
        <time>2009-10-28T08:36:12Z</time>
      </trkpt>
      <trkpt lat="48.46474" lon="6.93171">
        <ele>474.922</ele>
        <time>2009-10-28T08:36:19Z</time>
      </trkpt>
      <trkpt lat="48.46462" lon="6.93178">
        <ele>474.401</ele>
        <time>2009-10-28T08:36:28Z</time>
      </trkpt>
      <trkpt lat="48.4645" lon="6.93185">
        <ele>473.31</ele>
        <time>2009-10-28T08:36:36Z</time>
      </trkpt>
      <trkpt lat="48.46441" lon="6.9319">
        <ele>474.711</ele>
        <time>2009-10-28T08:36:43Z</time>
      </trkpt>
      <trkpt lat="48.46432" lon="6.93196">
        <ele>475.861</ele>
        <time>2009-10-28T08:36:49Z</time>
      </trkpt>
      <trkpt lat="48.46422" lon="6.93204">
        <ele>476.632</ele>
        <time>2009-10-28T08:36:56Z</time>
      </trkpt>
      <trkpt lat="48.46412" lon="6.93211">
        <ele>476.26</ele>
        <time>2009-10-28T08:37:01Z</time>
      </trkpt>
      <trkpt lat="48.46396" lon="6.93222">
        <ele>476.921</ele>
        <time>2009-10-28T08:37:08Z</time>
      </trkpt>
      <trkpt lat="48.46374" lon="6.93239">
        <ele>478.431</ele>
        <time>2009-10-28T08:37:16Z</time>
      </trkpt>
      <trkpt lat="48.46354" lon="6.93253">
        <ele>480.032</ele>
        <time>2009-10-28T08:37:23Z</time>
      </trkpt>
      <trkpt lat="48.46341" lon="6.93259">
        <ele>481.162</ele>
        <time>2009-10-28T08:37:27Z</time>
      </trkpt>
      <trkpt lat="48.4632" lon="6.93267">
        <ele>481.251</ele>
        <time>2009-10-28T08:37:34Z</time>
      </trkpt>
      <trkpt lat="48.46301" lon="6.93274">
        <ele>481.151</ele>
        <time>2009-10-28T08:37:40Z</time>
      </trkpt>
      <trkpt lat="48.46275" lon="6.93288">
        <ele>482.341</ele>
        <time>2009-10-28T08:37:49Z</time>
      </trkpt>
      <trkpt lat="48.46254" lon="6.93307">
        <ele>484.511</ele>
        <time>2009-10-28T08:37:57Z</time>
      </trkpt>
      <trkpt lat="48.46245" lon="6.93321">
        <ele>485.701</ele>
        <time>2009-10-28T08:38:02Z</time>
      </trkpt>
      <trkpt lat="48.46234" lon="6.93347">
        <ele>489.282</ele>
        <time>2009-10-28T08:38:10Z</time>
      </trkpt>
      <trkpt lat="48.46229" lon="6.93375">
        <ele>492.233</ele>
        <time>2009-10-28T08:38:18Z</time>
      </trkpt>
      <trkpt lat="48.4623" lon="6.93393">
        <ele>492.982</ele>
        <time>2009-10-28T08:38:23Z</time>
      </trkpt>
      <trkpt lat="48.46233" lon="6.93415">
        <ele>497.073</ele>
        <time>2009-10-28T08:38:29Z</time>
      </trkpt>
      <trkpt lat="48.46238" lon="6.93437">
        <ele>501.292</ele>
        <time>2009-10-28T08:38:35Z</time>
      </trkpt>
      <trkpt lat="48.46246" lon="6.93465">
        <ele>505.683</ele>
        <time>2009-10-28T08:38:42Z</time>
      </trkpt>
      <trkpt lat="48.46251" lon="6.93485">
        <ele>509.123</ele>
        <time>2009-10-28T08:38:47Z</time>
      </trkpt>
      <trkpt lat="48.46255" lon="6.93516">
        <ele>514.454</ele>
        <time>2009-10-28T08:38:54Z</time>
      </trkpt>
      <trkpt lat="48.46258" lon="6.93551">
        <ele>520.415</ele>
        <time>2009-10-28T08:39:01Z</time>
      </trkpt>
      <trkpt lat="48.46261" lon="6.93578">
        <ele>518.953</ele>
        <time>2009-10-28T08:39:06Z</time>
      </trkpt>
      <trkpt lat="48.46263" lon="6.93614">
        <ele>520.973</ele>
        <time>2009-10-28T08:39:13Z</time>
      </trkpt>
      <trkpt lat="48.46267" lon="6.93649">
        <ele>517.442</ele>
        <time>2009-10-28T08:39:19Z</time>
      </trkpt>
      <trkpt lat="48.46266" lon="6.9367">
        <ele>515.67</ele>
        <time>2009-10-28T08:39:22Z</time>
      </trkpt>
      <trkpt lat="48.4626" lon="6.93723">
        <ele>510.659</ele>
        <time>2009-10-28T08:39:29Z</time>
      </trkpt>
      <trkpt lat="48.46256" lon="6.93754">
        <ele>506.71</ele>
        <time>2009-10-28T08:39:34Z</time>
      </trkpt>
      <trkpt lat="48.46254" lon="6.93773">
        <ele>504.84</ele>
        <time>2009-10-28T08:39:39Z</time>
      </trkpt>
      <trkpt lat="48.46244" lon="6.93782">
        <ele>503.911</ele>
        <time>2009-10-28T08:39:44Z</time>
      </trkpt>
      <trkpt lat="48.46236" lon="6.93793">
        <ele>503.011</ele>
        <time>2009-10-28T08:39:49Z</time>
      </trkpt>
      <trkpt lat="48.46234" lon="6.93795">
        <ele>502.841</ele>
        <time>2009-10-28T08:39:50Z</time>
      </trkpt>
      <trkpt lat="48.46236" lon="6.93798">
        <ele>501.45</ele>
        <time>2009-10-28T08:39:55Z</time>
      </trkpt>
      <trkpt lat="48.46239" lon="6.93792">
        <ele>500.81</ele>
        <time>2009-10-28T08:39:57Z</time>
      </trkpt>
      <trkpt lat="48.46257" lon="6.93757">
        <ele>499.661</ele>
        <time>2009-10-28T08:40:06Z</time>
      </trkpt>
      <trkpt lat="48.46261" lon="6.93729">
        <ele>500.541</ele>
        <time>2009-10-28T08:40:12Z</time>
      </trkpt>
      <trkpt lat="48.46269" lon="6.9368">
        <ele>501.251</ele>
        <time>2009-10-28T08:40:23Z</time>
      </trkpt>
      <trkpt lat="48.46273" lon="6.93652">
        <ele>499.65</ele>
        <time>2009-10-28T08:40:29Z</time>
      </trkpt>
      <trkpt lat="48.46274" lon="6.93621">
        <ele>496.759</ele>
        <time>2009-10-28T08:40:36Z</time>
      </trkpt>
      <trkpt lat="48.46272" lon="6.93584">
        <ele>494.199</ele>
        <time>2009-10-28T08:40:43Z</time>
      </trkpt>
      <trkpt lat="48.46269" lon="6.93547">
        <ele>494.059</ele>
        <time>2009-10-28T08:40:50Z</time>
      </trkpt>
      <trkpt lat="48.46266" lon="6.93516">
        <ele>494.729</ele>
        <time>2009-10-28T08:40:56Z</time>
      </trkpt>
      <trkpt lat="48.46257" lon="6.93479">
        <ele>496.05</ele>
        <time>2009-10-28T08:41:03Z</time>
      </trkpt>
      <trkpt lat="48.46245" lon="6.93446">
        <ele>497.94</ele>
        <time>2009-10-28T08:41:09Z</time>
      </trkpt>
      <trkpt lat="48.46232" lon="6.93412">
        <ele>503.49</ele>
        <time>2009-10-28T08:41:15Z</time>
      </trkpt>
      <trkpt lat="48.46228" lon="6.93397">
        <ele>503.52</ele>
        <time>2009-10-28T08:41:17Z</time>
      </trkpt>
      <trkpt lat="48.46228" lon="6.93358">
        <ele>501.98</ele>
        <time>2009-10-28T08:41:22Z</time>
      </trkpt>
      <trkpt lat="48.46239" lon="6.93323">
        <ele>499.028</ele>
        <time>2009-10-28T08:41:26Z</time>
      </trkpt>
      <trkpt lat="48.46261" lon="6.93293">
        <ele>496.778</ele>
        <time>2009-10-28T08:41:30Z</time>
      </trkpt>
      <trkpt lat="48.46276" lon="6.93283">
        <ele>495.388</ele>
        <time>2009-10-28T08:41:32Z</time>
      </trkpt>
      <trkpt lat="48.46335" lon="6.93259">
        <ele>488.229</ele>
        <time>2009-10-28T08:41:39Z</time>
      </trkpt>
      <trkpt lat="48.46343" lon="6.93255">
        <ele>487.538</ele>
        <time>2009-10-28T08:41:40Z</time>
      </trkpt>
      <trkpt lat="48.46395" lon="6.93221">
        <ele>483.017</ele>
        <time>2009-10-28T08:41:47Z</time>
      </trkpt>
      <trkpt lat="48.46418" lon="6.93206">
        <ele>479.648</ele>
        <time>2009-10-28T08:41:51Z</time>
      </trkpt>
      <trkpt lat="48.46456" lon="6.93181">
        <ele>473.737</ele>
        <time>2009-10-28T08:41:57Z</time>
      </trkpt>
      <trkpt lat="48.46495" lon="6.93169">
        <ele>468.86</ele>
        <time>2009-10-28T08:42:03Z</time>
      </trkpt>
      <trkpt lat="48.46501" lon="6.93167">
        <ele>467.747</ele>
        <time>2009-10-28T08:42:04Z</time>
      </trkpt>
      <trkpt lat="48.46525" lon="6.93148">
        <ele>461.106</ele>
        <time>2009-10-28T08:42:09Z</time>
      </trkpt>
      <trkpt lat="48.46529" lon="6.93132">
        <ele>459.466</ele>
        <time>2009-10-28T08:42:12Z</time>
      </trkpt>
      <trkpt lat="48.46523" lon="6.93124">
        <ele>459.408</ele>
        <time>2009-10-28T08:42:15Z</time>
      </trkpt>
      <trkpt lat="48.46515" lon="6.93121">
        <ele>461.87</ele>
        <time>2009-10-28T08:42:17Z</time>
      </trkpt>
      <trkpt lat="48.46482" lon="6.93112">
        <ele>465.061</ele>
        <time>2009-10-28T08:42:27Z</time>
      </trkpt>
      <trkpt lat="48.46459" lon="6.93112">
        <ele>464.381</ele>
        <time>2009-10-28T08:42:34Z</time>
      </trkpt>
      <trkpt lat="48.4644" lon="6.93113">
        <ele>464.26</ele>
        <time>2009-10-28T08:42:40Z</time>
      </trkpt>
      <trkpt lat="48.46437" lon="6.93112">
        <ele>464.271</ele>
        <time>2009-10-28T08:42:41Z</time>
      </trkpt>
      <trkpt lat="48.46424" lon="6.93115">
        <ele>463.19</ele>
        <time>2009-10-28T08:42:45Z</time>
      </trkpt>
      <trkpt lat="48.46402" lon="6.93131">
        <ele>463.1</ele>
        <time>2009-10-28T08:42:52Z</time>
      </trkpt>
      <trkpt lat="48.46381" lon="6.93155">
        <ele>461.69</ele>
        <time>2009-10-28T08:43:00Z</time>
      </trkpt>
      <trkpt lat="48.46364" lon="6.93172">
        <ele>460.54</ele>
        <time>2009-10-28T08:43:06Z</time>
      </trkpt>
      <trkpt lat="48.46343" lon="6.93195">
        <ele>459.76</ele>
        <time>2009-10-28T08:43:12Z</time>
      </trkpt>
      <trkpt lat="48.46323" lon="6.93205">
        <ele>458.879</ele>
        <time>2009-10-28T08:43:18Z</time>
      </trkpt>
      <trkpt lat="48.46312" lon="6.93203">
        <ele>458.97</ele>
        <time>2009-10-28T08:43:22Z</time>
      </trkpt>
      <trkpt lat="48.46296" lon="6.93202">
        <ele>459.83</ele>
        <time>2009-10-28T08:43:28Z</time>
      </trkpt>
      <trkpt lat="48.46274" lon="6.93194">
        <ele>461.03</ele>
        <time>2009-10-28T08:43:34Z</time>
      </trkpt>
      <trkpt lat="48.46256" lon="6.93183">
        <ele>461.5</ele>
        <time>2009-10-28T08:43:39Z</time>
      </trkpt>
      <trkpt lat="48.46234" lon="6.93174">
        <ele>461.47</ele>
        <time>2009-10-28T08:43:45Z</time>
      </trkpt>
      <trkpt lat="48.46215" lon="6.93171">
        <ele>462.239</ele>
        <time>2009-10-28T08:43:50Z</time>
      </trkpt>
      <trkpt lat="48.46195" lon="6.93168">
        <ele>460.437</ele>
        <time>2009-10-28T08:43:55Z</time>
      </trkpt>
      <trkpt lat="48.46169" lon="6.93156">
        <ele>460.959</ele>
        <time>2009-10-28T08:44:01Z</time>
      </trkpt>
      <trkpt lat="48.46147" lon="6.93143">
        <ele>459.059</ele>
        <time>2009-10-28T08:44:05Z</time>
      </trkpt>
      <trkpt lat="48.46121" lon="6.9313">
        <ele>457.123</ele>
        <time>2009-10-28T08:44:09Z</time>
      </trkpt>
      <trkpt lat="48.46077" lon="6.93123">
        <ele>455.49</ele>
        <time>2009-10-28T08:44:16Z</time>
      </trkpt>
      <trkpt lat="48.4607" lon="6.93123">
        <ele>455.52</ele>
        <time>2009-10-28T08:44:17Z</time>
      </trkpt>
      <trkpt lat="48.46033" lon="6.93106">
        <ele>455.329</ele>
        <time>2009-10-28T08:44:23Z</time>
      </trkpt>
      <trkpt lat="48.45992" lon="6.93073">
        <ele>454.699</ele>
        <time>2009-10-28T08:44:30Z</time>
      </trkpt>
      <trkpt lat="48.45973" lon="6.93061">
        <ele>453.879</ele>
        <time>2009-10-28T08:44:33Z</time>
      </trkpt>
      <trkpt lat="48.45932" lon="6.9302">
        <ele>453.849</ele>
        <time>2009-10-28T08:44:41Z</time>
      </trkpt>
      <trkpt lat="48.45932" lon="6.93002">
        <ele>453.3</ele>
        <time>2009-10-28T08:44:45Z</time>
      </trkpt>
      <trkpt lat="48.45931" lon="6.92989">
        <ele>453.43</ele>
        <time>2009-10-28T08:44:47Z</time>
      </trkpt>
      <trkpt lat="48.45929" lon="6.92975">
        <ele>453.02</ele>
        <time>2009-10-28T08:44:49Z</time>
      </trkpt>
      <trkpt lat="48.45923" lon="6.92932">
        <ele>452.089</ele>
        <time>2009-10-28T08:44:54Z</time>
      </trkpt>
      <trkpt lat="48.45918" lon="6.92915">
        <ele>451.96</ele>
        <time>2009-10-28T08:44:56Z</time>
      </trkpt>
      <trkpt lat="48.45908" lon="6.92875">
        <ele>451.51</ele>
        <time>2009-10-28T08:45:00Z</time>
      </trkpt>
      <trkpt lat="48.45903" lon="6.92843">
        <ele>451.09</ele>
        <time>2009-10-28T08:45:03Z</time>
      </trkpt>
      <trkpt lat="48.45893" lon="6.92793">
        <ele>450.609</ele>
        <time>2009-10-28T08:45:08Z</time>
      </trkpt>
      <trkpt lat="48.45891" lon="6.92784">
        <ele>450.159</ele>
        <time>2009-10-28T08:45:09Z</time>
      </trkpt>
      <trkpt lat="48.45876" lon="6.92752">
        <ele>449.56</ele>
        <time>2009-10-28T08:45:13Z</time>
      </trkpt>
      <trkpt lat="48.45868" lon="6.92713">
        <ele>448.86</ele>
        <time>2009-10-28T08:45:17Z</time>
      </trkpt>
      <trkpt lat="48.45874" lon="6.92677">
        <ele>445.019</ele>
        <time>2009-10-28T08:45:22Z</time>
      </trkpt>
      <trkpt lat="48.45884" lon="6.92649">
        <ele>440.008</ele>
        <time>2009-10-28T08:45:27Z</time>
      </trkpt>
      <trkpt lat="48.45879" lon="6.92608">
        <ele>437.938</ele>
        <time>2009-10-28T08:45:31Z</time>
      </trkpt>
      <trkpt lat="48.45876" lon="6.92577">
        <ele>435.567</ele>
        <time>2009-10-28T08:45:34Z</time>
      </trkpt>
      <trkpt lat="48.45863" lon="6.92535">
        <ele>432.297</ele>
        <time>2009-10-28T08:45:39Z</time>
      </trkpt>
      <trkpt lat="48.45856" lon="6.925">
        <ele>427.897</ele>
        <time>2009-10-28T08:45:44Z</time>
      </trkpt>
      <trkpt lat="48.45833" lon="6.92472">
        <ele>424.308</ele>
        <time>2009-10-28T08:45:51Z</time>
      </trkpt>
      <trkpt lat="48.45817" lon="6.92461">
        <ele>421.585</ele>
        <time>2009-10-28T08:45:55Z</time>
      </trkpt>
      <trkpt lat="48.45796" lon="6.92443">
        <ele>418.337</ele>
        <time>2009-10-28T08:46:00Z</time>
      </trkpt>
      <trkpt lat="48.4578" lon="6.92439">
        <ele>413.956</ele>
        <time>2009-10-28T08:46:04Z</time>
      </trkpt>
      <trkpt lat="48.45765" lon="6.92437">
        <ele>410.866</ele>
        <time>2009-10-28T08:46:08Z</time>
      </trkpt>
      <trkpt lat="48.45756" lon="6.92426">
        <ele>407.557</ele>
        <time>2009-10-28T08:46:13Z</time>
      </trkpt>
      <trkpt lat="48.45745" lon="6.92418">
        <ele>402.477</ele>
        <time>2009-10-28T08:46:18Z</time>
      </trkpt>
      <trkpt lat="48.45743" lon="6.92417">
        <ele>401.324</ele>
        <time>2009-10-28T08:46:21Z</time>
      </trkpt>
      <trkpt lat="48.45739" lon="6.92408">
        <ele>395.909</ele>
        <time>2009-10-28T08:46:49Z</time>
      </trkpt>
      <trkpt lat="48.45739" lon="6.92407">
        <ele>395.637</ele>
        <time>2009-10-28T08:46:51Z</time>
      </trkpt>
      <trkpt lat="48.45724" lon="6.92424">
        <ele>396.309</ele>
        <time>2009-10-28T08:47:06Z</time>
      </trkpt>
      <trkpt lat="48.45715" lon="6.92431">
        <ele>395.999</ele>
        <time>2009-10-28T08:47:11Z</time>
      </trkpt>
      <trkpt lat="48.45707" lon="6.92439">
        <ele>395.99</ele>
        <time>2009-10-28T08:47:15Z</time>
      </trkpt>
      <trkpt lat="48.4569" lon="6.92453">
        <ele>395.729</ele>
        <time>2009-10-28T08:47:20Z</time>
      </trkpt>
      <trkpt lat="48.45659" lon="6.92476">
        <ele>393.099</ele>
        <time>2009-10-28T08:47:28Z</time>
      </trkpt>
      <trkpt lat="48.45627" lon="6.92488">
        <ele>392.908</ele>
        <time>2009-10-28T08:47:35Z</time>
      </trkpt>
      <trkpt lat="48.45614" lon="6.92491">
        <ele>392.488</ele>
        <time>2009-10-28T08:47:38Z</time>
      </trkpt>
      <trkpt lat="48.456" lon="6.92492">
        <ele>391.598</ele>
        <time>2009-10-28T08:47:41Z</time>
      </trkpt>
      <trkpt lat="48.45577" lon="6.92484">
        <ele>394.099</ele>
        <time>2009-10-28T08:47:46Z</time>
      </trkpt>
      <trkpt lat="48.45555" lon="6.9245">
        <ele>403.21</ele>
        <time>2009-10-28T08:47:52Z</time>
      </trkpt>
      <trkpt lat="48.45552" lon="6.92436">
        <ele>405.581</ele>
        <time>2009-10-28T08:47:54Z</time>
      </trkpt>
      <trkpt lat="48.45544" lon="6.92374">
        <ele>408.32</ele>
        <time>2009-10-28T08:48:03Z</time>
      </trkpt>
      <trkpt lat="48.45541" lon="6.92309">
        <ele>405.238</ele>
        <time>2009-10-28T08:48:11Z</time>
      </trkpt>
      <trkpt lat="48.4554" lon="6.92249">
        <ele>403.868</ele>
        <time>2009-10-28T08:48:17Z</time>
      </trkpt>
      <trkpt lat="48.45541" lon="6.92219">
        <ele>402.839</ele>
        <time>2009-10-28T08:48:21Z</time>
      </trkpt>
      <trkpt lat="48.45543" lon="6.92199">
        <ele>401.379</ele>
        <time>2009-10-28T08:48:26Z</time>
      </trkpt>
      <trkpt lat="48.45545" lon="6.92186">
        <ele>400.499</ele>
        <time>2009-10-28T08:48:29Z</time>
      </trkpt>
      <trkpt lat="48.45554" lon="6.92163">
        <ele>400.03</ele>
        <time>2009-10-28T08:48:34Z</time>
      </trkpt>
      <trkpt lat="48.45554" lon="6.92137">
        <ele>399.279</ele>
        <time>2009-10-28T08:48:40Z</time>
      </trkpt>
      <trkpt lat="48.45538" lon="6.92106">
        <ele>396.998</ele>
        <time>2009-10-28T08:48:45Z</time>
      </trkpt>
      <trkpt lat="48.45535" lon="6.92099">
        <ele>396.799</ele>
        <time>2009-10-28T08:48:46Z</time>
      </trkpt>
      <trkpt lat="48.45522" lon="6.92081">
        <ele>395.499</ele>
        <time>2009-10-28T08:48:49Z</time>
      </trkpt>
      <trkpt lat="48.45512" lon="6.92073">
        <ele>395.23</ele>
        <time>2009-10-28T08:48:53Z</time>
      </trkpt>
      <trkpt lat="48.4551" lon="6.92071">
        <ele>395.39</ele>
        <time>2009-10-28T08:48:59Z</time>
      </trkpt>
      <trkpt lat="48.4551" lon="6.9207">
        <ele>395.406</ele>
        <time>2009-10-28T08:49:00Z</time>
      </trkpt>
      <trkpt lat="48.45494" lon="6.92073">
        <ele>395.738</ele>
        <time>2009-10-28T08:56:41Z</time>
      </trkpt>
      <trkpt lat="48.4547" lon="6.92079">
        <ele>393.058</ele>
        <time>2009-10-28T08:56:45Z</time>
      </trkpt>
      <trkpt lat="48.45449" lon="6.92088">
        <ele>391.429</ele>
        <time>2009-10-28T08:56:50Z</time>
      </trkpt>
      <trkpt lat="48.45435" lon="6.9209">
        <ele>390.67</ele>
        <time>2009-10-28T08:56:56Z</time>
      </trkpt>
      <trkpt lat="48.45431" lon="6.92089">
        <ele>390.65</ele>
        <time>2009-10-28T08:56:58Z</time>
      </trkpt>
      <trkpt lat="48.4543" lon="6.92089">
        <ele>390.6</ele>
        <time>2009-10-28T08:57:02Z</time>
      </trkpt>
      <trkpt lat="48.4542" lon="6.92071">
        <ele>390.2</ele>
        <time>2009-10-28T08:57:14Z</time>
      </trkpt>
      <trkpt lat="48.45413" lon="6.92056">
        <ele>390.2</ele>
        <time>2009-10-28T08:57:19Z</time>
      </trkpt>
      <trkpt lat="48.45406" lon="6.92037">
        <ele>390.37</ele>
        <time>2009-10-28T08:57:25Z</time>
      </trkpt>
      <trkpt lat="48.45402" lon="6.9203">
        <ele>390.44</ele>
        <time>2009-10-28T08:57:30Z</time>
      </trkpt>
      <trkpt lat="48.45401" lon="6.92029">
        <ele>390.256</ele>
        <time>2009-10-28T08:57:33Z</time>
      </trkpt>
      <trkpt lat="48.45406" lon="6.92023">
        <ele>388.54</ele>
        <time>2009-10-28T08:59:04Z</time>
      </trkpt>
      <trkpt lat="48.45399" lon="6.92014">
        <ele>391.43</ele>
        <time>2009-10-28T09:02:48Z</time>
      </trkpt>
      <trkpt lat="48.45387" lon="6.91988">
        <ele>391.46</ele>
        <time>2009-10-28T09:02:55Z</time>
      </trkpt>
      <trkpt lat="48.45377" lon="6.91963">
        <ele>391.18</ele>
        <time>2009-10-28T09:03:00Z</time>
      </trkpt>
      <trkpt lat="48.45372" lon="6.91953">
        <ele>391.12</ele>
        <time>2009-10-28T09:03:02Z</time>
      </trkpt>
      <trkpt lat="48.45358" lon="6.91918">
        <ele>390.98</ele>
        <time>2009-10-28T09:03:09Z</time>
      </trkpt>
      <trkpt lat="48.4534" lon="6.91873">
        <ele>390.5</ele>
        <time>2009-10-28T09:03:17Z</time>
      </trkpt>
      <trkpt lat="48.45318" lon="6.91821">
        <ele>389.91</ele>
        <time>2009-10-28T09:03:26Z</time>
      </trkpt>
      <trkpt lat="48.45299" lon="6.91771">
        <ele>389.4</ele>
        <time>2009-10-28T09:03:34Z</time>
      </trkpt>
      <trkpt lat="48.45282" lon="6.91731">
        <ele>388.93</ele>
        <time>2009-10-28T09:03:41Z</time>
      </trkpt>
      <trkpt lat="48.45279" lon="6.9172">
        <ele>388.83</ele>
        <time>2009-10-28T09:03:43Z</time>
      </trkpt>
      <trkpt lat="48.45284" lon="6.91697">
        <ele>388.84</ele>
        <time>2009-10-28T09:03:47Z</time>
      </trkpt>
      <trkpt lat="48.45292" lon="6.91689">
        <ele>389.08</ele>
        <time>2009-10-28T09:03:49Z</time>
      </trkpt>
      <trkpt lat="48.4531" lon="6.91675">
        <ele>390.942</ele>
        <time>2009-10-28T09:03:55Z</time>
      </trkpt>
      <trkpt lat="48.45325" lon="6.91663">
        <ele>393.391</ele>
        <time>2009-10-28T09:04:01Z</time>
      </trkpt>
      <trkpt lat="48.45329" lon="6.91661">
        <ele>393.711</ele>
        <time>2009-10-28T09:04:03Z</time>
      </trkpt>
      <trkpt lat="48.4534" lon="6.91643">
        <ele>395.08</ele>
        <time>2009-10-28T09:04:09Z</time>
      </trkpt>
      <trkpt lat="48.45346" lon="6.91631">
        <ele>395.019</ele>
        <time>2009-10-28T09:04:14Z</time>
      </trkpt>
      <trkpt lat="48.45354" lon="6.91614">
        <ele>394.969</ele>
        <time>2009-10-28T09:04:19Z</time>
      </trkpt>
      <trkpt lat="48.45357" lon="6.91585">
        <ele>395.349</ele>
        <time>2009-10-28T09:04:24Z</time>
      </trkpt>
      <trkpt lat="48.45352" lon="6.91559">
        <ele>395.109</ele>
        <time>2009-10-28T09:04:29Z</time>
      </trkpt>
      <trkpt lat="48.45336" lon="6.91532">
        <ele>395.94</ele>
        <time>2009-10-28T09:04:36Z</time>
      </trkpt>
      <trkpt lat="48.45317" lon="6.9151">
        <ele>397.52</ele>
        <time>2009-10-28T09:04:43Z</time>
      </trkpt>
      <trkpt lat="48.45296" lon="6.91491">
        <ele>399.041</ele>
        <time>2009-10-28T09:04:50Z</time>
      </trkpt>
      <trkpt lat="48.45273" lon="6.91471">
        <ele>399.96</ele>
        <time>2009-10-28T09:04:57Z</time>
      </trkpt>
      <trkpt lat="48.45253" lon="6.9145">
        <ele>399.969</ele>
        <time>2009-10-28T09:05:03Z</time>
      </trkpt>
      <trkpt lat="48.45221" lon="6.91404">
        <ele>398.689</ele>
        <time>2009-10-28T09:05:14Z</time>
      </trkpt>
      <trkpt lat="48.45201" lon="6.91362">
        <ele>400.941</ele>
        <time>2009-10-28T09:05:23Z</time>
      </trkpt>
      <trkpt lat="48.45184" lon="6.91323">
        <ele>404.891</ele>
        <time>2009-10-28T09:05:31Z</time>
      </trkpt>
      <trkpt lat="48.45174" lon="6.91294">
        <ele>407.431</ele>
        <time>2009-10-28T09:05:37Z</time>
      </trkpt>
      <trkpt lat="48.45168" lon="6.91268">
        <ele>409.481</ele>
        <time>2009-10-28T09:05:42Z</time>
      </trkpt>
      <trkpt lat="48.4517" lon="6.91241">
        <ele>411.2</ele>
        <time>2009-10-28T09:05:47Z</time>
      </trkpt>
      <trkpt lat="48.45179" lon="6.91219">
        <ele>409.889</ele>
        <time>2009-10-28T09:05:51Z</time>
      </trkpt>
      <trkpt lat="48.45185" lon="6.91211">
        <ele>409.56</ele>
        <time>2009-10-28T09:05:53Z</time>
      </trkpt>
      <trkpt lat="48.45206" lon="6.91197">
        <ele>409.37</ele>
        <time>2009-10-28T09:05:59Z</time>
      </trkpt>
      <trkpt lat="48.45226" lon="6.91196">
        <ele>412.761</ele>
        <time>2009-10-28T09:06:05Z</time>
      </trkpt>
      <trkpt lat="48.45243" lon="6.91201">
        <ele>415.972</ele>
        <time>2009-10-28T09:06:10Z</time>
      </trkpt>
      <trkpt lat="48.45246" lon="6.91202">
        <ele>416.412</ele>
        <time>2009-10-28T09:06:11Z</time>
      </trkpt>
      <trkpt lat="48.45271" lon="6.91204">
        <ele>418.362</ele>
        <time>2009-10-28T09:06:17Z</time>
      </trkpt>
      <trkpt lat="48.45292" lon="6.91206">
        <ele>420.332</ele>
        <time>2009-10-28T09:06:22Z</time>
      </trkpt>
      <trkpt lat="48.45314" lon="6.91203">
        <ele>419.251</ele>
        <time>2009-10-28T09:06:27Z</time>
      </trkpt>
      <trkpt lat="48.45328" lon="6.91199">
        <ele>419.751</ele>
        <time>2009-10-28T09:06:30Z</time>
      </trkpt>
      <trkpt lat="48.45352" lon="6.91181">
        <ele>414.72</ele>
        <time>2009-10-28T09:06:35Z</time>
      </trkpt>
      <trkpt lat="48.45375" lon="6.91145">
        <ele>410.259</ele>
        <time>2009-10-28T09:06:42Z</time>
      </trkpt>
      <trkpt lat="48.45389" lon="6.91125">
        <ele>409.18</ele>
        <time>2009-10-28T09:06:46Z</time>
      </trkpt>
      <trkpt lat="48.45398" lon="6.91094">
        <ele>409.37</ele>
        <time>2009-10-28T09:06:51Z</time>
      </trkpt>
      <trkpt lat="48.45399" lon="6.91079">
        <ele>408.719</ele>
        <time>2009-10-28T09:06:53Z</time>
      </trkpt>
      <trkpt lat="48.45394" lon="6.91028">
        <ele>407.109</ele>
        <time>2009-10-28T09:07:00Z</time>
      </trkpt>
      <trkpt lat="48.45375" lon="6.90978">
        <ele>405.69</ele>
        <time>2009-10-28T09:07:08Z</time>
      </trkpt>
      <trkpt lat="48.45351" lon="6.90932">
        <ele>404.849</ele>
        <time>2009-10-28T09:07:16Z</time>
      </trkpt>
      <trkpt lat="48.45319" lon="6.90876">
        <ele>404.29</ele>
        <time>2009-10-28T09:07:26Z</time>
      </trkpt>
      <trkpt lat="48.45288" lon="6.9082">
        <ele>403.51</ele>
        <time>2009-10-28T09:07:36Z</time>
      </trkpt>
      <trkpt lat="48.45254" lon="6.90765">
        <ele>402.609</ele>
        <time>2009-10-28T09:07:46Z</time>
      </trkpt>
      <trkpt lat="48.45226" lon="6.90714">
        <ele>401.798</ele>
        <time>2009-10-28T09:07:55Z</time>
      </trkpt>
      <trkpt lat="48.45212" lon="6.90684">
        <ele>402.179</ele>
        <time>2009-10-28T09:08:00Z</time>
      </trkpt>
      <trkpt lat="48.45207" lon="6.90664">
        <ele>402.059</ele>
        <time>2009-10-28T09:08:03Z</time>
      </trkpt>
      <trkpt lat="48.45209" lon="6.90637">
        <ele>402.259</ele>
        <time>2009-10-28T09:08:07Z</time>
      </trkpt>
      <trkpt lat="48.45223" lon="6.9062">
        <ele>402.35</ele>
        <time>2009-10-28T09:08:11Z</time>
      </trkpt>
      <trkpt lat="48.45244" lon="6.90608">
        <ele>404.581</ele>
        <time>2009-10-28T09:08:16Z</time>
      </trkpt>
      <trkpt lat="48.45264" lon="6.90599">
        <ele>406.781</ele>
        <time>2009-10-28T09:08:21Z</time>
      </trkpt>
      <trkpt lat="48.45292" lon="6.90592">
        <ele>409.592</ele>
        <time>2009-10-28T09:08:28Z</time>
      </trkpt>
      <trkpt lat="48.45323" lon="6.90593">
        <ele>411.721</ele>
        <time>2009-10-28T09:08:35Z</time>
      </trkpt>
      <trkpt lat="48.45349" lon="6.90599">
        <ele>411.801</ele>
        <time>2009-10-28T09:08:41Z</time>
      </trkpt>
      <trkpt lat="48.45381" lon="6.90609">
        <ele>414.551</ele>
        <time>2009-10-28T09:08:48Z</time>
      </trkpt>
      <trkpt lat="48.45385" lon="6.90611">
        <ele>414.671</ele>
        <time>2009-10-28T09:08:49Z</time>
      </trkpt>
      <trkpt lat="48.45398" lon="6.90619">
        <ele>414.451</ele>
        <time>2009-10-28T09:08:52Z</time>
      </trkpt>
      <trkpt lat="48.45407" lon="6.90625">
        <ele>414.131</ele>
        <time>2009-10-28T09:08:54Z</time>
      </trkpt>
      <trkpt lat="48.45444" lon="6.90648">
        <ele>412.56</ele>
        <time>2009-10-28T09:09:02Z</time>
      </trkpt>
      <trkpt lat="48.45481" lon="6.90671">
        <ele>411.941</ele>
        <time>2009-10-28T09:09:10Z</time>
      </trkpt>
      <trkpt lat="48.45485" lon="6.90673">
        <ele>411.891</ele>
        <time>2009-10-28T09:09:11Z</time>
      </trkpt>
      <trkpt lat="48.45506" lon="6.90675">
        <ele>410.22</ele>
        <time>2009-10-28T09:09:16Z</time>
      </trkpt>
      <trkpt lat="48.45514" lon="6.9067">
        <ele>408.33</ele>
        <time>2009-10-28T09:09:21Z</time>
      </trkpt>
      <trkpt lat="48.45514" lon="6.9067">
        <ele>407.744</ele>
        <time>2009-10-28T09:09:22Z</time>
      </trkpt>
      <trkpt lat="48.45518" lon="6.90651">
        <ele>407.52</ele>
        <time>2009-10-28T09:09:35Z</time>
      </trkpt>
      <trkpt lat="48.45518" lon="6.90645">
        <ele>407.3</ele>
        <time>2009-10-28T09:09:36Z</time>
      </trkpt>
      <trkpt lat="48.45508" lon="6.90605">
        <ele>406.97</ele>
        <time>2009-10-28T09:09:43Z</time>
      </trkpt>
      <trkpt lat="48.45494" lon="6.90562">
        <ele>408.091</ele>
        <time>2009-10-28T09:09:51Z</time>
      </trkpt>
      <trkpt lat="48.45481" lon="6.90522">
        <ele>410.551</ele>
        <time>2009-10-28T09:09:59Z</time>
      </trkpt>
      <trkpt lat="48.45473" lon="6.90488">
        <ele>412.971</ele>
        <time>2009-10-28T09:10:06Z</time>
      </trkpt>
      <trkpt lat="48.45471" lon="6.90457">
        <ele>412.91</ele>
        <time>2009-10-28T09:10:12Z</time>
      </trkpt>
      <trkpt lat="48.45469" lon="6.90417">
        <ele>414.541</ele>
        <time>2009-10-28T09:10:20Z</time>
      </trkpt>
      <trkpt lat="48.45463" lon="6.90381">
        <ele>414.9</ele>
        <time>2009-10-28T09:10:27Z</time>
      </trkpt>
      <trkpt lat="48.45467" lon="6.90356">
        <ele>416.131</ele>
        <time>2009-10-28T09:10:32Z</time>
      </trkpt>
      <trkpt lat="48.45476" lon="6.90312">
        <ele>418.432</ele>
        <time>2009-10-28T09:10:41Z</time>
      </trkpt>
      <trkpt lat="48.45476" lon="6.90278">
        <ele>420.871</ele>
        <time>2009-10-28T09:10:48Z</time>
      </trkpt>
      <trkpt lat="48.45469" lon="6.90232">
        <ele>422.25</ele>
        <time>2009-10-28T09:10:57Z</time>
      </trkpt>
      <trkpt lat="48.45464" lon="6.902">
        <ele>424.001</ele>
        <time>2009-10-28T09:11:04Z</time>
      </trkpt>
      <trkpt lat="48.4546" lon="6.90153">
        <ele>424.651</ele>
        <time>2009-10-28T09:11:14Z</time>
      </trkpt>
      <trkpt lat="48.4546" lon="6.90137">
        <ele>425.791</ele>
        <time>2009-10-28T09:11:18Z</time>
      </trkpt>
      <trkpt lat="48.45467" lon="6.90135">
        <ele>426.49</ele>
        <time>2009-10-28T09:11:23Z</time>
      </trkpt>
      <trkpt lat="48.45473" lon="6.90136">
        <ele>426.801</ele>
        <time>2009-10-28T09:11:25Z</time>
      </trkpt>
      <trkpt lat="48.4549" lon="6.90141">
        <ele>426.911</ele>
        <time>2009-10-28T09:11:30Z</time>
      </trkpt>
      <trkpt lat="48.45516" lon="6.90147">
        <ele>429.121</ele>
        <time>2009-10-28T09:11:36Z</time>
      </trkpt>
      <trkpt lat="48.45537" lon="6.90146">
        <ele>430.741</ele>
        <time>2009-10-28T09:11:42Z</time>
      </trkpt>
      <trkpt lat="48.45552" lon="6.90149">
        <ele>430.581</ele>
        <time>2009-10-28T09:11:46Z</time>
      </trkpt>
      <trkpt lat="48.45569" lon="6.90161">
        <ele>431.771</ele>
        <time>2009-10-28T09:11:50Z</time>
      </trkpt>
      <trkpt lat="48.45579" lon="6.90176">
        <ele>433.341</ele>
        <time>2009-10-28T09:11:53Z</time>
      </trkpt>
      <trkpt lat="48.45605" lon="6.902">
        <ele>431.66</ele>
        <time>2009-10-28T09:11:59Z</time>
      </trkpt>
      <trkpt lat="48.4563" lon="6.90218">
        <ele>433.001</ele>
        <time>2009-10-28T09:12:05Z</time>
      </trkpt>
      <trkpt lat="48.45644" lon="6.9023">
        <ele>430.54</ele>
        <time>2009-10-28T09:12:09Z</time>
      </trkpt>
      <trkpt lat="48.45648" lon="6.90234">
        <ele>429.69</ele>
        <time>2009-10-28T09:12:10Z</time>
      </trkpt>
      <trkpt lat="48.4566" lon="6.90244">
        <ele>427.189</ele>
        <time>2009-10-28T09:12:13Z</time>
      </trkpt>
      <trkpt lat="48.45671" lon="6.9026">
        <ele>426.02</ele>
        <time>2009-10-28T09:12:16Z</time>
      </trkpt>
      <trkpt lat="48.45694" lon="6.90299">
        <ele>426.501</ele>
        <time>2009-10-28T09:12:24Z</time>
      </trkpt>
      <trkpt lat="48.45703" lon="6.9031">
        <ele>427.551</ele>
        <time>2009-10-28T09:12:27Z</time>
      </trkpt>
      <trkpt lat="48.45731" lon="6.90335">
        <ele>428.001</ele>
        <time>2009-10-28T09:12:35Z</time>
      </trkpt>
      <trkpt lat="48.45746" lon="6.90353">
        <ele>427.94</ele>
        <time>2009-10-28T09:12:40Z</time>
      </trkpt>
      <trkpt lat="48.45761" lon="6.90372">
        <ele>427.79</ele>
        <time>2009-10-28T09:12:45Z</time>
      </trkpt>
      <trkpt lat="48.45789" lon="6.9038">
        <ele>428.751</ele>
        <time>2009-10-28T09:12:51Z</time>
      </trkpt>
      <trkpt lat="48.45814" lon="6.90378">
        <ele>429.932</ele>
        <time>2009-10-28T09:12:56Z</time>
      </trkpt>
      <trkpt lat="48.45835" lon="6.90394">
        <ele>430.371</ele>
        <time>2009-10-28T09:13:01Z</time>
      </trkpt>
      <trkpt lat="48.45838" lon="6.904">
        <ele>430.171</ele>
        <time>2009-10-28T09:13:02Z</time>
      </trkpt>
      <trkpt lat="48.45852" lon="6.90439">
        <ele>427.44</ele>
        <time>2009-10-28T09:13:07Z</time>
      </trkpt>
      <trkpt lat="48.45855" lon="6.90457">
        <ele>425.99</ele>
        <time>2009-10-28T09:13:09Z</time>
      </trkpt>
      <trkpt lat="48.45856" lon="6.90476">
        <ele>424.92</ele>
        <time>2009-10-28T09:13:11Z</time>
      </trkpt>
      <trkpt lat="48.45859" lon="6.90504">
        <ele>423.069</ele>
        <time>2009-10-28T09:13:14Z</time>
      </trkpt>
      <trkpt lat="48.45866" lon="6.90563">
        <ele>420.069</ele>
        <time>2009-10-28T09:13:20Z</time>
      </trkpt>
      <trkpt lat="48.45859" lon="6.90589">
        <ele>419.059</ele>
        <time>2009-10-28T09:13:23Z</time>
      </trkpt>
      <trkpt lat="48.45856" lon="6.90597">
        <ele>418.239</ele>
        <time>2009-10-28T09:13:24Z</time>
      </trkpt>
      <trkpt lat="48.45846" lon="6.90647">
        <ele>414.649</ele>
        <time>2009-10-28T09:13:29Z</time>
      </trkpt>
      <trkpt lat="48.45848" lon="6.90703">
        <ele>411.769</ele>
        <time>2009-10-28T09:13:34Z</time>
      </trkpt>
      <trkpt lat="48.4585" lon="6.90726">
        <ele>411.53</ele>
        <time>2009-10-28T09:13:36Z</time>
      </trkpt>
      <trkpt lat="48.45843" lon="6.90749">
        <ele>411.99</ele>
        <time>2009-10-28T09:13:39Z</time>
      </trkpt>
      <trkpt lat="48.45824" lon="6.90768">
        <ele>410.689</ele>
        <time>2009-10-28T09:13:43Z</time>
      </trkpt>
      <trkpt lat="48.45818" lon="6.90799">
        <ele>408.589</ele>
        <time>2009-10-28T09:13:47Z</time>
      </trkpt>
      <trkpt lat="48.45822" lon="6.90863">
        <ele>406.469</ele>
        <time>2009-10-28T09:13:54Z</time>
      </trkpt>
      <trkpt lat="48.45829" lon="6.9092">
        <ele>406.07</ele>
        <time>2009-10-28T09:14:01Z</time>
      </trkpt>
      <trkpt lat="48.45831" lon="6.90936">
        <ele>405.94</ele>
        <time>2009-10-28T09:14:03Z</time>
      </trkpt>
      <trkpt lat="48.45832" lon="6.90952">
        <ele>406.84</ele>
        <time>2009-10-28T09:14:05Z</time>
      </trkpt>
      <trkpt lat="48.45829" lon="6.90993">
        <ele>410.552</ele>
        <time>2009-10-28T09:14:10Z</time>
      </trkpt>
      <trkpt lat="48.45829" lon="6.91">
        <ele>410.571</ele>
        <time>2009-10-28T09:14:11Z</time>
      </trkpt>
      <trkpt lat="48.45831" lon="6.91056">
        <ele>411.221</ele>
        <time>2009-10-28T09:14:18Z</time>
      </trkpt>
      <trkpt lat="48.45829" lon="6.91086">
        <ele>409.29</ele>
        <time>2009-10-28T09:14:22Z</time>
      </trkpt>
      <trkpt lat="48.45829" lon="6.91101">
        <ele>409.261</ele>
        <time>2009-10-28T09:14:24Z</time>
      </trkpt>
      <trkpt lat="48.45832" lon="6.91153">
        <ele>409.171</ele>
        <time>2009-10-28T09:14:31Z</time>
      </trkpt>
      <trkpt lat="48.45835" lon="6.91169">
        <ele>410.071</ele>
        <time>2009-10-28T09:14:33Z</time>
      </trkpt>
      <trkpt lat="48.45837" lon="6.91184">
        <ele>411.132</ele>
        <time>2009-10-28T09:14:35Z</time>
      </trkpt>
      <trkpt lat="48.45847" lon="6.91217">
        <ele>411.122</ele>
        <time>2009-10-28T09:14:40Z</time>
      </trkpt>
      <trkpt lat="48.4586" lon="6.9124">
        <ele>412.842</ele>
        <time>2009-10-28T09:14:44Z</time>
      </trkpt>
      <trkpt lat="48.45868" lon="6.91252">
        <ele>412.782</ele>
        <time>2009-10-28T09:14:46Z</time>
      </trkpt>
      <trkpt lat="48.45891" lon="6.91298">
        <ele>412.671</ele>
        <time>2009-10-28T09:14:53Z</time>
      </trkpt>
      <trkpt lat="48.45911" lon="6.91333">
        <ele>411.971</ele>
        <time>2009-10-28T09:14:59Z</time>
      </trkpt>
      <trkpt lat="48.45915" lon="6.91338">
        <ele>411.871</ele>
        <time>2009-10-28T09:15:00Z</time>
      </trkpt>
      <trkpt lat="48.45932" lon="6.91353">
        <ele>413.061</ele>
        <time>2009-10-28T09:15:04Z</time>
      </trkpt>
      <trkpt lat="48.45959" lon="6.9136">
        <ele>413.581</ele>
        <time>2009-10-28T09:15:10Z</time>
      </trkpt>
      <trkpt lat="48.45977" lon="6.9137">
        <ele>414.171</ele>
        <time>2009-10-28T09:15:14Z</time>
      </trkpt>
      <trkpt lat="48.46005" lon="6.91401">
        <ele>415.761</ele>
        <time>2009-10-28T09:15:21Z</time>
      </trkpt>
      <trkpt lat="48.46009" lon="6.91405">
        <ele>415.911</ele>
        <time>2009-10-28T09:15:22Z</time>
      </trkpt>
      <trkpt lat="48.46022" lon="6.91425">
        <ele>415.691</ele>
        <time>2009-10-28T09:15:26Z</time>
      </trkpt>
      <trkpt lat="48.46041" lon="6.9145">
        <ele>416.091</ele>
        <time>2009-10-28T09:15:31Z</time>
      </trkpt>
      <trkpt lat="48.46051" lon="6.91458">
        <ele>416.322</ele>
        <time>2009-10-28T09:15:33Z</time>
      </trkpt>
      <trkpt lat="48.46061" lon="6.91464">
        <ele>416.781</ele>
        <time>2009-10-28T09:15:35Z</time>
      </trkpt>
      <trkpt lat="48.46081" lon="6.91474">
        <ele>419.202</ele>
        <time>2009-10-28T09:15:39Z</time>
      </trkpt>
      <trkpt lat="48.46091" lon="6.91478">
        <ele>419.102</ele>
        <time>2009-10-28T09:15:41Z</time>
      </trkpt>
      <trkpt lat="48.46119" lon="6.91495">
        <ele>421.212</ele>
        <time>2009-10-28T09:15:47Z</time>
      </trkpt>
      <trkpt lat="48.46153" lon="6.91516">
        <ele>422.253</ele>
        <time>2009-10-28T09:15:54Z</time>
      </trkpt>
      <trkpt lat="48.46172" lon="6.91525">
        <ele>419.402</ele>
        <time>2009-10-28T09:15:58Z</time>
      </trkpt>
      <trkpt lat="48.46185" lon="6.91512">
        <ele>418.032</ele>
        <time>2009-10-28T09:16:02Z</time>
      </trkpt>
      <trkpt lat="48.46186" lon="6.91499">
        <ele>417.061</ele>
        <time>2009-10-28T09:16:04Z</time>
      </trkpt>
      <trkpt lat="48.46185" lon="6.91455">
        <ele>414.871</ele>
        <time>2009-10-28T09:16:10Z</time>
      </trkpt>
      <trkpt lat="48.46181" lon="6.91426">
        <ele>413.75</ele>
        <time>2009-10-28T09:16:14Z</time>
      </trkpt>
      <trkpt lat="48.46178" lon="6.91396">
        <ele>412.99</ele>
        <time>2009-10-28T09:16:18Z</time>
      </trkpt>
      <trkpt lat="48.46169" lon="6.9136">
        <ele>412.591</ele>
        <time>2009-10-28T09:16:23Z</time>
      </trkpt>
      <trkpt lat="48.46156" lon="6.91307">
        <ele>411.721</ele>
        <time>2009-10-28T09:16:30Z</time>
      </trkpt>
      <trkpt lat="48.46154" lon="6.913">
        <ele>411.761</ele>
        <time>2009-10-28T09:16:31Z</time>
      </trkpt>
      <trkpt lat="48.46152" lon="6.91285">
        <ele>411.541</ele>
        <time>2009-10-28T09:16:33Z</time>
      </trkpt>
      <trkpt lat="48.46149" lon="6.9124">
        <ele>409.47</ele>
        <time>2009-10-28T09:16:39Z</time>
      </trkpt>
      <trkpt lat="48.46143" lon="6.91187">
        <ele>408.24</ele>
        <time>2009-10-28T09:16:46Z</time>
      </trkpt>
      <trkpt lat="48.46135" lon="6.9112">
        <ele>406.729</ele>
        <time>2009-10-28T09:16:54Z</time>
      </trkpt>
      <trkpt lat="48.46121" lon="6.91054">
        <ele>405.04</ele>
        <time>2009-10-28T09:17:02Z</time>
      </trkpt>
      <trkpt lat="48.46119" lon="6.91029">
        <ele>404.81</ele>
        <time>2009-10-28T09:17:05Z</time>
      </trkpt>
      <trkpt lat="48.46122" lon="6.9098">
        <ele>406.391</ele>
        <time>2009-10-28T09:17:11Z</time>
      </trkpt>
      <trkpt lat="48.46122" lon="6.90966">
        <ele>406.842</ele>
        <time>2009-10-28T09:17:13Z</time>
      </trkpt>
      <trkpt lat="48.46121" lon="6.90925">
        <ele>409.342</ele>
        <time>2009-10-28T09:17:20Z</time>
      </trkpt>
      <trkpt lat="48.46126" lon="6.90909">
        <ele>409.922</ele>
        <time>2009-10-28T09:17:24Z</time>
      </trkpt>
      <trkpt lat="48.46141" lon="6.90893">
        <ele>409.951</ele>
        <time>2009-10-28T09:17:29Z</time>
      </trkpt>
      <trkpt lat="48.46153" lon="6.90874">
        <ele>410.412</ele>
        <time>2009-10-28T09:17:34Z</time>
      </trkpt>
      <trkpt lat="48.4615" lon="6.9085">
        <ele>411.791</ele>
        <time>2009-10-28T09:17:41Z</time>
      </trkpt>
      <trkpt lat="48.46143" lon="6.90841">
        <ele>413.211</ele>
        <time>2009-10-28T09:17:47Z</time>
      </trkpt>
      <trkpt lat="48.46142" lon="6.90839">
        <ele>413.471</ele>
        <time>2009-10-28T09:17:48Z</time>
      </trkpt>
      <trkpt lat="48.46126" lon="6.90829">
        <ele>413.621</ele>
        <time>2009-10-28T09:17:54Z</time>
      </trkpt>
      <trkpt lat="48.46101" lon="6.90816">
        <ele>412.6</ele>
        <time>2009-10-28T09:18:02Z</time>
      </trkpt>
      <trkpt lat="48.46089" lon="6.90811">
        <ele>412.521</ele>
        <time>2009-10-28T09:18:05Z</time>
      </trkpt>
      <trkpt lat="48.46072" lon="6.90791">
        <ele>413.131</ele>
        <time>2009-10-28T09:18:10Z</time>
      </trkpt>
      <trkpt lat="48.46059" lon="6.90751">
        <ele>412.791</ele>
        <time>2009-10-28T09:18:17Z</time>
      </trkpt>
      <trkpt lat="48.46054" lon="6.90729">
        <ele>414.502</ele>
        <time>2009-10-28T09:18:21Z</time>
      </trkpt>
      <trkpt lat="48.46057" lon="6.90717">
        <ele>414.662</ele>
        <time>2009-10-28T09:18:23Z</time>
      </trkpt>
      <trkpt lat="48.46073" lon="6.90679">
        <ele>414.772</ele>
        <time>2009-10-28T09:18:31Z</time>
      </trkpt>
      <trkpt lat="48.46081" lon="6.90653">
        <ele>415.542</ele>
        <time>2009-10-28T09:18:36Z</time>
      </trkpt>
      <trkpt lat="48.46093" lon="6.90628">
        <ele>414.731</ele>
        <time>2009-10-28T09:18:41Z</time>
      </trkpt>
      <trkpt lat="48.46101" lon="6.90596">
        <ele>412.93</ele>
        <time>2009-10-28T09:18:47Z</time>
      </trkpt>
      <trkpt lat="48.46102" lon="6.9059">
        <ele>412.4</ele>
        <time>2009-10-28T09:18:48Z</time>
      </trkpt>
      <trkpt lat="48.46103" lon="6.90534">
        <ele>410.789</ele>
        <time>2009-10-28T09:18:55Z</time>
      </trkpt>
      <trkpt lat="48.46101" lon="6.90481">
        <ele>409.129</ele>
        <time>2009-10-28T09:19:01Z</time>
      </trkpt>
      <trkpt lat="48.46092" lon="6.90434">
        <ele>408.34</ele>
        <time>2009-10-28T09:19:06Z</time>
      </trkpt>
      <trkpt lat="48.46086" lon="6.90372">
        <ele>405.959</ele>
        <time>2009-10-28T09:19:12Z</time>
      </trkpt>
      <trkpt lat="48.46089" lon="6.90313">
        <ele>402.679</ele>
        <time>2009-10-28T09:19:18Z</time>
      </trkpt>
      <trkpt lat="48.4609" lon="6.90287">
        <ele>400.36</ele>
        <time>2009-10-28T09:19:23Z</time>
      </trkpt>
      <trkpt lat="48.46086" lon="6.90272">
        <ele>399.97</ele>
        <time>2009-10-28T09:19:28Z</time>
      </trkpt>
      <trkpt lat="48.46075" lon="6.9025">
        <ele>399.64</ele>
        <time>2009-10-28T09:19:34Z</time>
      </trkpt>
      <trkpt lat="48.46066" lon="6.90234">
        <ele>399.309</ele>
        <time>2009-10-28T09:19:37Z</time>
      </trkpt>
      <trkpt lat="48.46035" lon="6.90207">
        <ele>398.55</ele>
        <time>2009-10-28T09:19:44Z</time>
      </trkpt>
      <trkpt lat="48.46027" lon="6.90201">
        <ele>397.889</ele>
        <time>2009-10-28T09:19:46Z</time>
      </trkpt>
      <trkpt lat="48.46018" lon="6.90196">
        <ele>397.4</ele>
        <time>2009-10-28T09:19:48Z</time>
      </trkpt>
      <trkpt lat="48.46002" lon="6.90185">
        <ele>398.05</ele>
        <time>2009-10-28T09:19:52Z</time>
      </trkpt>
      <trkpt lat="48.45995" lon="6.90178">
        <ele>398.62</ele>
        <time>2009-10-28T09:19:54Z</time>
      </trkpt>
      <trkpt lat="48.45959" lon="6.90133">
        <ele>399.091</ele>
        <time>2009-10-28T09:20:04Z</time>
      </trkpt>
      <trkpt lat="48.45952" lon="6.90123">
        <ele>400.031</ele>
        <time>2009-10-28T09:20:06Z</time>
      </trkpt>
      <trkpt lat="48.45936" lon="6.90086">
        <ele>399.801</ele>
        <time>2009-10-28T09:20:12Z</time>
      </trkpt>
      <trkpt lat="48.45925" lon="6.90049">
        <ele>399.241</ele>
        <time>2009-10-28T09:20:17Z</time>
      </trkpt>
      <trkpt lat="48.45927" lon="6.90015">
        <ele>399.151</ele>
        <time>2009-10-28T09:20:21Z</time>
      </trkpt>
      <trkpt lat="48.45935" lon="6.89998">
        <ele>400.562</ele>
        <time>2009-10-28T09:20:24Z</time>
      </trkpt>
      <trkpt lat="48.45947" lon="6.89996">
        <ele>400.742</ele>
        <time>2009-10-28T09:20:27Z</time>
      </trkpt>
      <trkpt lat="48.4597" lon="6.90006">
        <ele>402.802</ele>
        <time>2009-10-28T09:20:33Z</time>
      </trkpt>
      <trkpt lat="48.4598" lon="6.90009">
        <ele>404.122</ele>
        <time>2009-10-28T09:20:37Z</time>
      </trkpt>
      <trkpt lat="48.45993" lon="6.90008">
        <ele>405.913</ele>
        <time>2009-10-28T09:20:42Z</time>
      </trkpt>
      <trkpt lat="48.46007" lon="6.89996">
        <ele>407.112</ele>
        <time>2009-10-28T09:20:48Z</time>
      </trkpt>
      <trkpt lat="48.46014" lon="6.89973">
        <ele>408.763</ele>
        <time>2009-10-28T09:20:55Z</time>
      </trkpt>
      <trkpt lat="48.46017" lon="6.89948">
        <ele>410.402</ele>
        <time>2009-10-28T09:21:01Z</time>
      </trkpt>
      <trkpt lat="48.4602" lon="6.89918">
        <ele>408.251</ele>
        <time>2009-10-28T09:21:08Z</time>
      </trkpt>
      <trkpt lat="48.46018" lon="6.89908">
        <ele>408.871</ele>
        <time>2009-10-28T09:21:13Z</time>
      </trkpt>
      <trkpt lat="48.46013" lon="6.89896">
        <ele>409.111</ele>
        <time>2009-10-28T09:21:19Z</time>
      </trkpt>
      <trkpt lat="48.46009" lon="6.89891">
        <ele>409.471</ele>
        <time>2009-10-28T09:21:22Z</time>
      </trkpt>
      <trkpt lat="48.46" lon="6.89874">
        <ele>408.28</ele>
        <time>2009-10-28T09:21:28Z</time>
      </trkpt>
      <trkpt lat="48.45996" lon="6.89865">
        <ele>408.691</ele>
        <time>2009-10-28T09:21:30Z</time>
      </trkpt>
      <trkpt lat="48.45983" lon="6.89829">
        <ele>410.021</ele>
        <time>2009-10-28T09:21:38Z</time>
      </trkpt>
      <trkpt lat="48.45973" lon="6.898">
        <ele>411.341</ele>
        <time>2009-10-28T09:21:44Z</time>
      </trkpt>
      <trkpt lat="48.45966" lon="6.89782">
        <ele>411.961</ele>
        <time>2009-10-28T09:21:50Z</time>
      </trkpt>
      <trkpt lat="48.45958" lon="6.89766">
        <ele>414.081</ele>
        <time>2009-10-28T09:21:56Z</time>
      </trkpt>
      <trkpt lat="48.45947" lon="6.89748">
        <ele>414.571</ele>
        <time>2009-10-28T09:22:02Z</time>
      </trkpt>
      <trkpt lat="48.45936" lon="6.89731">
        <ele>414.97</ele>
        <time>2009-10-28T09:22:08Z</time>
      </trkpt>
      <trkpt lat="48.45924" lon="6.89711">
        <ele>415.861</ele>
        <time>2009-10-28T09:22:14Z</time>
      </trkpt>
      <trkpt lat="48.45908" lon="6.89684">
        <ele>417.231</ele>
        <time>2009-10-28T09:22:22Z</time>
      </trkpt>
      <trkpt lat="48.45893" lon="6.89665">
        <ele>418.721</ele>
        <time>2009-10-28T09:22:28Z</time>
      </trkpt>
      <trkpt lat="48.45878" lon="6.89654">
        <ele>420.111</ele>
        <time>2009-10-28T09:22:34Z</time>
      </trkpt>
      <trkpt lat="48.45867" lon="6.89641">
        <ele>419.751</ele>
        <time>2009-10-28T09:22:39Z</time>
      </trkpt>
      <trkpt lat="48.45852" lon="6.89613">
        <ele>421.112</ele>
        <time>2009-10-28T09:22:48Z</time>
      </trkpt>
      <trkpt lat="48.45846" lon="6.89602">
        <ele>421.061</ele>
        <time>2009-10-28T09:22:52Z</time>
      </trkpt>
      <trkpt lat="48.45833" lon="6.8958">
        <ele>420.551</ele>
        <time>2009-10-28T09:22:59Z</time>
      </trkpt>
      <trkpt lat="48.45821" lon="6.89557">
        <ele>420.261</ele>
        <time>2009-10-28T09:23:05Z</time>
      </trkpt>
      <trkpt lat="48.45805" lon="6.89529">
        <ele>423.743</ele>
        <time>2009-10-28T09:23:13Z</time>
      </trkpt>
      <trkpt lat="48.45793" lon="6.89507">
        <ele>424.211</ele>
        <time>2009-10-28T09:23:20Z</time>
      </trkpt>
      <trkpt lat="48.45783" lon="6.8949">
        <ele>424.301</ele>
        <time>2009-10-28T09:23:25Z</time>
      </trkpt>
      <trkpt lat="48.45769" lon="6.89473">
        <ele>424.391</ele>
        <time>2009-10-28T09:23:31Z</time>
      </trkpt>
      <trkpt lat="48.45753" lon="6.89461">
        <ele>425.311</ele>
        <time>2009-10-28T09:23:37Z</time>
      </trkpt>
      <trkpt lat="48.45743" lon="6.89445">
        <ele>425.541</ele>
        <time>2009-10-28T09:23:42Z</time>
      </trkpt>
      <trkpt lat="48.45745" lon="6.89425">
        <ele>424.981</ele>
        <time>2009-10-28T09:23:46Z</time>
      </trkpt>
      <trkpt lat="48.45756" lon="6.89395">
        <ele>425.762</ele>
        <time>2009-10-28T09:23:53Z</time>
      </trkpt>
      <trkpt lat="48.45763" lon="6.89364">
        <ele>427.112</ele>
        <time>2009-10-28T09:24:00Z</time>
      </trkpt>
      <trkpt lat="48.45768" lon="6.89331">
        <ele>428.632</ele>
        <time>2009-10-28T09:24:07Z</time>
      </trkpt>
      <trkpt lat="48.45774" lon="6.89294">
        <ele>429.311</ele>
        <time>2009-10-28T09:24:14Z</time>
      </trkpt>
      <trkpt lat="48.45778" lon="6.89266">
        <ele>431.342</ele>
        <time>2009-10-28T09:24:20Z</time>
      </trkpt>
      <trkpt lat="48.45782" lon="6.89235">
        <ele>433.561</ele>
        <time>2009-10-28T09:24:26Z</time>
      </trkpt>
      <trkpt lat="48.45788" lon="6.89208">
        <ele>430.52</ele>
        <time>2009-10-28T09:24:31Z</time>
      </trkpt>
      <trkpt lat="48.45794" lon="6.89179">
        <ele>429.2</ele>
        <time>2009-10-28T09:24:36Z</time>
      </trkpt>
      <trkpt lat="48.45797" lon="6.89154">
        <ele>427.479</ele>
        <time>2009-10-28T09:24:40Z</time>
      </trkpt>
      <trkpt lat="48.45801" lon="6.8912">
        <ele>428.059</ele>
        <time>2009-10-28T09:24:45Z</time>
      </trkpt>
      <trkpt lat="48.45802" lon="6.89113">
        <ele>427.659</ele>
        <time>2009-10-28T09:24:46Z</time>
      </trkpt>
      <trkpt lat="48.45807" lon="6.89085">
        <ele>426.13</ele>
        <time>2009-10-28T09:24:51Z</time>
      </trkpt>
      <trkpt lat="48.45812" lon="6.89057">
        <ele>424.93</ele>
        <time>2009-10-28T09:24:57Z</time>
      </trkpt>
      <trkpt lat="48.45816" lon="6.89037">
        <ele>425.361</ele>
        <time>2009-10-28T09:25:03Z</time>
      </trkpt>
      <trkpt lat="48.45824" lon="6.89027">
        <ele>425.891</ele>
        <time>2009-10-28T09:25:08Z</time>
      </trkpt>
      <trkpt lat="48.45838" lon="6.89018">
        <ele>425.031</ele>
        <time>2009-10-28T09:25:13Z</time>
      </trkpt>
      <trkpt lat="48.45853" lon="6.88996">
        <ele>425.381</ele>
        <time>2009-10-28T09:25:19Z</time>
      </trkpt>
      <trkpt lat="48.45874" lon="6.88964">
        <ele>424.21</ele>
        <time>2009-10-28T09:25:27Z</time>
      </trkpt>
      <trkpt lat="48.45898" lon="6.88928">
        <ele>426.141</ele>
        <time>2009-10-28T09:25:36Z</time>
      </trkpt>
      <trkpt lat="48.45904" lon="6.8892">
        <ele>426.341</ele>
        <time>2009-10-28T09:25:38Z</time>
      </trkpt>
      <trkpt lat="48.45926" lon="6.88884">
        <ele>425.82</ele>
        <time>2009-10-28T09:25:45Z</time>
      </trkpt>
      <trkpt lat="48.45941" lon="6.88864">
        <ele>425.48</ele>
        <time>2009-10-28T09:25:49Z</time>
      </trkpt>
      <trkpt lat="48.45945" lon="6.88859">
        <ele>424.899</ele>
        <time>2009-10-28T09:25:50Z</time>
      </trkpt>
      <trkpt lat="48.45955" lon="6.88843">
        <ele>424.28</ele>
        <time>2009-10-28T09:25:53Z</time>
      </trkpt>
      <trkpt lat="48.45973" lon="6.88815">
        <ele>424.371</ele>
        <time>2009-10-28T09:25:59Z</time>
      </trkpt>
      <trkpt lat="48.45986" lon="6.88803">
        <ele>424.471</ele>
        <time>2009-10-28T09:26:03Z</time>
      </trkpt>
      <trkpt lat="48.46001" lon="6.88791">
        <ele>426.112</ele>
        <time>2009-10-28T09:26:07Z</time>
      </trkpt>
      <trkpt lat="48.4602" lon="6.88777">
        <ele>427.181</ele>
        <time>2009-10-28T09:26:12Z</time>
      </trkpt>
      <trkpt lat="48.46042" lon="6.8876">
        <ele>428.481</ele>
        <time>2009-10-28T09:26:18Z</time>
      </trkpt>
      <trkpt lat="48.46064" lon="6.88749">
        <ele>428.101</ele>
        <time>2009-10-28T09:26:23Z</time>
      </trkpt>
      <trkpt lat="48.46079" lon="6.88744">
        <ele>425.91</ele>
        <time>2009-10-28T09:26:26Z</time>
      </trkpt>
      <trkpt lat="48.46095" lon="6.88739">
        <ele>422.439</ele>
        <time>2009-10-28T09:26:29Z</time>
      </trkpt>
      <trkpt lat="48.46127" lon="6.88717">
        <ele>417.647</ele>
        <time>2009-10-28T09:26:35Z</time>
      </trkpt>
      <trkpt lat="48.46156" lon="6.88683">
        <ele>408.066</ele>
        <time>2009-10-28T09:26:40Z</time>
      </trkpt>
      <trkpt lat="48.46183" lon="6.88646">
        <ele>405.417</ele>
        <time>2009-10-28T09:26:45Z</time>
      </trkpt>
      <trkpt lat="48.46209" lon="6.88615">
        <ele>408.05</ele>
        <time>2009-10-28T09:26:50Z</time>
      </trkpt>
      <trkpt lat="48.4623" lon="6.88602">
        <ele>408.671</ele>
        <time>2009-10-28T09:26:55Z</time>
      </trkpt>
      <trkpt lat="48.46238" lon="6.886">
        <ele>409.832</ele>
        <time>2009-10-28T09:27:00Z</time>
      </trkpt>
      <trkpt lat="48.46239" lon="6.886">
        <ele>410.402</ele>
        <time>2009-10-28T09:27:02Z</time>
      </trkpt>
      <trkpt lat="48.46241" lon="6.88602">
        <ele>412.802</ele>
        <time>2009-10-28T09:27:19Z</time>
      </trkpt>
      <trkpt lat="48.46243" lon="6.88603">
        <ele>415.193</ele>
        <time>2009-10-28T09:27:23Z</time>
      </trkpt>
      <trkpt lat="48.46237" lon="6.88604">
        <ele>415.551</ele>
        <time>2009-10-28T09:31:52Z</time>
      </trkpt>
      <trkpt lat="48.46239" lon="6.88619">
        <ele>411.401</ele>
        <time>2009-10-28T09:31:58Z</time>
      </trkpt>
      <trkpt lat="48.46241" lon="6.88623">
        <ele>410.344</ele>
        <time>2009-10-28T09:32:02Z</time>
      </trkpt>
      <trkpt lat="48.46257" lon="6.88639">
        <ele>415.291</ele>
        <time>2009-10-28T09:32:31Z</time>
      </trkpt>
      <trkpt lat="48.46265" lon="6.88651">
        <ele>415.271</ele>
        <time>2009-10-28T09:32:35Z</time>
      </trkpt>
      <trkpt lat="48.46268" lon="6.88654">
        <ele>414.311</ele>
        <time>2009-10-28T09:32:36Z</time>
      </trkpt>
      <trkpt lat="48.46286" lon="6.88662">
        <ele>413.87</ele>
        <time>2009-10-28T09:32:42Z</time>
      </trkpt>
      <trkpt lat="48.46296" lon="6.88666">
        <ele>414.692</ele>
        <time>2009-10-28T09:32:46Z</time>
      </trkpt>
      <trkpt lat="48.46308" lon="6.88686">
        <ele>415.631</ele>
        <time>2009-10-28T09:32:52Z</time>
      </trkpt>
      <trkpt lat="48.46313" lon="6.887">
        <ele>413.661</ele>
        <time>2009-10-28T09:32:56Z</time>
      </trkpt>
      <trkpt lat="48.46323" lon="6.8872">
        <ele>413.741</ele>
        <time>2009-10-28T09:33:01Z</time>
      </trkpt>
      <trkpt lat="48.46337" lon="6.88746">
        <ele>413.011</ele>
        <time>2009-10-28T09:33:07Z</time>
      </trkpt>
      <trkpt lat="48.46346" lon="6.88762">
        <ele>411.541</ele>
        <time>2009-10-28T09:33:11Z</time>
      </trkpt>
      <trkpt lat="48.46356" lon="6.88789">
        <ele>409.381</ele>
        <time>2009-10-28T09:33:16Z</time>
      </trkpt>
      <trkpt lat="48.46365" lon="6.88817">
        <ele>408.451</ele>
        <time>2009-10-28T09:33:21Z</time>
      </trkpt>
      <trkpt lat="48.46367" lon="6.88838">
        <ele>408.001</ele>
        <time>2009-10-28T09:33:25Z</time>
      </trkpt>
      <trkpt lat="48.46376" lon="6.88861">
        <ele>408.461</ele>
        <time>2009-10-28T09:33:30Z</time>
      </trkpt>
      <trkpt lat="48.46389" lon="6.88891">
        <ele>408.731</ele>
        <time>2009-10-28T09:33:36Z</time>
      </trkpt>
      <trkpt lat="48.46397" lon="6.88919">
        <ele>409.922</ele>
        <time>2009-10-28T09:33:41Z</time>
      </trkpt>
      <trkpt lat="48.46407" lon="6.88937">
        <ele>411.362</ele>
        <time>2009-10-28T09:33:45Z</time>
      </trkpt>
      <trkpt lat="48.46423" lon="6.88959">
        <ele>413.753</ele>
        <time>2009-10-28T09:33:51Z</time>
      </trkpt>
      <trkpt lat="48.46436" lon="6.88976">
        <ele>417.082</ele>
        <time>2009-10-28T09:33:56Z</time>
      </trkpt>
      <trkpt lat="48.46453" lon="6.8899">
        <ele>419.273</ele>
        <time>2009-10-28T09:34:02Z</time>
      </trkpt>
      <trkpt lat="48.46452" lon="6.89002">
        <ele>419.652</ele>
        <time>2009-10-28T09:34:06Z</time>
      </trkpt>
      <trkpt lat="48.4645" lon="6.89011">
        <ele>419.551</ele>
        <time>2009-10-28T09:34:08Z</time>
      </trkpt>
      <trkpt lat="48.46446" lon="6.89023">
        <ele>419.732</ele>
        <time>2009-10-28T09:34:10Z</time>
      </trkpt>
      <trkpt lat="48.46439" lon="6.89065">
        <ele>418.291</ele>
        <time>2009-10-28T09:34:16Z</time>
      </trkpt>
      <trkpt lat="48.46434" lon="6.8908">
        <ele>417.351</ele>
        <time>2009-10-28T09:34:18Z</time>
      </trkpt>
      <trkpt lat="48.46418" lon="6.89107">
        <ele>414.089</ele>
        <time>2009-10-28T09:34:22Z</time>
      </trkpt>
      <trkpt lat="48.46401" lon="6.89128">
        <ele>410.579</ele>
        <time>2009-10-28T09:34:26Z</time>
      </trkpt>
      <trkpt lat="48.46398" lon="6.89146">
        <ele>408.72</ele>
        <time>2009-10-28T09:34:29Z</time>
      </trkpt>
      <trkpt lat="48.46401" lon="6.89154">
        <ele>407.47</ele>
        <time>2009-10-28T09:34:31Z</time>
      </trkpt>
      <trkpt lat="48.46418" lon="6.89178">
        <ele>408.493</ele>
        <time>2009-10-28T09:34:37Z</time>
      </trkpt>
      <trkpt lat="48.46425" lon="6.89186">
        <ele>409.733</ele>
        <time>2009-10-28T09:34:39Z</time>
      </trkpt>
      <trkpt lat="48.46433" lon="6.89208">
        <ele>410.193</ele>
        <time>2009-10-28T09:34:44Z</time>
      </trkpt>
      <trkpt lat="48.4645" lon="6.89225">
        <ele>410.282</ele>
        <time>2009-10-28T09:34:49Z</time>
      </trkpt>
      <trkpt lat="48.46464" lon="6.89236">
        <ele>410.732</ele>
        <time>2009-10-28T09:34:53Z</time>
      </trkpt>
      <trkpt lat="48.46467" lon="6.89255">
        <ele>411.722</ele>
        <time>2009-10-28T09:34:57Z</time>
      </trkpt>
      <trkpt lat="48.46464" lon="6.89276">
        <ele>412.522</ele>
        <time>2009-10-28T09:35:01Z</time>
      </trkpt>
      <trkpt lat="48.4647" lon="6.89284">
        <ele>412.582</ele>
        <time>2009-10-28T09:35:05Z</time>
      </trkpt>
      <trkpt lat="48.46485" lon="6.89299">
        <ele>411.742</ele>
        <time>2009-10-28T09:35:11Z</time>
      </trkpt>
      <trkpt lat="48.4649" lon="6.89303">
        <ele>410.171</ele>
        <time>2009-10-28T09:35:13Z</time>
      </trkpt>
      <trkpt lat="48.46511" lon="6.8929">
        <ele>403.749</ele>
        <time>2009-10-28T09:35:18Z</time>
      </trkpt>
      <trkpt lat="48.46536" lon="6.89252">
        <ele>398.377</ele>
        <time>2009-10-28T09:35:23Z</time>
      </trkpt>
      <trkpt lat="48.46553" lon="6.89231">
        <ele>395.658</ele>
        <time>2009-10-28T09:35:26Z</time>
      </trkpt>
      <trkpt lat="48.46561" lon="6.89217">
        <ele>393.209</ele>
        <time>2009-10-28T09:35:30Z</time>
      </trkpt>
      <trkpt lat="48.46563" lon="6.89217">
        <ele>392.049</ele>
        <time>2009-10-28T09:35:31Z</time>
      </trkpt>
      <trkpt lat="48.46577" lon="6.89216">
        <ele>388.978</ele>
        <time>2009-10-28T09:35:35Z</time>
      </trkpt>
      <trkpt lat="48.4659" lon="6.8921">
        <ele>391.861</ele>
        <time>2009-10-28T09:35:39Z</time>
      </trkpt>
      <trkpt lat="48.466" lon="6.89213">
        <ele>392.921</ele>
        <time>2009-10-28T09:35:42Z</time>
      </trkpt>
      <trkpt lat="48.46614" lon="6.89224">
        <ele>395.412</ele>
        <time>2009-10-28T09:35:46Z</time>
      </trkpt>
      <trkpt lat="48.46632" lon="6.89238">
        <ele>400.814</ele>
        <time>2009-10-28T09:35:51Z</time>
      </trkpt>
      <trkpt lat="48.46635" lon="6.8924">
        <ele>401.043</ele>
        <time>2009-10-28T09:35:52Z</time>
      </trkpt>
      <trkpt lat="48.46649" lon="6.89265">
        <ele>401.623</ele>
        <time>2009-10-28T09:35:59Z</time>
      </trkpt>
      <trkpt lat="48.46662" lon="6.8928">
        <ele>402.413</ele>
        <time>2009-10-28T09:36:04Z</time>
      </trkpt>
      <trkpt lat="48.46675" lon="6.89293">
        <ele>403.493</ele>
        <time>2009-10-28T09:36:09Z</time>
      </trkpt>
      <trkpt lat="48.46679" lon="6.89299">
        <ele>404.323</ele>
        <time>2009-10-28T09:36:11Z</time>
      </trkpt>
      <trkpt lat="48.46689" lon="6.89321">
        <ele>406.043</ele>
        <time>2009-10-28T09:36:17Z</time>
      </trkpt>
      <trkpt lat="48.46696" lon="6.89344">
        <ele>404.722</ele>
        <time>2009-10-28T09:36:22Z</time>
      </trkpt>
      <trkpt lat="48.46701" lon="6.89368">
        <ele>403.912</ele>
        <time>2009-10-28T09:36:27Z</time>
      </trkpt>
      <trkpt lat="48.46705" lon="6.89385">
        <ele>403.162</ele>
        <time>2009-10-28T09:36:31Z</time>
      </trkpt>
      <trkpt lat="48.46711" lon="6.89404">
        <ele>402.882</ele>
        <time>2009-10-28T09:36:35Z</time>
      </trkpt>
      <trkpt lat="48.46717" lon="6.89434">
        <ele>402.691</ele>
        <time>2009-10-28T09:36:40Z</time>
      </trkpt>
      <trkpt lat="48.46731" lon="6.89468">
        <ele>403.462</ele>
        <time>2009-10-28T09:36:47Z</time>
      </trkpt>
      <trkpt lat="48.46742" lon="6.89485">
        <ele>404.823</ele>
        <time>2009-10-28T09:36:52Z</time>
      </trkpt>
      <trkpt lat="48.46755" lon="6.89509">
        <ele>405.423</ele>
        <time>2009-10-28T09:36:58Z</time>
      </trkpt>
      <trkpt lat="48.46766" lon="6.89532">
        <ele>411.654</ele>
        <time>2009-10-28T09:37:03Z</time>
      </trkpt>
      <trkpt lat="48.46777" lon="6.89544">
        <ele>414.274</ele>
        <time>2009-10-28T09:37:07Z</time>
      </trkpt>
      <trkpt lat="48.46789" lon="6.89566">
        <ele>416.093</ele>
        <time>2009-10-28T09:37:12Z</time>
      </trkpt>
      <trkpt lat="48.46801" lon="6.89582">
        <ele>417.493</ele>
        <time>2009-10-28T09:37:17Z</time>
      </trkpt>
      <trkpt lat="48.46812" lon="6.89595">
        <ele>415.482</ele>
        <time>2009-10-28T09:37:21Z</time>
      </trkpt>
      <trkpt lat="48.46816" lon="6.8961">
        <ele>413.201</ele>
        <time>2009-10-28T09:37:25Z</time>
      </trkpt>
      <trkpt lat="48.4682" lon="6.89629">
        <ele>409.32</ele>
        <time>2009-10-28T09:37:29Z</time>
      </trkpt>
      <trkpt lat="48.46833" lon="6.89652">
        <ele>407.261</ele>
        <time>2009-10-28T09:37:35Z</time>
      </trkpt>
      <trkpt lat="48.46846" lon="6.89665">
        <ele>408.181</ele>
        <time>2009-10-28T09:37:38Z</time>
      </trkpt>
      <trkpt lat="48.46862" lon="6.89661">
        <ele>407.171</ele>
        <time>2009-10-28T09:37:42Z</time>
      </trkpt>
      <trkpt lat="48.4687" lon="6.89655">
        <ele>410.172</ele>
        <time>2009-10-28T09:37:45Z</time>
      </trkpt>
      <trkpt lat="48.46889" lon="6.8964">
        <ele>410.413</ele>
        <time>2009-10-28T09:37:51Z</time>
      </trkpt>
      <trkpt lat="48.46904" lon="6.89626">
        <ele>411.552</ele>
        <time>2009-10-28T09:37:57Z</time>
      </trkpt>
      <trkpt lat="48.4692" lon="6.89617">
        <ele>412.253</ele>
        <time>2009-10-28T09:38:02Z</time>
      </trkpt>
      <trkpt lat="48.46934" lon="6.89613">
        <ele>412.663</ele>
        <time>2009-10-28T09:38:06Z</time>
      </trkpt>
      <trkpt lat="48.46948" lon="6.89608">
        <ele>412.263</ele>
        <time>2009-10-28T09:38:10Z</time>
      </trkpt>
      <trkpt lat="48.46958" lon="6.89602">
        <ele>412.253</ele>
        <time>2009-10-28T09:38:14Z</time>
      </trkpt>
      <trkpt lat="48.46975" lon="6.89582">
        <ele>414.134</ele>
        <time>2009-10-28T09:38:21Z</time>
      </trkpt>
      <trkpt lat="48.46984" lon="6.89567">
        <ele>415.043</ele>
        <time>2009-10-28T09:38:26Z</time>
      </trkpt>
      <trkpt lat="48.46994" lon="6.89554">
        <ele>414.992</ele>
        <time>2009-10-28T09:38:32Z</time>
      </trkpt>
      <trkpt lat="48.47004" lon="6.89537">
        <ele>414.662</ele>
        <time>2009-10-28T09:38:37Z</time>
      </trkpt>
      <trkpt lat="48.47009" lon="6.89506">
        <ele>413.492</ele>
        <time>2009-10-28T09:38:43Z</time>
      </trkpt>
      <trkpt lat="48.47012" lon="6.89497">
        <ele>412.841</ele>
        <time>2009-10-28T09:38:45Z</time>
      </trkpt>
      <trkpt lat="48.4703" lon="6.89482">
        <ele>408.869</ele>
        <time>2009-10-28T09:38:50Z</time>
      </trkpt>
      <trkpt lat="48.47054" lon="6.89461">
        <ele>405.54</ele>
        <time>2009-10-28T09:38:56Z</time>
      </trkpt>
      <trkpt lat="48.4707" lon="6.89457">
        <ele>404.612</ele>
        <time>2009-10-28T09:39:00Z</time>
      </trkpt>
      <trkpt lat="48.47091" lon="6.89451">
        <ele>405.194</ele>
        <time>2009-10-28T09:39:06Z</time>
      </trkpt>
      <trkpt lat="48.47112" lon="6.8945">
        <ele>406.714</ele>
        <time>2009-10-28T09:39:12Z</time>
      </trkpt>
      <trkpt lat="48.47131" lon="6.89454">
        <ele>407.974</ele>
        <time>2009-10-28T09:39:18Z</time>
      </trkpt>
      <trkpt lat="48.47147" lon="6.89458">
        <ele>408.774</ele>
        <time>2009-10-28T09:39:23Z</time>
      </trkpt>
      <trkpt lat="48.47169" lon="6.89463">
        <ele>409.794</ele>
        <time>2009-10-28T09:39:30Z</time>
      </trkpt>
      <trkpt lat="48.47181" lon="6.89478">
        <ele>409.522</ele>
        <time>2009-10-28T09:39:36Z</time>
      </trkpt>
      <trkpt lat="48.47188" lon="6.89488">
        <ele>409.273</ele>
        <time>2009-10-28T09:39:41Z</time>
      </trkpt>
      <trkpt lat="48.47193" lon="6.89493">
        <ele>409.503</ele>
        <time>2009-10-28T09:39:44Z</time>
      </trkpt>
      <trkpt lat="48.47205" lon="6.89508">
        <ele>409.463</ele>
        <time>2009-10-28T09:39:49Z</time>
      </trkpt>
      <trkpt lat="48.47211" lon="6.89523">
        <ele>409.263</ele>
        <time>2009-10-28T09:39:54Z</time>
      </trkpt>
      <trkpt lat="48.47212" lon="6.89532">
        <ele>408.652</ele>
        <time>2009-10-28T09:39:56Z</time>
      </trkpt>
      <trkpt lat="48.47212" lon="6.89546">
        <ele>407.872</ele>
        <time>2009-10-28T09:39:58Z</time>
      </trkpt>
      <trkpt lat="48.47214" lon="6.89603">
        <ele>405.131</ele>
        <time>2009-10-28T09:40:04Z</time>
      </trkpt>
      <trkpt lat="48.4721" lon="6.89656">
        <ele>403.341</ele>
        <time>2009-10-28T09:40:09Z</time>
      </trkpt>
      <trkpt lat="48.47206" lon="6.89678">
        <ele>402.291</ele>
        <time>2009-10-28T09:40:11Z</time>
      </trkpt>
      <trkpt lat="48.47194" lon="6.89718">
        <ele>400.602</ele>
        <time>2009-10-28T09:40:16Z</time>
      </trkpt>
      <trkpt lat="48.4719" lon="6.89731">
        <ele>400.252</ele>
        <time>2009-10-28T09:40:18Z</time>
      </trkpt>
      <trkpt lat="48.47182" lon="6.89754">
        <ele>399.642</ele>
        <time>2009-10-28T09:40:22Z</time>
      </trkpt>
      <trkpt lat="48.47166" lon="6.89805">
        <ele>398.312</ele>
        <time>2009-10-28T09:40:30Z</time>
      </trkpt>
      <trkpt lat="48.4715" lon="6.89853">
        <ele>396.542</ele>
        <time>2009-10-28T09:40:36Z</time>
      </trkpt>
      <trkpt lat="48.47142" lon="6.89881">
        <ele>395.362</ele>
        <time>2009-10-28T09:40:39Z</time>
      </trkpt>
      <trkpt lat="48.47133" lon="6.89905">
        <ele>394.342</ele>
        <time>2009-10-28T09:40:43Z</time>
      </trkpt>
      <trkpt lat="48.47128" lon="6.89919">
        <ele>393.592</ele>
        <time>2009-10-28T09:40:46Z</time>
      </trkpt>
      <trkpt lat="48.47115" lon="6.89962">
        <ele>391.942</ele>
        <time>2009-10-28T09:40:53Z</time>
      </trkpt>
      <trkpt lat="48.47111" lon="6.89973">
        <ele>391.552</ele>
        <time>2009-10-28T09:40:55Z</time>
      </trkpt>
      <trkpt lat="48.47098" lon="6.89988">
        <ele>390.231</ele>
        <time>2009-10-28T09:40:59Z</time>
      </trkpt>
      <trkpt lat="48.47093" lon="6.89989">
        <ele>389.861</ele>
        <time>2009-10-28T09:41:00Z</time>
      </trkpt>
      <trkpt lat="48.47067" lon="6.89994">
        <ele>388.472</ele>
        <time>2009-10-28T09:41:06Z</time>
      </trkpt>
      <trkpt lat="48.47059" lon="6.90008">
        <ele>388.703</ele>
        <time>2009-10-28T09:41:10Z</time>
      </trkpt>
      <trkpt lat="48.47056" lon="6.90041">
        <ele>388.663</ele>
        <time>2009-10-28T09:41:16Z</time>
      </trkpt>
      <trkpt lat="48.47056" lon="6.90056">
        <ele>387.972</ele>
        <time>2009-10-28T09:41:19Z</time>
      </trkpt>
      <trkpt lat="48.4706" lon="6.90069">
        <ele>387.482</ele>
        <time>2009-10-28T09:41:23Z</time>
      </trkpt>
      <trkpt lat="48.47073" lon="6.90083">
        <ele>386.763</ele>
        <time>2009-10-28T09:41:29Z</time>
      </trkpt>
      <trkpt lat="48.47075" lon="6.90087">
        <ele>386.763</ele>
        <time>2009-10-28T09:41:30Z</time>
      </trkpt>
      <trkpt lat="48.4707" lon="6.90106">
        <ele>386.552</ele>
        <time>2009-10-28T09:41:34Z</time>
      </trkpt>
      <trkpt lat="48.47063" lon="6.90129">
        <ele>386.412</ele>
        <time>2009-10-28T09:41:39Z</time>
      </trkpt>
      <trkpt lat="48.47058" lon="6.90141">
        <ele>386.042</ele>
        <time>2009-10-28T09:41:46Z</time>
      </trkpt>
      <trkpt lat="48.47057" lon="6.90142">
        <ele>385.922</ele>
        <time>2009-10-28T09:41:47Z</time>
      </trkpt>
      <trkpt lat="48.47061" lon="6.90152">
        <ele>385.362</ele>
        <time>2009-10-28T09:41:53Z</time>
      </trkpt>
      <trkpt lat="48.47061" lon="6.90153">
        <ele>384.881</ele>
        <time>2009-10-28T09:41:56Z</time>
      </trkpt>
      <trkpt lat="48.47062" lon="6.90158">
        <ele>384.933</ele>
        <time>2009-10-28T09:42:00Z</time>
      </trkpt>
      <trkpt lat="48.47062" lon="6.90162">
        <ele>384.813</ele>
        <time>2009-10-28T09:42:02Z</time>
      </trkpt>
      <trkpt lat="48.4706" lon="6.90165">
        <ele>384.799</ele>
        <time>2009-10-28T09:42:08Z</time>
      </trkpt>
      <trkpt lat="48.47061" lon="6.9018">
        <ele>384.293</ele>
        <time>2009-10-28T09:44:12Z</time>
      </trkpt>
      <trkpt lat="48.47053" lon="6.90192">
        <ele>384.573</ele>
        <time>2009-10-28T09:44:16Z</time>
      </trkpt>
      <trkpt lat="48.47039" lon="6.90213">
        <ele>385.423</ele>
        <time>2009-10-28T09:44:22Z</time>
      </trkpt>
      <trkpt lat="48.47031" lon="6.90233">
        <ele>387.194</ele>
        <time>2009-10-28T09:44:27Z</time>
      </trkpt>
      <trkpt lat="48.47023" lon="6.90254">
        <ele>388.594</ele>
        <time>2009-10-28T09:44:33Z</time>
      </trkpt>
      <trkpt lat="48.47015" lon="6.90275">
        <ele>389.443</ele>
        <time>2009-10-28T09:44:39Z</time>
      </trkpt>
      <trkpt lat="48.47006" lon="6.90295">
        <ele>391.014</ele>
        <time>2009-10-28T09:44:45Z</time>
      </trkpt>
      <trkpt lat="48.46994" lon="6.90315">
        <ele>393.004</ele>
        <time>2009-10-28T09:44:51Z</time>
      </trkpt>
      <trkpt lat="48.46984" lon="6.90345">
        <ele>394.904</ele>
        <time>2009-10-28T09:44:57Z</time>
      </trkpt>
      <trkpt lat="48.46976" lon="6.90369">
        <ele>397.024</ele>
        <time>2009-10-28T09:45:02Z</time>
      </trkpt>
      <trkpt lat="48.46968" lon="6.90388">
        <ele>396.683</ele>
        <time>2009-10-28T09:45:07Z</time>
      </trkpt>
      <trkpt lat="48.46965" lon="6.90398">
        <ele>396.933</ele>
        <time>2009-10-28T09:45:09Z</time>
      </trkpt>
      <trkpt lat="48.46963" lon="6.90428">
        <ele>398.934</ele>
        <time>2009-10-28T09:45:15Z</time>
      </trkpt>
      <trkpt lat="48.46962" lon="6.90444">
        <ele>397.923</ele>
        <time>2009-10-28T09:45:18Z</time>
      </trkpt>
      <trkpt lat="48.46968" lon="6.90479">
        <ele>394.472</ele>
        <time>2009-10-28T09:45:24Z</time>
      </trkpt>
      <trkpt lat="48.46978" lon="6.90502">
        <ele>393.292</ele>
        <time>2009-10-28T09:45:29Z</time>
      </trkpt>
      <trkpt lat="48.46986" lon="6.90523">
        <ele>392.782</ele>
        <time>2009-10-28T09:45:34Z</time>
      </trkpt>
      <trkpt lat="48.46997" lon="6.90543">
        <ele>392.752</ele>
        <time>2009-10-28T09:45:39Z</time>
      </trkpt>
      <trkpt lat="48.47003" lon="6.9056">
        <ele>391.842</ele>
        <time>2009-10-28T09:45:43Z</time>
      </trkpt>
      <trkpt lat="48.47013" lon="6.90587">
        <ele>389.201</ele>
        <time>2009-10-28T09:45:49Z</time>
      </trkpt>
      <trkpt lat="48.4702" lon="6.90609">
        <ele>389.422</ele>
        <time>2009-10-28T09:45:54Z</time>
      </trkpt>
      <trkpt lat="48.47028" lon="6.90629">
        <ele>391.223</ele>
        <time>2009-10-28T09:45:59Z</time>
      </trkpt>
      <trkpt lat="48.47036" lon="6.90641">
        <ele>391.782</ele>
        <time>2009-10-28T09:46:03Z</time>
      </trkpt>
      <trkpt lat="48.47037" lon="6.90645">
        <ele>392.713</ele>
        <time>2009-10-28T09:46:05Z</time>
      </trkpt>
      <trkpt lat="48.47039" lon="6.90641">
        <ele>398.353</ele>
        <time>2009-10-28T09:46:09Z</time>
      </trkpt>
      <trkpt lat="48.47029" lon="6.9064">
        <ele>400.903</ele>
        <time>2009-10-28T09:46:13Z</time>
      </trkpt>
      <trkpt lat="48.47015" lon="6.90646">
        <ele>401.483</ele>
        <time>2009-10-28T09:46:17Z</time>
      </trkpt>
      <trkpt lat="48.47011" lon="6.90647">
        <ele>401.743</ele>
        <time>2009-10-28T09:46:18Z</time>
      </trkpt>
      <trkpt lat="48.46992" lon="6.90648">
        <ele>400.392</ele>
        <time>2009-10-28T09:46:22Z</time>
      </trkpt>
      <trkpt lat="48.46976" lon="6.90633">
        <ele>397.662</ele>
        <time>2009-10-28T09:46:26Z</time>
      </trkpt>
      <trkpt lat="48.46967" lon="6.90612">
        <ele>395.411</ele>
        <time>2009-10-28T09:46:29Z</time>
      </trkpt>
      <trkpt lat="48.46961" lon="6.90594">
        <ele>394.821</ele>
        <time>2009-10-28T09:46:31Z</time>
      </trkpt>
      <trkpt lat="48.46937" lon="6.90568">
        <ele>393.272</ele>
        <time>2009-10-28T09:46:36Z</time>
      </trkpt>
      <trkpt lat="48.46927" lon="6.90561">
        <ele>392.661</ele>
        <time>2009-10-28T09:46:38Z</time>
      </trkpt>
      <trkpt lat="48.46917" lon="6.90546">
        <ele>391.471</ele>
        <time>2009-10-28T09:46:43Z</time>
      </trkpt>
      <trkpt lat="48.4691" lon="6.90546">
        <ele>391.373</ele>
        <time>2009-10-28T09:46:47Z</time>
      </trkpt>
      <trkpt lat="48.46904" lon="6.90553">
        <ele>392.594</ele>
        <time>2009-10-28T09:46:52Z</time>
      </trkpt>
      <trkpt lat="48.46901" lon="6.90558">
        <ele>392.813</ele>
        <time>2009-10-28T09:46:54Z</time>
      </trkpt>
      <trkpt lat="48.469" lon="6.90562">
        <ele>393.257</ele>
        <time>2009-10-28T09:46:57Z</time>
      </trkpt>
      <trkpt lat="48.46898" lon="6.90564">
        <ele>393.434</ele>
        <time>2009-10-28T09:47:02Z</time>
      </trkpt>
      <trkpt lat="48.46892" lon="6.90566">
        <ele>393.774</ele>
        <time>2009-10-28T09:47:06Z</time>
      </trkpt>
      <trkpt lat="48.46882" lon="6.9057">
        <ele>395.683</ele>
        <time>2009-10-28T09:47:13Z</time>
      </trkpt>
      <trkpt lat="48.46872" lon="6.90574">
        <ele>398.184</ele>
        <time>2009-10-28T09:47:20Z</time>
      </trkpt>
      <trkpt lat="48.46863" lon="6.90579">
        <ele>399.204</ele>
        <time>2009-10-28T09:47:25Z</time>
      </trkpt>
      <trkpt lat="48.46855" lon="6.90587">
        <ele>401.164</ele>
        <time>2009-10-28T09:47:30Z</time>
      </trkpt>
      <trkpt lat="48.46844" lon="6.90596">
        <ele>403.264</ele>
        <time>2009-10-28T09:47:36Z</time>
      </trkpt>
      <trkpt lat="48.46832" lon="6.90615">
        <ele>406.163</ele>
        <time>2009-10-28T09:47:42Z</time>
      </trkpt>
      <trkpt lat="48.46831" lon="6.90623">
        <ele>404.882</ele>
        <time>2009-10-28T09:47:46Z</time>
      </trkpt>
      <trkpt lat="48.46823" lon="6.90635">
        <ele>405.482</ele>
        <time>2009-10-28T09:47:52Z</time>
      </trkpt>
      <trkpt lat="48.46813" lon="6.90642">
        <ele>405.812</ele>
        <time>2009-10-28T09:47:57Z</time>
      </trkpt>
      <trkpt lat="48.468" lon="6.9065">
        <ele>405.813</ele>
        <time>2009-10-28T09:48:02Z</time>
      </trkpt>
      <trkpt lat="48.46786" lon="6.90664">
        <ele>407.853</ele>
        <time>2009-10-28T09:48:08Z</time>
      </trkpt>
      <trkpt lat="48.46773" lon="6.90678">
        <ele>410.304</ele>
        <time>2009-10-28T09:48:13Z</time>
      </trkpt>
      <trkpt lat="48.46761" lon="6.90691">
        <ele>412.323</ele>
        <time>2009-10-28T09:48:18Z</time>
      </trkpt>
      <trkpt lat="48.46754" lon="6.9071">
        <ele>414.293</ele>
        <time>2009-10-28T09:48:24Z</time>
      </trkpt>
      <trkpt lat="48.46748" lon="6.90721">
        <ele>415.103</ele>
        <time>2009-10-28T09:48:28Z</time>
      </trkpt>
      <trkpt lat="48.46739" lon="6.90739">
        <ele>416.223</ele>
        <time>2009-10-28T09:48:33Z</time>
      </trkpt>
      <trkpt lat="48.46729" lon="6.90762">
        <ele>417.193</ele>
        <time>2009-10-28T09:48:39Z</time>
      </trkpt>
      <trkpt lat="48.4672" lon="6.90784">
        <ele>417.012</ele>
        <time>2009-10-28T09:48:45Z</time>
      </trkpt>
      <trkpt lat="48.46712" lon="6.90808">
        <ele>418.193</ele>
        <time>2009-10-28T09:48:51Z</time>
      </trkpt>
      <trkpt lat="48.46708" lon="6.90834">
        <ele>419.383</ele>
        <time>2009-10-28T09:48:57Z</time>
      </trkpt>
      <trkpt lat="48.46711" lon="6.90852">
        <ele>417.631</ele>
        <time>2009-10-28T09:49:02Z</time>
      </trkpt>
      <trkpt lat="48.46714" lon="6.90877">
        <ele>417.002</ele>
        <time>2009-10-28T09:49:08Z</time>
      </trkpt>
      <trkpt lat="48.46714" lon="6.90904">
        <ele>416.942</ele>
        <time>2009-10-28T09:49:14Z</time>
      </trkpt>
      <trkpt lat="48.46711" lon="6.90937">
        <ele>418.022</ele>
        <time>2009-10-28T09:49:21Z</time>
      </trkpt>
      <trkpt lat="48.4671" lon="6.90967">
        <ele>418.092</ele>
        <time>2009-10-28T09:49:27Z</time>
      </trkpt>
      <trkpt lat="48.46718" lon="6.9101">
        <ele>418.552</ele>
        <time>2009-10-28T09:49:36Z</time>
      </trkpt>
      <trkpt lat="48.46729" lon="6.91038">
        <ele>418.303</ele>
        <time>2009-10-28T09:49:43Z</time>
      </trkpt>
      <trkpt lat="48.46747" lon="6.91064">
        <ele>418.312</ele>
        <time>2009-10-28T09:49:50Z</time>
      </trkpt>
      <trkpt lat="48.4676" lon="6.9108">
        <ele>418.262</ele>
        <time>2009-10-28T09:49:54Z</time>
      </trkpt>
      <trkpt lat="48.46797" lon="6.9111">
        <ele>419.363</ele>
        <time>2009-10-28T09:50:04Z</time>
      </trkpt>
      <trkpt lat="48.46815" lon="6.91134">
        <ele>419.374</ele>
        <time>2009-10-28T09:50:10Z</time>
      </trkpt>
      <trkpt lat="48.4684" lon="6.91167">
        <ele>419.093</ele>
        <time>2009-10-28T09:50:17Z</time>
      </trkpt>
      <trkpt lat="48.46843" lon="6.91172">
        <ele>418.822</ele>
        <time>2009-10-28T09:50:18Z</time>
      </trkpt>
      <trkpt lat="48.46848" lon="6.91192">
        <ele>417.652</ele>
        <time>2009-10-28T09:50:21Z</time>
      </trkpt>
      <trkpt lat="48.46852" lon="6.91217">
        <ele>416.861</ele>
        <time>2009-10-28T09:50:25Z</time>
      </trkpt>
      <trkpt lat="48.46851" lon="6.91228">
        <ele>416.521</ele>
        <time>2009-10-28T09:50:27Z</time>
      </trkpt>
      <trkpt lat="48.46849" lon="6.91241">
        <ele>415.487</ele>
        <time>2009-10-28T09:50:29Z</time>
      </trkpt>
      <trkpt lat="48.4685" lon="6.9126">
        <ele>417.579</ele>
        <time>2009-10-28T09:50:31Z</time>
      </trkpt>
      <trkpt lat="48.46833" lon="6.91296">
        <ele>416.517</ele>
        <time>2009-10-28T09:50:36Z</time>
      </trkpt>
      <trkpt lat="48.46821" lon="6.91295">
        <ele>415.763</ele>
        <time>2009-10-28T09:50:38Z</time>
      </trkpt>
      <trkpt lat="48.46803" lon="6.91285">
        <ele>412.046</ele>
        <time>2009-10-28T09:50:42Z</time>
      </trkpt>
      <trkpt lat="48.4678" lon="6.91274">
        <ele>408.546</ele>
        <time>2009-10-28T09:50:46Z</time>
      </trkpt>
      <trkpt lat="48.46755" lon="6.9127">
        <ele>403.688</ele>
        <time>2009-10-28T09:50:51Z</time>
      </trkpt>
      <trkpt lat="48.46734" lon="6.91277">
        <ele>400.083</ele>
        <time>2009-10-28T09:50:55Z</time>
      </trkpt>
      <trkpt lat="48.46712" lon="6.91286">
        <ele>398.732</ele>
        <time>2009-10-28T09:50:59Z</time>
      </trkpt>
      <trkpt lat="48.46695" lon="6.91292">
        <ele>398.212</ele>
        <time>2009-10-28T09:51:04Z</time>
      </trkpt>
      <trkpt lat="48.46663" lon="6.913">
        <ele>397.752</ele>
        <time>2009-10-28T09:51:11Z</time>
      </trkpt>
      <trkpt lat="48.46617" lon="6.91314">
        <ele>397.353</ele>
        <time>2009-10-28T09:51:21Z</time>
      </trkpt>
      <trkpt lat="48.46592" lon="6.91329">
        <ele>397.082</ele>
        <time>2009-10-28T09:51:27Z</time>
      </trkpt>
      <trkpt lat="48.46577" lon="6.91342">
        <ele>397.013</ele>
        <time>2009-10-28T09:51:31Z</time>
      </trkpt>
      <trkpt lat="48.46571" lon="6.9135">
        <ele>396.832</ele>
        <time>2009-10-28T09:51:33Z</time>
      </trkpt>
      <trkpt lat="48.46561" lon="6.91371">
        <ele>396.661</ele>
        <time>2009-10-28T09:51:37Z</time>
      </trkpt>
      <trkpt lat="48.46557" lon="6.91384">
        <ele>396.592</ele>
        <time>2009-10-28T09:51:39Z</time>
      </trkpt>
      <trkpt lat="48.46548" lon="6.91437">
        <ele>396.562</ele>
        <time>2009-10-28T09:51:47Z</time>
      </trkpt>
      <trkpt lat="48.46545" lon="6.9149">
        <ele>395.965</ele>
        <time>2009-10-28T09:51:55Z</time>
      </trkpt>
      <trkpt lat="48.46543" lon="6.91517">
        <ele>395.226</ele>
        <time>2009-10-28T09:51:59Z</time>
      </trkpt>
      <trkpt lat="48.46544" lon="6.91539">
        <ele>393.731</ele>
        <time>2009-10-28T09:52:02Z</time>
      </trkpt>
      <trkpt lat="48.4655" lon="6.91565">
        <ele>391.829</ele>
        <time>2009-10-28T09:52:06Z</time>
      </trkpt>
      <trkpt lat="48.46562" lon="6.91588">
        <ele>392.961</ele>
        <time>2009-10-28T09:52:10Z</time>
      </trkpt>
      <trkpt lat="48.46578" lon="6.91606">
        <ele>395.034</ele>
        <time>2009-10-28T09:52:15Z</time>
      </trkpt>
      <trkpt lat="48.46599" lon="6.91612">
        <ele>395.083</ele>
        <time>2009-10-28T09:52:20Z</time>
      </trkpt>
      <trkpt lat="48.46613" lon="6.91608">
        <ele>396.124</ele>
        <time>2009-10-28T09:52:24Z</time>
      </trkpt>
      <trkpt lat="48.46626" lon="6.9159">
        <ele>397.446</ele>
        <time>2009-10-28T09:52:28Z</time>
      </trkpt>
      <trkpt lat="48.46648" lon="6.91556">
        <ele>399.489</ele>
        <time>2009-10-28T09:52:35Z</time>
      </trkpt>
      <trkpt lat="48.46663" lon="6.91537">
        <ele>401.48</ele>
        <time>2009-10-28T09:52:40Z</time>
      </trkpt>
      <trkpt lat="48.46671" lon="6.91523">
        <ele>403.18</ele>
        <time>2009-10-28T09:52:43Z</time>
      </trkpt>
      <trkpt lat="48.46694" lon="6.91494">
        <ele>404.907</ele>
        <time>2009-10-28T09:52:50Z</time>
      </trkpt>
      <trkpt lat="48.46712" lon="6.9146">
        <ele>404.101</ele>
        <time>2009-10-28T09:52:57Z</time>
      </trkpt>
      <trkpt lat="48.46728" lon="6.91439">
        <ele>402.899</ele>
        <time>2009-10-28T09:53:02Z</time>
      </trkpt>
      <trkpt lat="48.4675" lon="6.9143">
        <ele>402.282</ele>
        <time>2009-10-28T09:53:07Z</time>
      </trkpt>
      <trkpt lat="48.46755" lon="6.9143">
        <ele>402.905</ele>
        <time>2009-10-28T09:53:08Z</time>
      </trkpt>
      <trkpt lat="48.46791" lon="6.91418">
        <ele>402.783</ele>
        <time>2009-10-28T09:53:15Z</time>
      </trkpt>
      <trkpt lat="48.46796" lon="6.91416">
        <ele>402.413</ele>
        <time>2009-10-28T09:53:16Z</time>
      </trkpt>
      <trkpt lat="48.46821" lon="6.91403">
        <ele>403.736</ele>
        <time>2009-10-28T09:53:22Z</time>
      </trkpt>
      <trkpt lat="48.46835" lon="6.914">
        <ele>406.879</ele>
        <time>2009-10-28T09:53:27Z</time>
      </trkpt>
      <trkpt lat="48.46851" lon="6.91397">
        <ele>409.556</ele>
        <time>2009-10-28T09:53:33Z</time>
      </trkpt>
      <trkpt lat="48.46861" lon="6.91394">
        <ele>412.529</ele>
        <time>2009-10-28T09:53:38Z</time>
      </trkpt>
      <trkpt lat="48.46874" lon="6.91388">
        <ele>413.664</ele>
        <time>2009-10-28T09:53:44Z</time>
      </trkpt>
      <trkpt lat="48.46887" lon="6.91386">
        <ele>415.097</ele>
        <time>2009-10-28T09:53:50Z</time>
      </trkpt>
      <trkpt lat="48.46901" lon="6.91393">
        <ele>420.104</ele>
        <time>2009-10-28T09:53:56Z</time>
      </trkpt>
      <trkpt lat="48.46916" lon="6.91405">
        <ele>423.079</ele>
        <time>2009-10-28T09:54:04Z</time>
      </trkpt>
      <trkpt lat="48.46929" lon="6.91421">
        <ele>424.799</ele>
        <time>2009-10-28T09:54:12Z</time>
      </trkpt>
      <trkpt lat="48.46937" lon="6.91431">
        <ele>425.845</ele>
        <time>2009-10-28T09:54:18Z</time>
      </trkpt>
      <trkpt lat="48.46947" lon="6.91438">
        <ele>427.599</ele>
        <time>2009-10-28T09:54:25Z</time>
      </trkpt>
      <trkpt lat="48.46956" lon="6.91444">
        <ele>431.358</ele>
        <time>2009-10-28T09:54:32Z</time>
      </trkpt>
      <trkpt lat="48.46965" lon="6.9145">
        <ele>430.536</ele>
        <time>2009-10-28T09:54:38Z</time>
      </trkpt>
      <trkpt lat="48.46968" lon="6.9145">
        <ele>430.015</ele>
        <time>2009-10-28T09:54:40Z</time>
      </trkpt>
      <trkpt lat="48.46976" lon="6.91448">
        <ele>429.334</ele>
        <time>2009-10-28T09:54:47Z</time>
      </trkpt>
      <trkpt lat="48.46978" lon="6.91443">
        <ele>428.782</ele>
        <time>2009-10-28T09:54:49Z</time>
      </trkpt>
      <trkpt lat="48.46988" lon="6.91427">
        <ele>427.911</ele>
        <time>2009-10-28T09:54:55Z</time>
      </trkpt>
      <trkpt lat="48.4699" lon="6.91423">
        <ele>428.162</ele>
        <time>2009-10-28T09:54:56Z</time>
      </trkpt>
      <trkpt lat="48.4699" lon="6.91395">
        <ele>428.681</ele>
        <time>2009-10-28T09:55:02Z</time>
      </trkpt>
      <trkpt lat="48.4699" lon="6.91372">
        <ele>431.347</ele>
        <time>2009-10-28T09:55:06Z</time>
      </trkpt>
      <trkpt lat="48.46989" lon="6.91349">
        <ele>435.115</ele>
        <time>2009-10-28T09:55:10Z</time>
      </trkpt>
      <trkpt lat="48.46986" lon="6.91327">
        <ele>437.592</ele>
        <time>2009-10-28T09:55:15Z</time>
      </trkpt>
      <trkpt lat="48.46981" lon="6.91308">
        <ele>442.564</ele>
        <time>2009-10-28T09:55:20Z</time>
      </trkpt>
      <trkpt lat="48.46978" lon="6.91288">
        <ele>445.35</ele>
        <time>2009-10-28T09:55:25Z</time>
      </trkpt>
      <trkpt lat="48.46972" lon="6.91267">
        <ele>445.913</ele>
        <time>2009-10-28T09:55:31Z</time>
      </trkpt>
      <trkpt lat="48.46966" lon="6.91257">
        <ele>446.951</ele>
        <time>2009-10-28T09:55:35Z</time>
      </trkpt>
      <trkpt lat="48.46966" lon="6.91254">
        <ele>447.514</ele>
        <time>2009-10-28T09:55:36Z</time>
      </trkpt>
      <trkpt lat="48.46966" lon="6.91243">
        <ele>449.956</ele>
        <time>2009-10-28T09:55:39Z</time>
      </trkpt>
      <trkpt lat="48.46966" lon="6.9123">
        <ele>452.884</ele>
        <time>2009-10-28T09:55:43Z</time>
      </trkpt>
      <trkpt lat="48.46968" lon="6.91212">
        <ele>453.017</ele>
        <time>2009-10-28T09:55:49Z</time>
      </trkpt>
      <trkpt lat="48.46969" lon="6.91199">
        <ele>448.196</ele>
        <time>2009-10-28T09:55:53Z</time>
      </trkpt>
      <trkpt lat="48.46969" lon="6.91195">
        <ele>446.774</ele>
        <time>2009-10-28T09:55:54Z</time>
      </trkpt>
      <trkpt lat="48.46973" lon="6.91171">
        <ele>442.466</ele>
        <time>2009-10-28T09:55:59Z</time>
      </trkpt>
      <trkpt lat="48.46973" lon="6.91167">
        <ele>442.116</ele>
        <time>2009-10-28T09:56:00Z</time>
      </trkpt>
      <trkpt lat="48.4698" lon="6.91147">
        <ele>439.867</ele>
        <time>2009-10-28T09:56:05Z</time>
      </trkpt>
      <trkpt lat="48.46982" lon="6.91133">
        <ele>438.877</ele>
        <time>2009-10-28T09:56:08Z</time>
      </trkpt>
      <trkpt lat="48.4698" lon="6.91123">
        <ele>438.839</ele>
        <time>2009-10-28T09:56:10Z</time>
      </trkpt>
      <trkpt lat="48.46986" lon="6.91107">
        <ele>438.794</ele>
        <time>2009-10-28T09:56:14Z</time>
      </trkpt>
      <trkpt lat="48.46992" lon="6.91084">
        <ele>437.26</ele>
        <time>2009-10-28T09:56:18Z</time>
      </trkpt>
      <trkpt lat="48.46998" lon="6.91052">
        <ele>436.163</ele>
        <time>2009-10-28T09:56:23Z</time>
      </trkpt>
      <trkpt lat="48.47002" lon="6.91041">
        <ele>435.52</ele>
        <time>2009-10-28T09:56:25Z</time>
      </trkpt>
      <trkpt lat="48.47013" lon="6.91022">
        <ele>433.497</ele>
        <time>2009-10-28T09:56:29Z</time>
      </trkpt>
      <trkpt lat="48.47025" lon="6.91016">
        <ele>433.622</ele>
        <time>2009-10-28T09:56:33Z</time>
      </trkpt>
      <trkpt lat="48.47035" lon="6.91006">
        <ele>433.04</ele>
        <time>2009-10-28T09:56:35Z</time>
      </trkpt>
      <trkpt lat="48.47056" lon="6.90987">
        <ele>429.441</ele>
        <time>2009-10-28T09:56:39Z</time>
      </trkpt>
      <trkpt lat="48.47077" lon="6.90984">
        <ele>426.248</ele>
        <time>2009-10-28T09:56:44Z</time>
      </trkpt>
      <trkpt lat="48.47093" lon="6.90994">
        <ele>424.043</ele>
        <time>2009-10-28T09:56:48Z</time>
      </trkpt>
      <trkpt lat="48.47096" lon="6.90993">
        <ele>423.952</ele>
        <time>2009-10-28T09:56:49Z</time>
      </trkpt>
      <trkpt lat="48.47104" lon="6.90989">
        <ele>423.614</ele>
        <time>2009-10-28T09:56:52Z</time>
      </trkpt>
      <trkpt lat="48.47113" lon="6.90973">
        <ele>424.512</ele>
        <time>2009-10-28T09:56:57Z</time>
      </trkpt>
      <trkpt lat="48.47122" lon="6.90966">
        <ele>423.496</ele>
        <time>2009-10-28T09:57:00Z</time>
      </trkpt>
      <trkpt lat="48.47138" lon="6.90971">
        <ele>422.825</ele>
        <time>2009-10-28T09:57:04Z</time>
      </trkpt>
      <trkpt lat="48.47155" lon="6.90965">
        <ele>421.742</ele>
        <time>2009-10-28T09:57:08Z</time>
      </trkpt>
      <trkpt lat="48.47168" lon="6.90959">
        <ele>421.002</ele>
        <time>2009-10-28T09:57:11Z</time>
      </trkpt>
      <trkpt lat="48.47197" lon="6.90962">
        <ele>417.056</ele>
        <time>2009-10-28T09:57:15Z</time>
      </trkpt>
      <trkpt lat="48.47208" lon="6.90977">
        <ele>415.985</ele>
        <time>2009-10-28T09:57:17Z</time>
      </trkpt>
      <trkpt lat="48.47218" lon="6.90992">
        <ele>414.308</ele>
        <time>2009-10-28T09:57:19Z</time>
      </trkpt>
      <trkpt lat="48.47229" lon="6.91004">
        <ele>413.49</ele>
        <time>2009-10-28T09:57:21Z</time>
      </trkpt>
      <trkpt lat="48.47241" lon="6.91013">
        <ele>412.201</ele>
        <time>2009-10-28T09:57:23Z</time>
      </trkpt>
      <trkpt lat="48.47271" lon="6.91017">
        <ele>411.107</ele>
        <time>2009-10-28T09:57:28Z</time>
      </trkpt>
      <trkpt lat="48.473" lon="6.90997">
        <ele>410.018</ele>
        <time>2009-10-28T09:57:33Z</time>
      </trkpt>
      <trkpt lat="48.47329" lon="6.90988">
        <ele>410.374</ele>
        <time>2009-10-28T09:57:38Z</time>
      </trkpt>
      <trkpt lat="48.47335" lon="6.90985">
        <ele>410.894</ele>
        <time>2009-10-28T09:57:39Z</time>
      </trkpt>
      <trkpt lat="48.47364" lon="6.90983">
        <ele>410.565</ele>
        <time>2009-10-28T09:57:44Z</time>
      </trkpt>
      <trkpt lat="48.47383" lon="6.90999">
        <ele>409.882</ele>
        <time>2009-10-28T09:57:48Z</time>
      </trkpt>
      <trkpt lat="48.47402" lon="6.91024">
        <ele>408.319</ele>
        <time>2009-10-28T09:57:54Z</time>
      </trkpt>
      <trkpt lat="48.47409" lon="6.91028">
        <ele>408.699</ele>
        <time>2009-10-28T09:57:57Z</time>
      </trkpt>
      <trkpt lat="48.47415" lon="6.9102">
        <ele>407.052</ele>
        <time>2009-10-28T09:58:02Z</time>
      </trkpt>
      <trkpt lat="48.47427" lon="6.91">
        <ele>407.943</ele>
        <time>2009-10-28T09:58:09Z</time>
      </trkpt>
      <trkpt lat="48.47429" lon="6.90976">
        <ele>408.242</ele>
        <time>2009-10-28T09:58:14Z</time>
      </trkpt>
      <trkpt lat="48.47427" lon="6.90965">
        <ele>408.222</ele>
        <time>2009-10-28T09:58:16Z</time>
      </trkpt>
      <trkpt lat="48.47426" lon="6.90944">
        <ele>407.342</ele>
        <time>2009-10-28T09:58:19Z</time>
      </trkpt>
      <trkpt lat="48.47419" lon="6.90888">
        <ele>404.972</ele>
        <time>2009-10-28T09:58:25Z</time>
      </trkpt>
      <trkpt lat="48.47406" lon="6.90825">
        <ele>401.231</ele>
        <time>2009-10-28T09:58:31Z</time>
      </trkpt>
      <trkpt lat="48.47404" lon="6.90816">
        <ele>401.542</ele>
        <time>2009-10-28T09:58:32Z</time>
      </trkpt>
      <trkpt lat="48.474" lon="6.90779">
        <ele>401.392</ele>
        <time>2009-10-28T09:58:38Z</time>
      </trkpt>
      <trkpt lat="48.47396" lon="6.90751">
        <ele>402.733</ele>
        <time>2009-10-28T09:58:44Z</time>
      </trkpt>
      <trkpt lat="48.47395" lon="6.90739">
        <ele>403.873</ele>
        <time>2009-10-28T09:58:46Z</time>
      </trkpt>
      <trkpt lat="48.47394" lon="6.907">
        <ele>401.833</ele>
        <time>2009-10-28T09:58:52Z</time>
      </trkpt>
      <trkpt lat="48.47405" lon="6.90683">
        <ele>403.643</ele>
        <time>2009-10-28T09:58:56Z</time>
      </trkpt>
      <trkpt lat="48.47421" lon="6.90668">
        <ele>402.633</ele>
        <time>2009-10-28T09:59:01Z</time>
      </trkpt>
      <trkpt lat="48.4744" lon="6.90643">
        <ele>402.133</ele>
        <time>2009-10-28T09:59:07Z</time>
      </trkpt>
      <trkpt lat="48.47449" lon="6.90627">
        <ele>403.164</ele>
        <time>2009-10-28T09:59:10Z</time>
      </trkpt>
      <trkpt lat="48.47465" lon="6.90619">
        <ele>401.732</ele>
        <time>2009-10-28T09:59:14Z</time>
      </trkpt>
      <trkpt lat="48.4747" lon="6.90621">
        <ele>401.582</ele>
        <time>2009-10-28T09:59:15Z</time>
      </trkpt>
      <trkpt lat="48.47493" lon="6.90645">
        <ele>400.714</ele>
        <time>2009-10-28T09:59:22Z</time>
      </trkpt>
      <trkpt lat="48.47513" lon="6.90664">
        <ele>400.104</ele>
        <time>2009-10-28T09:59:29Z</time>
      </trkpt>
      <trkpt lat="48.47539" lon="6.90681">
        <ele>400.403</ele>
        <time>2009-10-28T09:59:37Z</time>
      </trkpt>
      <trkpt lat="48.47561" lon="6.90692">
        <ele>401.254</ele>
        <time>2009-10-28T09:59:44Z</time>
      </trkpt>
      <trkpt lat="48.47584" lon="6.90702">
        <ele>404.414</ele>
        <time>2009-10-28T09:59:51Z</time>
      </trkpt>
      <trkpt lat="48.47601" lon="6.90704">
        <ele>406.424</ele>
        <time>2009-10-28T09:59:57Z</time>
      </trkpt>
      <trkpt lat="48.47613" lon="6.907">
        <ele>406.974</ele>
        <time>2009-10-28T10:00:02Z</time>
      </trkpt>
      <trkpt lat="48.47624" lon="6.90693">
        <ele>407.684</ele>
        <time>2009-10-28T10:00:07Z</time>
      </trkpt>
      <trkpt lat="48.47637" lon="6.90674">
        <ele>408.793</ele>
        <time>2009-10-28T10:00:14Z</time>
      </trkpt>
      <trkpt lat="48.47643" lon="6.90654">
        <ele>410.414</ele>
        <time>2009-10-28T10:00:20Z</time>
      </trkpt>
      <trkpt lat="48.47646" lon="6.90649">
        <ele>412.934</ele>
        <time>2009-10-28T10:00:25Z</time>
      </trkpt>
      <trkpt lat="48.47646" lon="6.90649">
        <ele>413.945</ele>
        <time>2009-10-28T10:00:26Z</time>
      </trkpt>
      <trkpt lat="48.47662" lon="6.90665">
        <ele>417.572</ele>
        <time>2009-10-28T10:00:51Z</time>
      </trkpt>
      <trkpt lat="48.47665" lon="6.90667">
        <ele>417.063</ele>
        <time>2009-10-28T10:00:52Z</time>
      </trkpt>
      <trkpt lat="48.47678" lon="6.90676">
        <ele>412.801</ele>
        <time>2009-10-28T10:00:57Z</time>
      </trkpt>
      <trkpt lat="48.47689" lon="6.90662">
        <ele>408.801</ele>
        <time>2009-10-28T10:01:01Z</time>
      </trkpt>
      <trkpt lat="48.47702" lon="6.90648">
        <ele>401.949</ele>
        <time>2009-10-28T10:01:06Z</time>
      </trkpt>
      <trkpt lat="48.47707" lon="6.90645">
        <ele>399.639</ele>
        <time>2009-10-28T10:01:08Z</time>
      </trkpt>
      <trkpt lat="48.47718" lon="6.90618">
        <ele>396.761</ele>
        <time>2009-10-28T10:01:13Z</time>
      </trkpt>
      <trkpt lat="48.4772" lon="6.90612">
        <ele>396.201</ele>
        <time>2009-10-28T10:01:14Z</time>
      </trkpt>
      <trkpt lat="48.47731" lon="6.90591">
        <ele>393.712</ele>
        <time>2009-10-28T10:01:19Z</time>
      </trkpt>
      <trkpt lat="48.47737" lon="6.90575">
        <ele>392.561</ele>
        <time>2009-10-28T10:01:22Z</time>
      </trkpt>
      <trkpt lat="48.47753" lon="6.90538">
        <ele>397.144</ele>
        <time>2009-10-28T10:01:28Z</time>
      </trkpt>
      <trkpt lat="48.47757" lon="6.90494">
        <ele>397.834</ele>
        <time>2009-10-28T10:01:34Z</time>
      </trkpt>
      <trkpt lat="48.47754" lon="6.90474">
        <ele>399.665</ele>
        <time>2009-10-28T10:01:37Z</time>
      </trkpt>
      <trkpt lat="48.47745" lon="6.90437">
        <ele>399.374</ele>
        <time>2009-10-28T10:01:43Z</time>
      </trkpt>
      <trkpt lat="48.47734" lon="6.90392">
        <ele>397.794</ele>
        <time>2009-10-28T10:01:49Z</time>
      </trkpt>
      <trkpt lat="48.47729" lon="6.90367">
        <ele>397.534</ele>
        <time>2009-10-28T10:01:52Z</time>
      </trkpt>
      <trkpt lat="48.47726" lon="6.90324">
        <ele>394.063</ele>
        <time>2009-10-28T10:01:57Z</time>
      </trkpt>
      <trkpt lat="48.47724" lon="6.90306">
        <ele>392.953</ele>
        <time>2009-10-28T10:01:59Z</time>
      </trkpt>
      <trkpt lat="48.47732" lon="6.90282">
        <ele>392.253</ele>
        <time>2009-10-28T10:02:02Z</time>
      </trkpt>
      <trkpt lat="48.47725" lon="6.90261">
        <ele>393.924</ele>
        <time>2009-10-28T10:02:07Z</time>
      </trkpt>
      <trkpt lat="48.47718" lon="6.90237">
        <ele>394.203</ele>
        <time>2009-10-28T10:02:11Z</time>
      </trkpt>
      <trkpt lat="48.47708" lon="6.90209">
        <ele>394.025</ele>
        <time>2009-10-28T10:02:16Z</time>
      </trkpt>
      <trkpt lat="48.47707" lon="6.90204">
        <ele>393.895</ele>
        <time>2009-10-28T10:02:17Z</time>
      </trkpt>
      <trkpt lat="48.47717" lon="6.9019">
        <ele>396.955</ele>
        <time>2009-10-28T10:02:21Z</time>
      </trkpt>
      <trkpt lat="48.47727" lon="6.90181">
        <ele>397.635</ele>
        <time>2009-10-28T10:02:24Z</time>
      </trkpt>
      <trkpt lat="48.47738" lon="6.90169">
        <ele>397.834</ele>
        <time>2009-10-28T10:02:29Z</time>
      </trkpt>
      <trkpt lat="48.47754" lon="6.9017">
        <ele>399.434</ele>
        <time>2009-10-28T10:02:34Z</time>
      </trkpt>
      <trkpt lat="48.4777" lon="6.9018">
        <ele>398.904</ele>
        <time>2009-10-28T10:02:39Z</time>
      </trkpt>
      <trkpt lat="48.47798" lon="6.90191">
        <ele>399.754</ele>
        <time>2009-10-28T10:02:47Z</time>
      </trkpt>
      <trkpt lat="48.47814" lon="6.90197">
        <ele>397.694</ele>
        <time>2009-10-28T10:02:52Z</time>
      </trkpt>
      <trkpt lat="48.47829" lon="6.90198">
        <ele>396.434</ele>
        <time>2009-10-28T10:02:57Z</time>
      </trkpt>
      <trkpt lat="48.4784" lon="6.90195">
        <ele>395.864</ele>
        <time>2009-10-28T10:03:01Z</time>
      </trkpt>
      <trkpt lat="48.47857" lon="6.90192">
        <ele>396.184</ele>
        <time>2009-10-28T10:03:06Z</time>
      </trkpt>
      <trkpt lat="48.47873" lon="6.90188">
        <ele>394.243</ele>
        <time>2009-10-28T10:03:11Z</time>
      </trkpt>
      <trkpt lat="48.47876" lon="6.90188">
        <ele>393.943</ele>
        <time>2009-10-28T10:03:12Z</time>
      </trkpt>
      <trkpt lat="48.479" lon="6.90183">
        <ele>392.293</ele>
        <time>2009-10-28T10:03:18Z</time>
      </trkpt>
      <trkpt lat="48.47919" lon="6.90181">
        <ele>392.484</ele>
        <time>2009-10-28T10:03:24Z</time>
      </trkpt>
      <trkpt lat="48.47933" lon="6.90179">
        <ele>392.953</ele>
        <time>2009-10-28T10:03:29Z</time>
      </trkpt>
      <trkpt lat="48.4795" lon="6.90178">
        <ele>394.884</ele>
        <time>2009-10-28T10:03:34Z</time>
      </trkpt>
      <trkpt lat="48.47971" lon="6.90187">
        <ele>396.945</ele>
        <time>2009-10-28T10:03:39Z</time>
      </trkpt>
      <trkpt lat="48.47975" lon="6.9019">
        <ele>397.305</ele>
        <time>2009-10-28T10:03:40Z</time>
      </trkpt>
      <trkpt lat="48.47995" lon="6.90216">
        <ele>397.294</ele>
        <time>2009-10-28T10:03:47Z</time>
      </trkpt>
      <trkpt lat="48.4801" lon="6.90243">
        <ele>400.375</ele>
        <time>2009-10-28T10:03:53Z</time>
      </trkpt>
      <trkpt lat="48.48013" lon="6.90248">
        <ele>402.806</ele>
        <time>2009-10-28T10:03:54Z</time>
      </trkpt>
      <trkpt lat="48.48019" lon="6.90275">
        <ele>407.657</ele>
        <time>2009-10-28T10:03:59Z</time>
      </trkpt>
      <trkpt lat="48.48023" lon="6.90302">
        <ele>408.585</ele>
        <time>2009-10-28T10:04:04Z</time>
      </trkpt>
      <trkpt lat="48.48036" lon="6.90333">
        <ele>411.146</ele>
        <time>2009-10-28T10:04:10Z</time>
      </trkpt>
      <trkpt lat="48.48046" lon="6.90358">
        <ele>412.105</ele>
        <time>2009-10-28T10:04:15Z</time>
      </trkpt>
      <trkpt lat="48.48052" lon="6.90377">
        <ele>410.894</ele>
        <time>2009-10-28T10:04:19Z</time>
      </trkpt>
      <trkpt lat="48.48061" lon="6.90397">
        <ele>411.284</ele>
        <time>2009-10-28T10:04:24Z</time>
      </trkpt>
      <trkpt lat="48.4807" lon="6.90416">
        <ele>412.605</ele>
        <time>2009-10-28T10:04:29Z</time>
      </trkpt>
      <trkpt lat="48.48085" lon="6.90433">
        <ele>412.064</ele>
        <time>2009-10-28T10:04:36Z</time>
      </trkpt>
      <trkpt lat="48.48099" lon="6.90444">
        <ele>412.775</ele>
        <time>2009-10-28T10:04:42Z</time>
      </trkpt>
      <trkpt lat="48.48113" lon="6.90453">
        <ele>416.917</ele>
        <time>2009-10-28T10:04:47Z</time>
      </trkpt>
      <trkpt lat="48.48125" lon="6.9046">
        <ele>423.148</ele>
        <time>2009-10-28T10:04:52Z</time>
      </trkpt>
      <trkpt lat="48.48127" lon="6.9046">
        <ele>424.198</ele>
        <time>2009-10-28T10:04:53Z</time>
      </trkpt>
      <trkpt lat="48.48139" lon="6.90457">
        <ele>425.257</ele>
        <time>2009-10-28T10:04:58Z</time>
      </trkpt>
      <trkpt lat="48.48146" lon="6.9047">
        <ele>423.945</ele>
        <time>2009-10-28T10:05:03Z</time>
      </trkpt>
      <trkpt lat="48.4815" lon="6.90483">
        <ele>422.845</ele>
        <time>2009-10-28T10:05:07Z</time>
      </trkpt>
      <trkpt lat="48.48149" lon="6.90485">
        <ele>421.948</ele>
        <time>2009-10-28T10:05:09Z</time>
      </trkpt>
      <trkpt lat="48.48149" lon="6.905">
        <ele>417.324</ele>
        <time>2009-10-28T10:05:23Z</time>
      </trkpt>
      <trkpt lat="48.4815" lon="6.90505">
        <ele>416.974</ele>
        <time>2009-10-28T10:05:24Z</time>
      </trkpt>
      <trkpt lat="48.48151" lon="6.90518">
        <ele>415.714</ele>
        <time>2009-10-28T10:05:26Z</time>
      </trkpt>
      <trkpt lat="48.48149" lon="6.9054">
        <ele>414.394</ele>
        <time>2009-10-28T10:05:29Z</time>
      </trkpt>
      <trkpt lat="48.48145" lon="6.90567">
        <ele>412.123</ele>
        <time>2009-10-28T10:05:33Z</time>
      </trkpt>
      <trkpt lat="48.48141" lon="6.90611">
        <ele>412.335</ele>
        <time>2009-10-28T10:05:40Z</time>
      </trkpt>
      <trkpt lat="48.48142" lon="6.90625">
        <ele>412.185</ele>
        <time>2009-10-28T10:05:42Z</time>
      </trkpt>
      <trkpt lat="48.48144" lon="6.90661">
        <ele>411.615</ele>
        <time>2009-10-28T10:05:48Z</time>
      </trkpt>
      <trkpt lat="48.48149" lon="6.90675">
        <ele>412.325</ele>
        <time>2009-10-28T10:05:51Z</time>
      </trkpt>
      <trkpt lat="48.48158" lon="6.90698">
        <ele>409.633</ele>
        <time>2009-10-28T10:05:55Z</time>
      </trkpt>
      <trkpt lat="48.48163" lon="6.90707">
        <ele>407.953</ele>
        <time>2009-10-28T10:05:57Z</time>
      </trkpt>
      <trkpt lat="48.4818" lon="6.90715">
        <ele>405.812</ele>
        <time>2009-10-28T10:06:01Z</time>
      </trkpt>
      <trkpt lat="48.48194" lon="6.90708">
        <ele>407.764</ele>
        <time>2009-10-28T10:06:04Z</time>
      </trkpt>
      <trkpt lat="48.48207" lon="6.90694">
        <ele>409.154</ele>
        <time>2009-10-28T10:06:07Z</time>
      </trkpt>
      <trkpt lat="48.48215" lon="6.90661">
        <ele>407.804</ele>
        <time>2009-10-28T10:06:12Z</time>
      </trkpt>
      <trkpt lat="48.48219" lon="6.90643">
        <ele>407.213</ele>
        <time>2009-10-28T10:06:14Z</time>
      </trkpt>
      <trkpt lat="48.48224" lon="6.90626">
        <ele>405.953</ele>
        <time>2009-10-28T10:06:16Z</time>
      </trkpt>
      <trkpt lat="48.48235" lon="6.90597">
        <ele>406.404</ele>
        <time>2009-10-28T10:06:20Z</time>
      </trkpt>
      <trkpt lat="48.48246" lon="6.90594">
        <ele>405.324</ele>
        <time>2009-10-28T10:06:23Z</time>
      </trkpt>
      <trkpt lat="48.48251" lon="6.90595">
        <ele>404.094</ele>
        <time>2009-10-28T10:06:25Z</time>
      </trkpt>
      <trkpt lat="48.48258" lon="6.90601">
        <ele>402.183</ele>
        <time>2009-10-28T10:06:28Z</time>
      </trkpt>
      <trkpt lat="48.48265" lon="6.90594">
        <ele>402.234</ele>
        <time>2009-10-28T10:06:33Z</time>
      </trkpt>
      <trkpt lat="48.48279" lon="6.90572">
        <ele>402.184</ele>
        <time>2009-10-28T10:06:39Z</time>
      </trkpt>
      <trkpt lat="48.48283" lon="6.90565">
        <ele>404.556</ele>
        <time>2009-10-28T10:06:41Z</time>
      </trkpt>
      <trkpt lat="48.48294" lon="6.90565">
        <ele>406.366</ele>
        <time>2009-10-28T10:06:45Z</time>
      </trkpt>
      <trkpt lat="48.48297" lon="6.90567">
        <ele>406.776</ele>
        <time>2009-10-28T10:06:46Z</time>
      </trkpt>
      <trkpt lat="48.48314" lon="6.90582">
        <ele>410.536</ele>
        <time>2009-10-28T10:06:52Z</time>
      </trkpt>
      <trkpt lat="48.48317" lon="6.90585">
        <ele>410.415</ele>
        <time>2009-10-28T10:06:56Z</time>
      </trkpt>
      <trkpt lat="48.4832" lon="6.90594">
        <ele>410.696</ele>
        <time>2009-10-28T10:07:26Z</time>
      </trkpt>
      <trkpt lat="48.48327" lon="6.90604">
        <ele>412.836</ele>
        <time>2009-10-28T10:07:29Z</time>
      </trkpt>
      <trkpt lat="48.48333" lon="6.90608">
        <ele>416.87</ele>
        <time>2009-10-28T10:07:32Z</time>
      </trkpt>
      <trkpt lat="48.48346" lon="6.90628">
        <ele>425.695</ele>
        <time>2009-10-28T10:07:59Z</time>
      </trkpt>
      <trkpt lat="48.4836" lon="6.90652">
        <ele>418.823</ele>
        <time>2009-10-28T10:08:06Z</time>
      </trkpt>
      <trkpt lat="48.48371" lon="6.90668">
        <ele>415.743</ele>
        <time>2009-10-28T10:08:11Z</time>
      </trkpt>
      <trkpt lat="48.48383" lon="6.90691">
        <ele>410.681</ele>
        <time>2009-10-28T10:08:17Z</time>
      </trkpt>
      <trkpt lat="48.48397" lon="6.90713">
        <ele>409.602</ele>
        <time>2009-10-28T10:08:23Z</time>
      </trkpt>
      <trkpt lat="48.48409" lon="6.90732">
        <ele>410.863</ele>
        <time>2009-10-28T10:08:28Z</time>
      </trkpt>
      <trkpt lat="48.4842" lon="6.90752">
        <ele>413.624</ele>
        <time>2009-10-28T10:08:33Z</time>
      </trkpt>
      <trkpt lat="48.48429" lon="6.90778">
        <ele>416.315</ele>
        <time>2009-10-28T10:08:38Z</time>
      </trkpt>
      <trkpt lat="48.48443" lon="6.90807">
        <ele>419.976</ele>
        <time>2009-10-28T10:08:44Z</time>
      </trkpt>
      <trkpt lat="48.48452" lon="6.90825">
        <ele>422.666</ele>
        <time>2009-10-28T10:08:48Z</time>
      </trkpt>
      <trkpt lat="48.48465" lon="6.90858">
        <ele>417.723</ele>
        <time>2009-10-28T10:08:55Z</time>
      </trkpt>
      <trkpt lat="48.48471" lon="6.90881">
        <ele>414.953</ele>
        <time>2009-10-28T10:09:00Z</time>
      </trkpt>
      <trkpt lat="48.48479" lon="6.90909">
        <ele>416.553</ele>
        <time>2009-10-28T10:09:06Z</time>
      </trkpt>
      <trkpt lat="48.48481" lon="6.90921">
        <ele>417.954</ele>
        <time>2009-10-28T10:09:09Z</time>
      </trkpt>
      <trkpt lat="48.48473" lon="6.90926">
        <ele>417.864</ele>
        <time>2009-10-28T10:09:14Z</time>
      </trkpt>
      <trkpt lat="48.48471" lon="6.90924">
        <ele>417.854</ele>
        <time>2009-10-28T10:09:15Z</time>
      </trkpt>
      <trkpt lat="48.4846" lon="6.90915">
        <ele>416.334</ele>
        <time>2009-10-28T10:09:18Z</time>
      </trkpt>
      <trkpt lat="48.48438" lon="6.90901">
        <ele>415.344</ele>
        <time>2009-10-28T10:09:23Z</time>
      </trkpt>
      <trkpt lat="48.48423" lon="6.90893">
        <ele>414.084</ele>
        <time>2009-10-28T10:09:27Z</time>
      </trkpt>
      <trkpt lat="48.48409" lon="6.90891">
        <ele>411.894</ele>
        <time>2009-10-28T10:09:30Z</time>
      </trkpt>
      <trkpt lat="48.48392" lon="6.90897">
        <ele>412.505</ele>
        <time>2009-10-28T10:09:34Z</time>
      </trkpt>
      <trkpt lat="48.4839" lon="6.909">
        <ele>412.565</ele>
        <time>2009-10-28T10:09:35Z</time>
      </trkpt>
      <trkpt lat="48.48373" lon="6.90917">
        <ele>413.146</ele>
        <time>2009-10-28T10:09:40Z</time>
      </trkpt>
      <trkpt lat="48.48376" lon="6.90913">
        <ele>415.647</ele>
        <time>2009-10-28T10:09:42Z</time>
      </trkpt>
      <trkpt lat="48.48385" lon="6.90897">
        <ele>416.385</ele>
        <time>2009-10-28T10:09:47Z</time>
      </trkpt>
      <trkpt lat="48.48389" lon="6.90892">
        <ele>413.423</ele>
        <time>2009-10-28T10:09:50Z</time>
      </trkpt>
      <trkpt lat="48.48405" lon="6.90892">
        <ele>409.102</ele>
        <time>2009-10-28T10:09:56Z</time>
      </trkpt>
      <trkpt lat="48.48413" lon="6.90893">
        <ele>407.902</ele>
        <time>2009-10-28T10:09:59Z</time>
      </trkpt>
      <trkpt lat="48.48431" lon="6.90901">
        <ele>406.333</ele>
        <time>2009-10-28T10:10:06Z</time>
      </trkpt>
      <trkpt lat="48.48444" lon="6.9091">
        <ele>407.793</ele>
        <time>2009-10-28T10:10:11Z</time>
      </trkpt>
      <trkpt lat="48.48457" lon="6.90921">
        <ele>411.715</ele>
        <time>2009-10-28T10:10:16Z</time>
      </trkpt>
      <trkpt lat="48.48469" lon="6.90927">
        <ele>414.905</ele>
        <time>2009-10-28T10:10:21Z</time>
      </trkpt>
      <trkpt lat="48.48481" lon="6.90932">
        <ele>414.394</ele>
        <time>2009-10-28T10:10:26Z</time>
      </trkpt>
      <trkpt lat="48.48492" lon="6.90941">
        <ele>417.555</ele>
        <time>2009-10-28T10:10:32Z</time>
      </trkpt>
      <trkpt lat="48.48506" lon="6.90945">
        <ele>418.895</ele>
        <time>2009-10-28T10:10:39Z</time>
      </trkpt>
      <trkpt lat="48.48517" lon="6.90947">
        <ele>418.845</ele>
        <time>2009-10-28T10:10:45Z</time>
      </trkpt>
      <trkpt lat="48.48528" lon="6.90946">
        <ele>417.825</ele>
        <time>2009-10-28T10:10:52Z</time>
      </trkpt>
      <trkpt lat="48.48542" lon="6.90942">
        <ele>416.953</ele>
        <time>2009-10-28T10:11:00Z</time>
      </trkpt>
      <trkpt lat="48.48554" lon="6.90932">
        <ele>418.843</ele>
        <time>2009-10-28T10:11:06Z</time>
      </trkpt>
      <trkpt lat="48.48571" lon="6.90921">
        <ele>421.384</ele>
        <time>2009-10-28T10:11:14Z</time>
      </trkpt>
      <trkpt lat="48.48575" lon="6.90912">
        <ele>425.344</ele>
        <time>2009-10-28T10:11:20Z</time>
      </trkpt>
      <trkpt lat="48.48585" lon="6.90902">
        <ele>426.694</ele>
        <time>2009-10-28T10:11:26Z</time>
      </trkpt>
      <trkpt lat="48.48589" lon="6.90891">
        <ele>424.724</ele>
        <time>2009-10-28T10:11:30Z</time>
      </trkpt>
      <trkpt lat="48.48593" lon="6.90887">
        <ele>424.884</ele>
        <time>2009-10-28T10:11:32Z</time>
      </trkpt>
      <trkpt lat="48.48609" lon="6.9088">
        <ele>423.044</ele>
        <time>2009-10-28T10:11:39Z</time>
      </trkpt>
      <trkpt lat="48.48624" lon="6.90882">
        <ele>421.294</ele>
        <time>2009-10-28T10:11:46Z</time>
      </trkpt>
      <trkpt lat="48.48639" lon="6.90889">
        <ele>419.334</ele>
        <time>2009-10-28T10:11:53Z</time>
      </trkpt>
      <trkpt lat="48.48645" lon="6.90891">
        <ele>419.245</ele>
        <time>2009-10-28T10:11:57Z</time>
      </trkpt>
      <trkpt lat="48.48651" lon="6.90892">
        <ele>422.095</ele>
        <time>2009-10-28T10:12:10Z</time>
      </trkpt>
      <trkpt lat="48.48647" lon="6.90891">
        <ele>425.666</ele>
        <time>2009-10-28T10:12:14Z</time>
      </trkpt>
      <trkpt lat="48.48634" lon="6.90884">
        <ele>429.627</ele>
        <time>2009-10-28T10:12:20Z</time>
      </trkpt>
      <trkpt lat="48.48615" lon="6.9088">
        <ele>433.516</ele>
        <time>2009-10-28T10:12:28Z</time>
      </trkpt>
      <trkpt lat="48.48614" lon="6.90868">
        <ele>431.275</ele>
        <time>2009-10-28T10:12:33Z</time>
      </trkpt>
      <trkpt lat="48.48618" lon="6.90859">
        <ele>429.955</ele>
        <time>2009-10-28T10:12:36Z</time>
      </trkpt>
      <trkpt lat="48.48631" lon="6.90837">
        <ele>432.355</ele>
        <time>2009-10-28T10:12:44Z</time>
      </trkpt>
      <trkpt lat="48.48642" lon="6.90822">
        <ele>434.795</ele>
        <time>2009-10-28T10:12:50Z</time>
      </trkpt>
      <trkpt lat="48.48643" lon="6.90806">
        <ele>436.977</ele>
        <time>2009-10-28T10:12:55Z</time>
      </trkpt>
      <trkpt lat="48.48646" lon="6.90781">
        <ele>436.736</ele>
        <time>2009-10-28T10:13:01Z</time>
      </trkpt>
      <trkpt lat="48.48647" lon="6.90772">
        <ele>435.565</ele>
        <time>2009-10-28T10:13:03Z</time>
      </trkpt>
      <trkpt lat="48.48644" lon="6.90745">
        <ele>437.036</ele>
        <time>2009-10-28T10:13:10Z</time>
      </trkpt>
      <trkpt lat="48.48641" lon="6.90728">
        <ele>436.066</ele>
        <time>2009-10-28T10:13:15Z</time>
      </trkpt>
      <trkpt lat="48.48638" lon="6.907">
        <ele>436.996</ele>
        <time>2009-10-28T10:13:22Z</time>
      </trkpt>
      <trkpt lat="48.48636" lon="6.90678">
        <ele>436.455</ele>
        <time>2009-10-28T10:13:28Z</time>
      </trkpt>
      <trkpt lat="48.48635" lon="6.9067">
        <ele>434.484</ele>
        <time>2009-10-28T10:13:30Z</time>
      </trkpt>
      <trkpt lat="48.48645" lon="6.90666">
        <ele>429.443</ele>
        <time>2009-10-28T10:13:35Z</time>
      </trkpt>
      <trkpt lat="48.4866" lon="6.90657">
        <ele>425.243</ele>
        <time>2009-10-28T10:13:40Z</time>
      </trkpt>
      <trkpt lat="48.48674" lon="6.90648">
        <ele>421.652</ele>
        <time>2009-10-28T10:13:45Z</time>
      </trkpt>
      <trkpt lat="48.48689" lon="6.90631">
        <ele>414.831</ele>
        <time>2009-10-28T10:13:51Z</time>
      </trkpt>
      <trkpt lat="48.48704" lon="6.9062">
        <ele>412.468</ele>
        <time>2009-10-28T10:13:55Z</time>
      </trkpt>
      <trkpt lat="48.48715" lon="6.90607">
        <ele>406.531</ele>
        <time>2009-10-28T10:14:00Z</time>
      </trkpt>
      <trkpt lat="48.48716" lon="6.90605">
        <ele>403.703</ele>
        <time>2009-10-28T10:14:05Z</time>
      </trkpt>
      <trkpt lat="48.4871" lon="6.9059">
        <ele>404.456</ele>
        <time>2009-10-28T10:14:25Z</time>
      </trkpt>
      <trkpt lat="48.48709" lon="6.9059">
        <ele>404.239</ele>
        <time>2009-10-28T10:14:27Z</time>
      </trkpt>
      <trkpt lat="48.48703" lon="6.90585">
        <ele>402.386</ele>
        <time>2009-10-28T10:14:59Z</time>
      </trkpt>
      <trkpt lat="48.48694" lon="6.90561">
        <ele>404.187</ele>
        <time>2009-10-28T10:15:04Z</time>
      </trkpt>
      <trkpt lat="48.48683" lon="6.90529">
        <ele>406.197</ele>
        <time>2009-10-28T10:15:10Z</time>
      </trkpt>
      <trkpt lat="48.48674" lon="6.90505">
        <ele>407.488</ele>
        <time>2009-10-28T10:15:15Z</time>
      </trkpt>
      <trkpt lat="48.48661" lon="6.90469">
        <ele>409.197</ele>
        <time>2009-10-28T10:15:22Z</time>
      </trkpt>
      <trkpt lat="48.48653" lon="6.9043">
        <ele>407.947</ele>
        <time>2009-10-28T10:15:29Z</time>
      </trkpt>
      <trkpt lat="48.48649" lon="6.90393">
        <ele>407.466</ele>
        <time>2009-10-28T10:15:36Z</time>
      </trkpt>
      <trkpt lat="48.48646" lon="6.9036">
        <ele>405.405</ele>
        <time>2009-10-28T10:15:43Z</time>
      </trkpt>
      <trkpt lat="48.48646" lon="6.90336">
        <ele>404.365</ele>
        <time>2009-10-28T10:15:48Z</time>
      </trkpt>
      <trkpt lat="48.48651" lon="6.90297">
        <ele>406.707</ele>
        <time>2009-10-28T10:15:55Z</time>
      </trkpt>
      <trkpt lat="48.4866" lon="6.90261">
        <ele>406.436</ele>
        <time>2009-10-28T10:16:02Z</time>
      </trkpt>
      <trkpt lat="48.48666" lon="6.9024">
        <ele>402.704</ele>
        <time>2009-10-28T10:16:07Z</time>
      </trkpt>
      <trkpt lat="48.48674" lon="6.90223">
        <ele>400.534</ele>
        <time>2009-10-28T10:16:12Z</time>
      </trkpt>
      <trkpt lat="48.48681" lon="6.9021">
        <ele>402.044</ele>
        <time>2009-10-28T10:16:17Z</time>
      </trkpt>
      <trkpt lat="48.48685" lon="6.90192">
        <ele>400.994</ele>
        <time>2009-10-28T10:16:22Z</time>
      </trkpt>
      <trkpt lat="48.48684" lon="6.90188">
        <ele>400.814</ele>
        <time>2009-10-28T10:16:23Z</time>
      </trkpt>
      <trkpt lat="48.48688" lon="6.90159">
        <ele>402.325</ele>
        <time>2009-10-28T10:16:30Z</time>
      </trkpt>
      <trkpt lat="48.48683" lon="6.90128">
        <ele>403.957</ele>
        <time>2009-10-28T10:16:37Z</time>
      </trkpt>
      <trkpt lat="48.48677" lon="6.90108">
        <ele>408.027</ele>
        <time>2009-10-28T10:16:43Z</time>
      </trkpt>
      <trkpt lat="48.48672" lon="6.9009">
        <ele>409.578</ele>
        <time>2009-10-28T10:16:48Z</time>
      </trkpt>
      <trkpt lat="48.48671" lon="6.90074">
        <ele>406.956</ele>
        <time>2009-10-28T10:16:53Z</time>
      </trkpt>
      <trkpt lat="48.48669" lon="6.90053">
        <ele>406.306</ele>
        <time>2009-10-28T10:16:58Z</time>
      </trkpt>
      <trkpt lat="48.48666" lon="6.90019">
        <ele>406.806</ele>
        <time>2009-10-28T10:17:06Z</time>
      </trkpt>
      <trkpt lat="48.48664" lon="6.89995">
        <ele>406.466</ele>
        <time>2009-10-28T10:17:12Z</time>
      </trkpt>
      <trkpt lat="48.48667" lon="6.89974">
        <ele>404.235</ele>
        <time>2009-10-28T10:17:17Z</time>
      </trkpt>
      <trkpt lat="48.48682" lon="6.89938">
        <ele>403.175</ele>
        <time>2009-10-28T10:17:24Z</time>
      </trkpt>
      <trkpt lat="48.48693" lon="6.89916">
        <ele>401.995</ele>
        <time>2009-10-28T10:17:29Z</time>
      </trkpt>
      <trkpt lat="48.487" lon="6.89892">
        <ele>400.445</ele>
        <time>2009-10-28T10:17:34Z</time>
      </trkpt>
      <trkpt lat="48.487" lon="6.89889">
        <ele>400.085</ele>
        <time>2009-10-28T10:17:35Z</time>
      </trkpt>
      <trkpt lat="48.48713" lon="6.89868">
        <ele>398.133</ele>
        <time>2009-10-28T10:17:41Z</time>
      </trkpt>
      <trkpt lat="48.4873" lon="6.89846">
        <ele>395.994</ele>
        <time>2009-10-28T10:17:46Z</time>
      </trkpt>
      <trkpt lat="48.48736" lon="6.89837">
        <ele>394.654</ele>
        <time>2009-10-28T10:17:48Z</time>
      </trkpt>
      <trkpt lat="48.4876" lon="6.89812">
        <ele>393.354</ele>
        <time>2009-10-28T10:17:54Z</time>
      </trkpt>
      <trkpt lat="48.48786" lon="6.89786">
        <ele>394.355</ele>
        <time>2009-10-28T10:18:00Z</time>
      </trkpt>
      <trkpt lat="48.48813" lon="6.89754">
        <ele>390.213</ele>
        <time>2009-10-28T10:18:06Z</time>
      </trkpt>
      <trkpt lat="48.48844" lon="6.89716">
        <ele>386.063</ele>
        <time>2009-10-28T10:18:11Z</time>
      </trkpt>
      <trkpt lat="48.48878" lon="6.8967">
        <ele>379.5</ele>
        <time>2009-10-28T10:18:16Z</time>
      </trkpt>
      <trkpt lat="48.48903" lon="6.8963">
        <ele>375.261</ele>
        <time>2009-10-28T10:18:20Z</time>
      </trkpt>
      <trkpt lat="48.48911" lon="6.89611">
        <ele>373.931</ele>
        <time>2009-10-28T10:18:22Z</time>
      </trkpt>
      <trkpt lat="48.4893" lon="6.89595">
        <ele>367.97</ele>
        <time>2009-10-28T10:18:26Z</time>
      </trkpt>
      <trkpt lat="48.48942" lon="6.896">
        <ele>365.89</ele>
        <time>2009-10-28T10:18:28Z</time>
      </trkpt>
      <trkpt lat="48.48986" lon="6.89617">
        <ele>363.713</ele>
        <time>2009-10-28T10:18:35Z</time>
      </trkpt>
      <trkpt lat="48.49022" lon="6.89629">
        <ele>362.323</ele>
        <time>2009-10-28T10:18:40Z</time>
      </trkpt>
      <trkpt lat="48.49054" lon="6.89655">
        <ele>362.325</ele>
        <time>2009-10-28T10:18:45Z</time>
      </trkpt>
      <trkpt lat="48.49069" lon="6.89676">
        <ele>362.086</ele>
        <time>2009-10-28T10:18:49Z</time>
      </trkpt>
      <trkpt lat="48.4907" lon="6.89676">
        <ele>362.642</ele>
        <time>2009-10-28T10:18:52Z</time>
      </trkpt>
      <trkpt lat="48.49074" lon="6.89683">
        <ele>363.125</ele>
        <time>2009-10-28T10:18:56Z</time>
      </trkpt>
      <trkpt lat="48.49088" lon="6.897">
        <ele>362.805</ele>
        <time>2009-10-28T10:19:00Z</time>
      </trkpt>
      <trkpt lat="48.49093" lon="6.89706">
        <ele>363.144</ele>
        <time>2009-10-28T10:19:01Z</time>
      </trkpt>
      <trkpt lat="48.49127" lon="6.89745">
        <ele>362.455</ele>
        <time>2009-10-28T10:19:08Z</time>
      </trkpt>
      <trkpt lat="48.4916" lon="6.89775">
        <ele>358.594</ele>
        <time>2009-10-28T10:19:13Z</time>
      </trkpt>
      <trkpt lat="48.49201" lon="6.89809">
        <ele>349.271</ele>
        <time>2009-10-28T10:19:18Z</time>
      </trkpt>
      <trkpt lat="48.49236" lon="6.89845">
        <ele>345.652</ele>
        <time>2009-10-28T10:19:22Z</time>
      </trkpt>
      <trkpt lat="48.49243" lon="6.89853">
        <ele>344.102</ele>
        <time>2009-10-28T10:19:23Z</time>
      </trkpt>
      <trkpt lat="48.49285" lon="6.89879">
        <ele>338.692</ele>
        <time>2009-10-28T10:19:28Z</time>
      </trkpt>
      <trkpt lat="48.4931" lon="6.89892">
        <ele>335.692</ele>
        <time>2009-10-28T10:19:31Z</time>
      </trkpt>
      <trkpt lat="48.49327" lon="6.89918">
        <ele>333.442</ele>
        <time>2009-10-28T10:19:34Z</time>
      </trkpt>
      <trkpt lat="48.49331" lon="6.89955">
        <ele>331.412</ele>
        <time>2009-10-28T10:19:37Z</time>
      </trkpt>
      <trkpt lat="48.49321" lon="6.90039">
        <ele>330.106</ele>
        <time>2009-10-28T10:19:44Z</time>
      </trkpt>
      <trkpt lat="48.49321" lon="6.90051">
        <ele>331.166</ele>
        <time>2009-10-28T10:19:45Z</time>
      </trkpt>
      <trkpt lat="48.49335" lon="6.90101">
        <ele>332.666</ele>
        <time>2009-10-28T10:19:50Z</time>
      </trkpt>
      <trkpt lat="48.49352" lon="6.90134">
        <ele>330.886</ele>
        <time>2009-10-28T10:19:54Z</time>
      </trkpt>
      <trkpt lat="48.49358" lon="6.90141">
        <ele>330.576</ele>
        <time>2009-10-28T10:19:55Z</time>
      </trkpt>
      <trkpt lat="48.49376" lon="6.90159">
        <ele>329.756</ele>
        <time>2009-10-28T10:19:58Z</time>
      </trkpt>
      <trkpt lat="48.49401" lon="6.90166">
        <ele>329.386</ele>
        <time>2009-10-28T10:20:02Z</time>
      </trkpt>
      <trkpt lat="48.49417" lon="6.90154">
        <ele>329.247</ele>
        <time>2009-10-28T10:20:05Z</time>
      </trkpt>
      <trkpt lat="48.49447" lon="6.9012">
        <ele>329.697</ele>
        <time>2009-10-28T10:20:12Z</time>
      </trkpt>
      <trkpt lat="48.49477" lon="6.90096">
        <ele>332.187</ele>
        <time>2009-10-28T10:20:19Z</time>
      </trkpt>
      <trkpt lat="48.4949" lon="6.90083">
        <ele>333.046</ele>
        <time>2009-10-28T10:20:22Z</time>
      </trkpt>
      <trkpt lat="48.49528" lon="6.90032">
        <ele>335.466</ele>
        <time>2009-10-28T10:20:31Z</time>
      </trkpt>
      <trkpt lat="48.49567" lon="6.8998">
        <ele>339.047</ele>
        <time>2009-10-28T10:20:40Z</time>
      </trkpt>
      <trkpt lat="48.49577" lon="6.89968">
        <ele>339.647</ele>
        <time>2009-10-28T10:20:42Z</time>
      </trkpt>
      <trkpt lat="48.49606" lon="6.89943">
        <ele>339.196</ele>
        <time>2009-10-28T10:20:47Z</time>
      </trkpt>
      <trkpt lat="48.49648" lon="6.8989">
        <ele>340.056</ele>
        <time>2009-10-28T10:20:54Z</time>
      </trkpt>
      <trkpt lat="48.49683" lon="6.89839">
        <ele>338.925</ele>
        <time>2009-10-28T10:21:00Z</time>
      </trkpt>
      <trkpt lat="48.49712" lon="6.89808">
        <ele>342.416</ele>
        <time>2009-10-28T10:21:04Z</time>
      </trkpt>
      <trkpt lat="48.49741" lon="6.89781">
        <ele>340.856</ele>
        <time>2009-10-28T10:21:09Z</time>
      </trkpt>
      <trkpt lat="48.49745" lon="6.89754">
        <ele>338.585</ele>
        <time>2009-10-28T10:21:12Z</time>
      </trkpt>
      <trkpt lat="48.49748" lon="6.89738">
        <ele>337.925</ele>
        <time>2009-10-28T10:21:14Z</time>
      </trkpt>
      <trkpt lat="48.49748" lon="6.89724">
        <ele>336.495</ele>
        <time>2009-10-28T10:21:16Z</time>
      </trkpt>
      <trkpt lat="48.49753" lon="6.89704">
        <ele>333.804</ele>
        <time>2009-10-28T10:21:20Z</time>
      </trkpt>
      <trkpt lat="48.49755" lon="6.89688">
        <ele>329.544</ele>
        <time>2009-10-28T10:21:25Z</time>
      </trkpt>
      <trkpt lat="48.49752" lon="6.89668">
        <ele>330.536</ele>
        <time>2009-10-28T10:21:28Z</time>
      </trkpt>
      <trkpt lat="48.49748" lon="6.8964">
        <ele>329.046</ele>
        <time>2009-10-28T10:21:32Z</time>
      </trkpt>
      <trkpt lat="48.4974" lon="6.89599">
        <ele>326.626</ele>
        <time>2009-10-28T10:21:38Z</time>
      </trkpt>
      <trkpt lat="48.49727" lon="6.89574">
        <ele>327.488</ele>
        <time>2009-10-28T10:21:43Z</time>
      </trkpt>
      <trkpt lat="48.49718" lon="6.8958">
        <ele>328.508</ele>
        <time>2009-10-28T10:21:46Z</time>
      </trkpt>
      <trkpt lat="48.49709" lon="6.89593">
        <ele>328.027</ele>
        <time>2009-10-28T10:21:50Z</time>
      </trkpt>
      <trkpt lat="48.49709" lon="6.89595">
        <ele>327.947</ele>
        <time>2009-10-28T10:21:51Z</time>
      </trkpt>
      <trkpt lat="48.49709" lon="6.89596">
        <ele>328.101</ele>
        <time>2009-10-28T10:21:52Z</time>
      </trkpt>
      <trkpt lat="48.4971" lon="6.89598">
        <ele>328.304</ele>
        <time>2009-10-28T10:21:55Z</time>
      </trkpt>
    </trkseg>
  </trk>
</gpx>